[[{"header":{"parameterUnit":"m.s-1","parameterCategory":1,"la1":31.0,"la2":29.5877,"lo1":-88.7671,"lo2":-86.6584,"dy":0.0162,"dx":0.0185,"nx":115,"ny":88,"refTime":"2025-04-12T12:00:00:Z","depth":0,"parameterNumber":2,"parameterNumberName":"U-component_of_WINDS"},"data":[0.0,0.0,0.0,0.0,0.0,0.0,0.0,0.0,0.0,0.0,0.0,0.0,0.0,0.0,0.0,0.0,0.0,0.0,0.0,0.0,0.0,0.0,0.0,0.0,0.0,0.0,0.0,0.0,0.0,0.0,0.0,0.0,0.0,0.0,0.0,0.0,0.0,0.0,0.0,0.0,0.0,0.0,0.0,0.0,0.0,0.0,0.0,0.0,0.0,0.0,0.0,0.0,0.0,0.0,0.0,0.0,0.0,0.0,0.0,0.0,0.0,0.0,0.0,0.0,0.0,0.0,0.0,0.0,0.0,0.0,0.0,0.0,0.0,0.0,0.0,0.0,0.0,0.0,0.0,0.0,0.0,0.0,0.0,0.0,0.0,0.0,0.0,0.0,0.0,0.0,0.0,0.0,0.0,0.0,0.0,0.0,0.0,0.0,0.0,0.0,0.0,0.0,0.0,0.0,0.0,0.0,0.0,0.0,0.0,0.0,0.0,0.0,0.0,0.0,0.0,0.0,0.0,0.0,0.0,0.0,0.0,0.0,0.0,0.0,0.0,0.0,0.0,0.0,0.0,0.0,0.0,0.0,0.0,0.0,0.0,0.0,0.0,0.0,0.0,0.0,0.0,0.0,0.0,0.0,0.0,0.0,0.0,0.0,0.0,0.0,0.0,0.0,0.0,0.0,0.0,0.0,0.0,0.0,0.0,0.0,0.0,0.0,0.0,0.0,0.0,0.0,0.0,0.0,0.0,0.0,0.0,0.0,0.0,0.0,0.0,0.0,0.0,0.0,0.0,0.0,0.0,0.0,0.0,0.0,0.0,0.0,0.0,0.0,0.0,0.0,0.0,0.0,0.0,0.0,0.0,0.0,0.0,0.0,0.0,0.0,0.0,0.0,0.0,0.0,0.0,0.0,0.0,0.0,0.0,0.0,0.0,0.0,0.0,0.0,0.0,0.0,0.0,0.0,0.0,0.0,0.0,0.0,0.0,0.0,0.0,0.0,0.0,0.0,0.0,0.0,0.0,0.0,0.0,0.0,0.0,0.0,0.0,0.0,0.0,0.0,0.0,0.0,0.0,0.0,0.0,0.0,0.0,0.0,0.0,0.0,0.0,0.0,0.0,0.0,0.0,0.0,0.0,0.0,0.0,0.0,0.0,0.0,0.0,0.0,0.0,0.0,0.0,0.0,0.0,0.0,0.0,0.0,0.0,0.0,0.0,0.0,0.0,0.0,0.0,0.0,0.0,0.0,0.0,0.0,0.0,0.0,0.0,0.0,0.0,0.0,0.0,0.0,0.0,0.0,0.0,0.0,0.0,0.0,0.0,0.0,0.0,0.0,0.0,0.0,0.0,0.0,0.0,0.0,0.0,0.0,0.0,0.0,0.0,0.0,0.0,0.0,0.0,0.0,0.0,0.0,0.0,0.0,0.0,0.0,0.0,0.0,0.0,0.0,0.0,0.0,0.0,0.0,0.0,0.0,0.0,0.0,0.0,0.0,0.0,0.0,0.0,0.0,0.0,0.0,0.0,0.0,0.0,0.0,0.0,0.0,0.0,0.0,0.0,0.0,0.0,0.0,0.0,0.0,0.0,0.0,0.0,0.0,0.0,0.0,0.0,0.0,0.0,0.0,0.0,0.0,0.0,0.0,0.0,0.0,0.0,0.0,0.0,0.0,0.0,0.0,0.0,0.0,0.0,0.0,0.0,0.0,0.0,0.0,0.0,0.0,0.0,0.0,0.0,0.0,0.0,0.0,0.0,0.0,0.0,0.0,0.0,0.0,0.0,0.0,0.0,0.0,0.0,0.0,0.0,0.0,0.0,0.0,0.0,0.0,0.0,0.0,0.0,0.0,0.0,0.0,0.0,0.0,0.0,0.0,0.0,0.0,0.0,0.0,0.0,0.0,0.0,0.0,0.0,0.0,0.0,0.0,0.0,0.0,0.0,0.0,0.0,0.0,0.0,0.0,0.0,0.0,0.0,0.0,0.0,0.0,0.0,0.0,0.0,0.0,0.0,0.0,0.0,0.0,0.0,0.0,0.0,0.0,0.0,0.0,0.0,0.0,0.0,0.0,0.0,0.0,0.0,0.0,0.0,0.0,0.0,0.0,0.0,0.0,0.0,0.0,0.0,0.0,0.0,0.0,0.0,0.0,0.0,0.0,0.0,0.0,0.0,0.0,0.0,0.0,0.0,0.0,0.0,0.0,0.0,0.0,0.0,0.0,0.0,0.0,0.0,0.0,0.0,0.0,0.0,0.0,0.0,0.0,0.0,0.0,0.0,0.0,0.0,0.0,0.0,0.0,0.0,0.0,0.0,0.0,0.0,0.0,0.0,0.0,0.0,0.0,0.0,0.0,0.0,0.0,0.0,0.0,0.0,0.0,0.0,0.0,0.0,0.0,0.0,0.0,0.0,0.0,0.0,0.0,0.0,0.0,0.0,0.0,0.0,0.0,0.0,0.0,0.0,0.0,0.0,0.0,0.0,0.0,0.0,0.0,0.0,0.0,0.0,0.0,0.0,0.0,0.0,0.0,0.0,0.0,0.0,0.0,0.0,0.0,0.0,0.0,0.0,0.0,0.0,0.0,0.0,0.0,0.0,0.0,0.0,0.0,0.0,0.0,0.0,0.0,0.0,0.0,0.0,0.0,0.0,0.0,0.0,0.0,0.0,0.0,0.0,0.0,0.0,0.0,0.0,0.0,0.0,0.0,0.0,0.0,0.0,0.0,0.0,0.0,0.0,0.0,0.0,0.0,0.0,0.0,0.0,0.0,0.0,0.0,0.0,0.0,0.0,0.0,0.0,0.0,0.0,0.0,0.0,0.0,0.0,0.0,0.0,0.0,0.0,0.0,0.0,0.0,0.0,0.0,0.0,0.0,0.0,0.0,0.0,0.0,0.0,0.0,0.0,0.0,0.0,0.0,0.0,0.0,0.0,0.0,0.0,0.0,0.0,0.0,0.0,0.0,0.0,0.0,0.0,0.0,0.0,0.0,0.0,0.0,0.0,0.0,0.0,0.0,0.0,0.0,0.0,0.0,0.0,0.0,0.0,0.0,0.0,0.0,0.0,0.0,0.0,0.0,0.0,0.0,0.0,0.0,0.0,0.0,0.0,0.0,0.0,0.0,0.0,0.0,0.0,0.0,0.0,0.0,0.0,0.0,0.0,0.0,0.0,0.0,0.0,0.0,0.0,0.0,0.0,0.0,0.0,0.0,0.0,0.0,0.0,0.0,0.0,0.0,0.0,0.0,0.0,0.0,0.0,0.0,0.0,0.0,0.0,0.0,0.0,0.0,0.0,0.0,0.0,0.0,0.0,0.0,0.0,0.0,0.0,0.0,0.0,0.0,0.0,0.0,0.0,0.0,0.0,0.0,0.0,0.0,0.0,0.0,0.0,0.0,0.0,0.0,0.0,0.0,0.0,0.0,0.0,0.0,0.0,0.0,0.0,0.0,0.0,0.0,0.0,0.0,0.0,0.0,0.0,0.0,0.0,0.0,0.0,0.0,0.0,0.0,0.0,0.0,0.0,0.0,0.0,0.0,0.0,0.0,0.0,0.0,0.0,0.0,0.0,0.0,0.0,0.0,0.0,0.0,0.0,0.0,0.0,0.0,0.0,0.0,0.0,0.0,0.0,0.0,0.0,0.0,0.0,0.0,0.0,0.0,0.0,0.0,0.0,0.0,0.0,0.0,0.0,0.0,0.0,0.0,0.0,0.0,0.0,0.0,0.0,0.0,0.0,0.0,0.0,0.0,0.0,0.0,0.0,0.0,0.0,0.0,0.0,0.0,0.0,0.0,0.0,0.0,0.0,0.0,0.0,0.0,0.0,0.0,0.0,0.0,0.0,0.0,0.0,0.0,0.0,0.0,0.0,0.0,0.0,0.0,0.0,0.0,0.0,0.0,0.0,0.0,0.0,0.0,0.0,0.0,0.0,0.0,0.0,0.0,0.0,0.0,0.0,0.0,0.0,0.0,0.0,0.0,0.0,0.0,0.0,0.0,0.0,0.0,0.0,0.0,0.0,0.0,0.0,0.0,0.0,0.0,0.0,0.0,0.0,0.0,0.0,0.0,0.0,0.0,0.0,0.0,0.0,0.0,0.0,0.0,0.0,0.0,0.0,0.0,0.0,0.0,0.0,0.0,0.0,0.0,0.0,0.0,0.0,0.0,0.0,0.0,0.0,0.0,0.0,0.0,0.0,0.0,0.0,0.0,0.0,0.0,0.0,0.0,0.0,0.0,0.0,0.0,0.0,0.0,0.0,0.0,0.0,0.0,-1.7789,0.0,0.0,0.0,0.0,0.0,0.0,0.0,0.0,0.0,0.0,0.0,0.0,0.0,0.0,0.0,0.0,0.0,0.0,0.0,0.0,0.0,0.0,0.0,0.0,0.0,0.0,0.0,0.0,0.0,0.0,0.0,0.0,0.0,0.0,0.0,0.0,0.0,0.0,0.0,0.0,0.0,0.0,0.0,0.0,0.0,0.0,0.0,0.0,0.0,0.0,0.0,0.0,0.0,0.0,0.0,0.0,0.0,0.0,0.0,0.0,0.0,0.0,0.0,0.0,0.0,0.0,0.0,0.0,0.0,0.0,0.0,0.0,0.0,0.0,0.0,0.0,0.0,0.0,0.0,0.0,0.0,0.0,0.0,0.0,0.0,0.0,0.0,0.0,0.0,0.0,0.0,0.0,0.0,0.0,0.0,0.0,0.0,0.0,0.0,0.0,0.0,0.0,0.0,0.0,0.0,0.0,0.0,0.0,0.0,0.0,-1.7789,-1.7789,-1.7789,-1.7789,-1.7817,0.0,0.0,0.0,0.0,0.0,0.0,0.0,0.0,0.0,0.0,0.0,0.0,0.0,0.0,0.0,0.0,0.0,0.0,0.0,0.0,0.0,0.0,0.0,0.0,0.0,0.0,0.0,0.0,0.0,0.0,0.0,0.0,0.0,0.0,0.0,0.0,0.0,0.0,0.0,0.0,0.0,0.0,0.0,0.0,0.0,0.0,0.0,0.0,0.0,0.0,0.0,0.0,0.0,0.0,0.0,0.0,0.0,0.0,0.0,0.0,0.0,0.0,0.0,0.0,0.0,0.0,0.0,0.0,0.0,0.0,0.0,0.0,0.0,0.0,0.0,0.0,0.0,0.0,0.0,0.0,0.0,0.0,0.0,0.0,0.0,0.0,0.0,0.0,0.0,0.0,0.0,0.0,0.0,0.0,0.0,0.0,0.0,0.0,0.0,0.0,0.0,0.0,0.0,0.0,0.0,0.0,0.0,0.0,0.0,0.0,0.0,0.0,-1.829,-1.8307,-1.8341,0.0,0.0,0.0,0.0,0.0,0.0,0.0,0.0,0.0,0.0,0.0,0.0,0.0,0.0,0.0,0.0,0.0,0.0,0.0,0.0,0.0,0.0,0.0,0.0,0.0,0.0,0.0,0.0,0.0,0.0,0.0,0.0,0.0,0.0,0.0,0.0,0.0,0.0,0.0,0.0,0.0,0.0,0.0,0.0,0.0,0.0,0.0,0.0,0.0,0.0,0.0,0.0,0.0,0.0,0.0,0.0,0.0,0.0,0.0,0.0,0.0,0.0,0.0,0.0,0.0,0.0,0.0,0.0,0.0,0.0,0.0,0.0,0.0,0.0,0.0,0.0,0.0,0.0,0.0,0.0,0.0,0.0,0.0,0.0,0.0,0.0,0.0,0.0,0.0,0.0,0.0,0.0,0.0,0.0,0.0,0.0,0.0,0.0,0.0,0.0,0.0,0.0,0.0,0.0,0.0,0.0,0.0,0.0,0.0,0.0,-1.8442,-1.9748,-1.9794,0.0,-1.9849,0.0,0.0,0.0,0.0,0.0,0.0,0.0,0.0,0.0,0.0,0.0,0.0,0.0,0.0,0.0,0.0,0.0,0.0,0.0,0.0,0.0,0.0,0.0,0.0,0.0,0.0,0.0,0.0,0.0,0.0,0.0,0.0,0.0,0.0,0.0,0.0,0.0,0.0,0.0,0.0,0.0,0.0,0.0,0.0,0.0,0.0,0.0,0.0,0.0,0.0,0.0,0.0,0.0,0.0,0.0,0.0,0.0,0.0,0.0,0.0,0.0,0.0,0.0,0.0,0.0,0.0,0.0,0.0,0.0,0.0,0.0,0.0,0.0,0.0,0.0,0.0,0.0,0.0,0.0,0.0,0.0,0.0,0.0,0.0,0.0,0.0,0.0,0.0,0.0,0.0,0.0,0.0,0.0,0.0,0.0,0.0,0.0,0.0,0.0,0.0,0.0,0.0,0.0,0.0,0.0,0.0,0.0,0.0,0.0,0.0,0.0,-1.9985,-1.9985,-1.9985,0.0,0.0,0.0,0.0,0.0,0.0,0.0,0.0,0.0,0.0,0.0,0.0,0.0,0.0,0.0,0.0,0.0,0.0,0.0,0.0,0.0,0.0,0.0,0.0,0.0,0.0,0.0,0.0,0.0,0.0,0.0,0.0,0.0,0.0,0.0,0.0,0.0,0.0,0.0,0.0,0.0,0.0,0.0,0.0,0.0,0.0,0.0,0.0,0.0,0.0,0.0,0.0,0.0,0.0,0.0,0.0,0.0,0.0,0.0,0.0,0.0,0.0,0.0,0.0,0.0,0.0,0.0,0.0,0.0,0.0,0.0,0.0,0.0,0.0,0.0,0.0,0.0,0.0,0.0,0.0,0.0,0.0,0.0,0.0,0.0,0.0,0.0,0.0,0.0,0.0,0.0,0.0,0.0,0.0,0.0,0.0,0.0,0.0,0.0,0.0,0.0,0.0,0.0,0.0,0.0,0.0,0.0,0.0,0.0,0.0,-1.9681,0.0,-2.0606,-2.0627,-2.0437,-2.0002,0.0,0.0,0.0,0.0,0.0,0.0,0.0,0.0,0.0,0.0,0.0,0.0,0.0,0.0,0.0,0.0,0.0,0.0,0.0,0.0,0.0,0.0,0.0,0.0,0.0,0.0,0.0,0.0,0.0,0.0,0.0,0.0,0.0,0.0,0.0,0.0,0.0,0.0,0.0,0.0,0.0,0.0,0.0,0.0,0.0,0.0,0.0,0.0,0.0,0.0,0.0,0.0,0.0,0.0,0.0,0.0,0.0,0.0,0.0,0.0,0.0,0.0,0.0,0.0,0.0,0.0,0.0,0.0,0.0,0.0,0.0,0.0,0.0,0.0,0.0,0.0,0.0,0.0,0.0,0.0,0.0,0.0,0.0,0.0,0.0,0.0,0.0,0.0,0.0,0.0,0.0,0.0,0.0,0.0,0.0,0.0,0.0,0.0,0.0,0.0,0.0,0.0,0.0,0.0,0.0,0.0,0.0,0.0,0.0,-2.0707,-2.0724,-2.2127,-2.2195,-2.1519,0.0,0.0,0.0,0.0,0.0,0.0,0.0,0.0,0.0,0.0,0.0,0.0,0.0,0.0,0.0,0.0,0.0,0.0,0.0,0.0,0.0,0.0,0.0,0.0,0.0,0.0,0.0,0.0,0.0,0.0,0.0,0.0,0.0,0.0,0.0,0.0,0.0,0.0,0.0,0.0,0.0,0.0,0.0,0.0,0.0,0.0,0.0,0.0,0.0,0.0,0.0,0.0,0.0,0.0,0.0,0.0,0.0,0.0,0.0,0.0,0.0,0.0,0.0,0.0,0.0,0.0,0.0,0.0,0.0,0.0,0.0,0.0,0.0,0.0,0.0,0.0,0.0,0.0,0.0,0.0,0.0,0.0,0.0,0.0,0.0,0.0,0.0,0.0,0.0,0.0,0.0,0.0,0.0,0.0,0.0,0.0,0.0,0.0,0.0,0.0,0.0,0.0,0.0,0.0,0.0,0.0,0.0,0.0,0.0,-1.9384,-1.9782,-2.1181,-2.3511,-2.187,-2.1028,0.0,0.0,0.0,0.0,0.0,0.0,0.0,0.0,0.0,0.0,0.0,0.0,0.0,0.0,0.0,0.0,0.0,0.0,0.0,0.0,0.0,0.0,0.0,0.0,0.0,0.0,0.0,0.0,0.0,0.0,0.0,0.0,0.0,0.0,0.0,0.0,0.0,0.0,0.0,0.0,0.0,0.0,0.0,0.0,0.0,0.0,0.0,0.0,0.0,0.0,0.0,0.0,0.0,0.0,0.0,0.0,0.0,0.0,0.0,0.0,0.0,0.0,0.0,0.0,0.0,0.0,0.0,0.0,0.0,0.0,0.0,0.0,0.0,0.0,0.0,0.0,0.0,0.0,0.0,0.0,0.0,0.0,0.0,0.0,0.0,0.0,0.0,0.0,0.0,0.0,0.0,0.0,0.0,0.0,0.0,0.0,0.0,0.0,0.0,0.0,0.0,0.0,0.0,0.0,0.0,0.0,0.0,0.0,0.0,-1.9375,0.0,-2.2226,0.0,-2.1806,-2.0775,0.0,0.0,0.0,0.0,0.0,0.0,0.0,0.0,0.0,0.0,0.0,0.0,0.0,0.0,0.0,0.0,0.0,0.0,0.0,0.0,0.0,0.0,0.0,0.0,0.0,0.0,0.0,0.0,0.0,0.0,0.0,0.0,0.0,0.0,0.0,0.0,0.0,0.0,0.0,0.0,0.0,0.0,0.0,0.0,0.0,0.0,0.0,0.0,0.0,0.0,0.0,0.0,0.0,0.0,0.0,0.0,0.0,0.0,0.0,0.0,0.0,0.0,0.0,0.0,0.0,0.0,0.0,0.0,0.0,0.0,0.0,0.0,0.0,0.0,0.0,0.0,0.0,0.0,0.0,0.0,0.0,0.0,0.0,0.0,0.0,0.0,0.0,0.0,0.0,0.0,0.0,0.0,0.0,0.0,0.0,0.0,0.0,0.0,0.0,0.0,0.0,0.0,0.0,0.0,0.0,0.0,0.0,0.0,0.0,-2.2501,-2.3721,-2.3678,-2.2398,-2.2262,-2.0876,0.0,0.0,0.0,0.0,0.0,0.0,0.0,0.0,0.0,0.0,0.0,0.0,0.0,0.0,0.0,0.0,0.0,0.0,0.0,0.0,0.0,0.0,0.0,0.0,0.0,0.0,0.0,0.0,0.0,0.0,0.0,0.0,0.0,0.0,0.0,0.0,0.0,0.0,0.0,0.0,0.0,0.0,0.0,0.0,0.0,0.0,0.0,0.0,0.0,0.0,0.0,0.0,0.0,0.0,0.0,0.0,0.0,0.0,0.0,0.0,0.0,0.0,0.0,0.0,0.0,0.0,0.0,0.0,0.0,0.0,0.0,0.0,0.0,0.0,0.0,0.0,0.0,0.0,0.0,0.0,0.0,0.0,0.0,0.0,0.0,0.0,0.0,0.0,0.0,0.0,0.0,0.0,0.0,0.0,0.0,0.0,0.0,0.0,0.0,0.0,0.0,0.0,0.0,0.0,0.0,0.0,0.0,0.0,0.0,-2.1955,-2.2627,-2.3241,-2.3729,-2.2341,-2.1346,0.0,0.0,0.0,0.0,0.0,0.0,0.0,0.0,0.0,0.0,0.0,0.0,0.0,0.0,0.0,0.0,0.0,0.0,0.0,0.0,0.0,0.0,0.0,0.0,0.0,0.0,0.0,0.0,0.0,0.0,0.0,0.0,0.0,0.0,0.0,0.0,0.0,0.0,0.0,0.0,0.0,0.0,0.0,0.0,0.0,0.0,0.0,0.0,0.0,0.0,0.0,0.0,0.0,0.0,0.0,0.0,0.0,0.0,0.0,0.0,0.0,0.0,0.0,0.0,0.0,0.0,0.0,0.0,0.0,0.0,0.0,0.0,0.0,0.0,0.0,0.0,0.0,0.0,0.0,0.0,0.0,0.0,0.0,0.0,0.0,0.0,0.0,0.0,0.0,0.0,0.0,0.0,0.0,0.0,0.0,0.0,0.0,0.0,0.0,0.0,0.0,0.0,0.0,0.0,0.0,0.0,0.0,0.0,0.0,-2.459,-2.4579,-2.4735,-2.5157,-2.3391,-2.2257,-2.187,0.0,0.0,0.0,0.0,0.0,0.0,0.0,0.0,0.0,0.0,0.0,0.0,0.0,0.0,0.0,0.0,0.0,0.0,0.0,0.0,0.0,0.0,0.0,0.0,0.0,0.0,0.0,0.0,0.0,0.0,0.0,0.0,0.0,0.0,0.0,0.0,0.0,0.0,0.0,0.0,0.0,0.0,0.0,0.0,0.0,0.0,0.0,0.0,0.0,0.0,0.0,0.0,0.0,0.0,0.0,0.0,0.0,0.0,0.0,0.0,0.0,0.0,0.0,0.0,0.0,0.0,0.0,0.0,0.0,0.0,0.0,0.0,0.0,0.0,0.0,0.0,0.0,0.0,0.0,0.0,0.0,0.0,0.0,0.0,0.0,0.0,0.0,0.0,0.0,0.0,0.0,0.0,0.0,0.0,0.0,0.0,0.0,0.0,0.0,0.0,0.0,0.0,0.0,0.0,0.0,0.0,0.0,0.0,-2.9723,-2.9044,-2.7976,-2.6541,-2.536,-2.3672,0.0,0.0,0.0,0.0,0.0,0.0,0.0,0.0,0.0,0.0,0.0,0.0,0.0,0.0,0.0,0.0,0.0,0.0,0.0,0.0,0.0,0.0,0.0,0.0,0.0,0.0,0.0,0.0,0.0,0.0,0.0,0.0,0.0,0.0,0.0,0.0,0.0,0.0,0.0,0.0,0.0,0.0,0.0,0.0,0.0,0.0,0.0,0.0,0.0,0.0,0.0,0.0,0.0,0.0,0.0,0.0,0.0,0.0,0.0,0.0,0.0,0.0,0.0,0.0,0.0,0.0,0.0,0.0,0.0,0.0,0.0,0.0,0.0,0.0,0.0,0.0,0.0,0.0,0.0,0.0,0.0,0.0,0.0,0.0,0.0,0.0,0.0,0.0,0.0,0.0,0.0,0.0,0.0,0.0,0.0,0.0,0.0,0.0,0.0,0.0,0.0,0.0,0.0,0.0,0.0,0.0,0.0,0.0,0.0,-3.1743,-3.2101,-3.1144,-2.8904,-2.7976,-2.6048,0.0,0.0,0.0,0.0,0.0,0.0,0.0,0.0,0.0,0.0,0.0,0.0,0.0,0.0,0.0,0.0,0.0,0.0,0.0,0.0,0.0,0.0,0.0,0.0,0.0,0.0,0.0,0.0,0.0,0.0,0.0,0.0,0.0,0.0,0.0,0.0,0.0,0.0,0.0,0.0,0.0,0.0,0.0,0.0,0.0,0.0,0.0,0.0,0.0,0.0,0.0,0.0,0.0,0.0,0.0,0.0,0.0,0.0,0.0,0.0,0.0,0.0,0.0,0.0,0.0,0.0,0.0,0.0,0.0,0.0,0.0,0.0,0.0,0.0,0.0,0.0,0.0,0.0,0.0,0.0,0.0,0.0,0.0,0.0,0.0,0.0,0.0,0.0,0.0,0.0,0.0,0.0,0.0,0.0,0.0,0.0,0.0,0.0,0.0,0.0,0.0,0.0,0.0,0.0,0.0,0.0,0.0,0.0,-3.1659,-3.3573,-3.4676,-3.4281,-3.2296,-3.0576,-2.8014,0.0,0.0,0.0,0.0,0.0,0.0,0.0,0.0,0.0,0.0,0.0,0.0,0.0,0.0,0.0,0.0,0.0,0.0,0.0,0.0,0.0,0.0,0.0,0.0,0.0,0.0,0.0,0.0,0.0,0.0,0.0,0.0,0.0,0.0,0.0,0.0,0.0,0.0,0.0,0.0,0.0,0.0,0.0,0.0,0.0,0.0,0.0,0.0,0.0,0.0,0.0,0.0,0.0,0.0,0.0,0.0,0.0,0.0,0.0,0.0,0.0,0.0,0.0,0.0,0.0,0.0,0.0,0.0,0.0,0.0,0.0,0.0,0.0,0.0,0.0,0.0,0.0,0.0,0.0,0.0,0.0,0.0,0.0,0.0,0.0,0.0,0.0,0.0,0.0,0.0,0.0,0.0,0.0,0.0,0.0,0.0,0.0,0.0,0.0,0.0,0.0,0.0,0.0,0.0,0.0,0.0,0.0,0.0,-3.2834,-3.5206,-3.6736,-3.704,-3.5912,-3.3034,-2.9714,0.0,0.0,0.0,0.0,0.0,0.0,0.0,0.0,0.0,0.0,0.0,0.0,0.0,0.0,0.0,0.0,0.0,0.0,0.0,0.0,0.0,0.0,0.0,0.0,0.0,0.0,0.0,0.0,0.0,0.0,0.0,0.0,0.0,0.0,0.0,0.0,0.0,0.0,0.0,0.0,0.0,0.0,0.0,0.0,0.0,0.0,0.0,0.0,0.0,0.0,0.0,0.0,0.0,0.0,0.0,0.0,0.0,0.0,0.0,0.0,0.0,0.0,0.0,0.0,0.0,0.0,0.0,0.0,0.0,0.0,0.0,0.0,0.0,0.0,0.0,0.0,0.0,0.0,0.0,0.0,0.0,0.0,0.0,0.0,0.0,0.0,0.0,0.0,0.0,0.0,0.0,0.0,0.0,0.0,0.0,0.0,0.0,0.0,0.0,0.0,0.0,0.0,0.0,0.0,0.0,0.0,0.0,0.0,-3.4486,-3.689,-3.7519,-3.7721,-3.7507,-3.4744,-3.1583,0.0,0.0,0.0,0.0,0.0,0.0,0.0,0.0,0.0,0.0,0.0,0.0,0.0,0.0,0.0,0.0,0.0,0.0,0.0,0.0,0.0,0.0,0.0,0.0,0.0,0.0,0.0,0.0,0.0,0.0,0.0,0.0,0.0,0.0,0.0,0.0,0.0,0.0,0.0,0.0,0.0,0.0,0.0,0.0,0.0,0.0,0.0,0.0,-1.6383,0.0,0.0,0.0,0.0,0.0,0.0,0.0,0.0,0.0,0.0,0.0,0.0,0.0,0.0,0.0,0.0,0.0,0.0,0.0,0.0,0.0,0.0,0.0,0.0,0.0,0.0,0.0,0.0,0.0,0.0,0.0,0.0,0.0,0.0,0.0,0.0,0.0,0.0,0.0,0.0,0.0,0.0,0.0,0.0,0.0,0.0,0.0,0.0,0.0,0.0,0.0,0.0,0.0,0.0,0.0,0.0,0.0,0.0,0.0,-3.5973,-3.7991,-3.8561,-3.8864,-3.8789,-3.6145,-3.2896,0.0,0.0,0.0,0.0,0.0,0.0,0.0,0.0,0.0,0.0,0.0,0.0,0.0,0.0,0.0,0.0,0.0,0.0,0.0,0.0,0.0,0.0,0.0,0.0,0.0,0.0,0.0,0.0,0.0,0.0,0.0,0.0,0.0,0.0,0.0,0.0,0.0,0.0,0.0,0.0,0.0,0.0,0.0,0.0,0.0,0.0,0.0,0.0,0.0,0.0,0.0,0.0,0.0,0.0,0.0,0.0,0.0,0.0,0.0,0.0,0.0,0.0,0.0,0.0,0.0,0.0,0.0,0.0,0.0,0.0,0.0,0.0,0.0,0.0,0.0,0.0,0.0,0.0,0.0,0.0,0.0,0.0,0.0,0.0,0.0,0.0,0.0,0.0,0.0,0.0,0.0,0.0,0.0,0.0,0.0,0.0,0.0,0.0,0.0,0.0,0.0,0.0,0.0,0.0,0.0,0.0,0.0,-3.4541,-3.7312,-3.935,-3.9992,-4.0233,-4.0097,-3.731,-3.3981,-3.0209,0.0,0.0,0.0,0.0,0.0,0.0,0.0,0.0,0.0,0.0,0.0,0.0,0.0,0.0,0.0,0.0,0.0,0.0,0.0,0.0,0.0,0.0,0.0,0.0,0.0,0.0,0.0,0.0,0.0,0.0,0.0,0.0,0.0,0.0,0.0,0.0,0.0,0.0,-1.4577,-1.7134,0.0,0.0,0.0,0.0,0.0,0.0,0.0,0.0,-1.8296,0.0,0.0,0.0,0.0,0.0,0.0,0.0,0.0,0.0,0.0,0.0,0.0,0.0,0.0,0.0,0.0,0.0,0.0,0.0,0.0,0.0,0.0,0.0,0.0,0.0,0.0,0.0,0.0,0.0,0.0,0.0,0.0,0.0,0.0,0.0,0.0,0.0,0.0,0.0,0.0,0.0,0.0,0.0,0.0,0.0,0.0,0.0,0.0,0.0,0.0,0.0,0.0,0.0,0.0,0.0,0.0,-3.5183,-3.5954,-3.8377,-4.2561,-4.2176,-4.1695,-4.118,-3.8249,-3.5003,-3.1655,0.0,0.0,0.0,0.0,0.0,0.0,0.0,0.0,0.0,0.0,0.0,0.0,0.0,0.0,0.0,0.0,0.0,0.0,0.0,0.0,0.0,0.0,0.0,0.0,0.0,0.0,0.0,0.0,0.0,0.0,0.0,0.0,0.0,0.0,0.0,0.0,0.0,0.0,0.0,-1.9435,-2.0364,0.0,0.0,0.0,0.0,0.0,0.0,0.0,0.0,-1.7339,0.0,0.0,0.0,0.0,0.0,0.0,0.0,0.0,0.0,0.0,0.0,0.0,0.0,0.0,0.0,0.0,0.0,0.0,0.0,0.0,0.0,0.0,0.0,0.0,0.0,0.0,0.0,0.0,0.0,0.0,0.0,0.0,0.0,0.0,0.0,0.0,0.0,0.0,0.0,0.0,0.0,0.0,0.0,0.0,0.0,0.0,0.0,0.0,0.0,0.0,0.0,0.0,0.0,0.0,0.0,-3.5408,-3.7716,-4.0524,-4.3956,-4.3332,-4.2604,-4.1866,-3.8223,-3.5009,0.0,0.0,0.0,0.0,0.0,0.0,0.0,0.0,0.0,0.0,0.0,0.0,0.0,0.0,0.0,0.0,0.0,0.0,0.0,0.0,0.0,0.0,0.0,0.0,0.0,0.0,0.0,0.0,0.0,0.0,0.0,0.0,0.0,0.0,0.0,0.0,0.0,0.0,0.0,0.0,-2.0601,-2.1253,-2.1918,0.0,0.0,0.0,0.0,0.0,0.0,-1.9718,-1.8528,0.0,0.0,0.0,0.0,0.0,0.0,0.0,0.0,0.0,0.0,0.0,0.0,0.0,0.0,0.0,0.0,0.0,0.0,0.0,0.0,0.0,0.0,0.0,0.0,0.0,0.0,0.0,0.0,0.0,0.0,0.0,0.0,0.0,0.0,0.0,0.0,0.0,0.0,0.0,0.0,0.0,0.0,0.0,0.0,0.0,0.0,0.0,0.0,0.0,0.0,0.0,0.0,0.0,0.0,0.0,-3.5243,-3.8949,-4.2104,-4.4544,-4.4066,-4.3243,-4.2112,-3.8251,-3.5069,0.0,0.0,0.0,0.0,0.0,0.0,0.0,0.0,0.0,0.0,0.0,0.0,0.0,0.0,0.0,0.0,0.0,0.0,0.0,0.0,0.0,0.0,0.0,0.0,0.0,0.0,0.0,0.0,0.0,0.0,0.0,0.0,0.0,0.0,0.0,0.0,0.0,0.0,0.0,0.0,0.0,-2.242,-2.3346,-2.246,0.0,0.0,0.0,0.0,-2.2579,-2.1354,0.0,0.0,0.0,0.0,0.0,0.0,0.0,0.0,0.0,0.0,0.0,0.0,0.0,0.0,0.0,0.0,0.0,0.0,0.0,0.0,0.0,0.0,0.0,0.0,0.0,0.0,0.0,0.0,0.0,0.0,0.0,0.0,0.0,0.0,0.0,0.0,0.0,0.0,0.0,0.0,0.0,0.0,0.0,0.0,0.0,0.0,0.0,0.0,0.0,0.0,0.0,0.0,0.0,0.0,0.0,0.0,-3.6046,-3.8707,-4.1552,-4.4489,-4.4599,-4.3633,-4.1633,-3.9081,-3.6083,0.0,0.0,0.0,0.0,0.0,0.0,0.0,0.0,0.0,0.0,0.0,0.0,0.0,0.0,0.0,0.0,0.0,0.0,0.0,0.0,0.0,0.0,0.0,0.0,0.0,0.0,0.0,0.0,0.0,0.0,0.0,0.0,0.0,0.0,0.0,0.0,0.0,0.0,0.0,0.0,0.0,-2.4542,-2.3914,-2.3348,-2.301,0.0,0.0,0.0,-2.3903,-2.2907,0.0,0.0,0.0,0.0,0.0,0.0,0.0,0.0,0.0,0.0,0.0,0.0,0.0,0.0,0.0,0.0,0.0,0.0,0.0,0.0,0.0,0.0,0.0,0.0,0.0,0.0,0.0,0.0,0.0,0.0,0.0,0.0,0.0,0.0,0.0,0.0,0.0,0.0,0.0,0.0,0.0,0.0,0.0,0.0,0.0,0.0,0.0,0.0,0.0,0.0,0.0,0.0,0.0,0.0,0.0,-3.254,-3.6905,-3.9808,-4.2616,-4.5241,-4.4947,-4.3813,-4.1992,-3.8741,-3.5498,0.0,0.0,0.0,0.0,0.0,0.0,0.0,0.0,0.0,0.0,0.0,0.0,0.0,0.0,0.0,0.0,0.0,0.0,0.0,0.0,0.0,0.0,0.0,0.0,0.0,0.0,0.0,0.0,0.0,0.0,0.0,0.0,0.0,0.0,0.0,0.0,0.0,0.0,0.0,0.0,0.0,0.0,-2.5071,-2.4933,0.0,0.0,0.0,-2.5022,-2.5738,0.0,0.0,0.0,0.0,0.0,0.0,0.0,0.0,0.0,0.0,0.0,0.0,0.0,0.0,0.0,0.0,0.0,0.0,0.0,0.0,0.0,0.0,0.0,0.0,0.0,0.0,0.0,0.0,0.0,0.0,0.0,0.0,0.0,0.0,0.0,0.0,0.0,0.0,0.0,0.0,0.0,0.0,0.0,0.0,0.0,0.0,0.0,0.0,0.0,0.0,0.0,0.0,0.0,0.0,0.0,0.0,0.0,-3.7144,-4.0359,-4.3075,-4.5186,-4.4709,-4.3644,-4.1994,-3.8627,0.0,0.0,0.0,0.0,0.0,0.0,0.0,0.0,0.0,0.0,0.0,0.0,0.0,0.0,0.0,0.0,0.0,0.0,0.0,0.0,0.0,0.0,0.0,0.0,0.0,0.0,0.0,-1.0497,0.0,0.0,0.0,0.0,0.0,0.0,0.0,0.0,0.0,0.0,0.0,0.0,0.0,0.0,-2.5509,-2.6091,-2.6507,-2.6939,0.0,0.0,-2.6872,-2.7203,-2.6419,-2.5058,0.0,0.0,0.0,0.0,0.0,0.0,0.0,0.0,0.0,0.0,0.0,0.0,0.0,0.0,0.0,0.0,0.0,0.0,0.0,0.0,0.0,0.0,0.0,0.0,0.0,0.0,0.0,0.0,0.0,0.0,0.0,0.0,0.0,0.0,0.0,0.0,0.0,0.0,0.0,0.0,0.0,0.0,0.0,0.0,0.0,0.0,0.0,0.0,0.0,0.0,0.0,0.0,0.0,0.0,0.0,-3.634,-3.9551,-4.2011,-4.3589,-4.3625,-4.2818,-4.1222,-3.9449,-3.6981,0.0,0.0,0.0,0.0,0.0,0.0,0.0,0.0,0.0,0.0,0.0,0.0,0.0,0.0,0.0,0.0,0.0,0.0,0.0,0.0,0.0,0.0,0.0,0.0,0.0,0.0,0.0,0.0,0.0,0.0,0.0,0.0,0.0,0.0,0.0,0.0,0.0,0.0,0.0,0.0,0.0,-2.6607,-2.6641,-2.7874,-2.8821,0.0,0.0,-2.8566,-2.7873,-2.7309,-2.6063,-2.3337,0.0,0.0,0.0,0.0,0.0,0.0,0.0,0.0,0.0,0.0,0.0,0.0,0.0,0.0,0.0,0.0,0.0,0.0,0.0,0.0,0.0,0.0,0.0,0.0,0.0,0.0,0.0,0.0,0.0,0.0,0.0,0.0,0.0,0.0,0.0,0.0,0.0,0.0,0.0,0.0,0.0,0.0,0.0,0.0,0.0,0.0,0.0,0.0,0.0,0.0,0.0,0.0,0.0,-3.3031,-3.6285,-3.9462,-4.1882,-4.3406,-4.3479,-4.2727,-4.115,-3.9254,-3.6647,0.0,0.0,0.0,0.0,0.0,0.0,0.0,0.0,0.0,0.0,0.0,0.0,0.0,0.0,0.0,0.0,0.0,0.0,0.0,0.0,0.0,0.0,0.0,0.0,0.0,0.0,0.0,0.0,-1.4033,-1.44,-1.3967,0.0,0.0,0.0,0.0,0.0,0.0,0.0,0.0,0.0,0.0,-2.7554,-2.8062,-2.8991,0.0,0.0,-2.9685,-2.9583,-2.9261,-2.8693,-2.7577,-2.5547,-2.4462,0.0,0.0,0.0,0.0,0.0,0.0,0.0,0.0,0.0,0.0,0.0,0.0,0.0,0.0,0.0,0.0,0.0,0.0,0.0,0.0,0.0,0.0,0.0,0.0,0.0,0.0,0.0,0.0,0.0,0.0,0.0,0.0,0.0,0.0,0.0,0.0,0.0,0.0,0.0,0.0,0.0,0.0,0.0,0.0,0.0,0.0,0.0,0.0,0.0,0.0,0.0,0.0,-3.3031,-3.6266,-3.946,-4.1882,-4.346,-4.3479,-4.2837,-4.148,-3.9586,-3.7054,0.0,0.0,0.0,0.0,0.0,0.0,0.0,0.0,0.0,0.0,0.0,0.0,0.0,0.0,0.0,0.0,0.0,0.0,0.0,0.0,0.0,0.0,0.0,0.0,0.0,0.0,0.0,0.0,-1.5394,-1.5262,-1.4528,0.0,0.0,0.0,0.0,0.0,0.0,0.0,0.0,0.0,0.0,-2.8162,-2.9178,-2.9956,-3.0429,-3.0446,-3.0243,-3.0021,-2.9803,-2.9348,-2.84,-2.6657,0.0,0.0,0.0,0.0,0.0,0.0,0.0,0.0,0.0,0.0,0.0,0.0,0.0,0.0,0.0,0.0,0.0,0.0,0.0,0.0,0.0,0.0,0.0,0.0,0.0,0.0,0.0,0.0,0.0,0.0,-2.4263,0.0,0.0,0.0,0.0,0.0,0.0,0.0,0.0,0.0,0.0,0.0,0.0,0.0,0.0,0.0,0.0,0.0,0.0,0.0,0.0,0.0,0.0,0.0,-3.6266,-3.946,-4.1882,-4.3424,-4.3479,-4.3111,-4.2249,-4.0708,-3.8707,-3.6156,0.0,0.0,0.0,0.0,0.0,0.0,0.0,0.0,0.0,0.0,0.0,0.0,0.0,0.0,0.0,0.0,0.0,0.0,0.0,0.0,0.0,0.0,0.0,0.0,0.0,0.0,-1.6652,-1.5385,-1.4329,0.0,0.0,0.0,0.0,0.0,0.0,0.0,0.0,0.0,0.0,-2.686,-2.8382,-2.9871,-3.07,-3.114,-3.114,-3.0565,-2.9871,-2.9178,-2.9027,-2.8231,0.0,0.0,0.0,0.0,0.0,0.0,0.0,0.0,0.0,0.0,0.0,0.0,0.0,0.0,0.0,0.0,0.0,0.0,0.0,0.0,0.0,0.0,0.0,0.0,0.0,0.0,0.0,-2.9831,-2.8631,0.0,0.0,0.0,0.0,0.0,0.0,0.0,0.0,0.0,0.0,0.0,-3.4688,-3.5491,0.0,0.0,0.0,0.0,0.0,0.0,0.0,0.0,0.0,0.0,0.0,0.0,-3.355,-3.6303,-3.9478,-4.1901,-4.3424,-4.3479,-4.3112,-4.2304,-4.0726,-3.7991,-3.3959,0.0,0.0,0.0,0.0,0.0,0.0,0.0,0.0,0.0,0.0,0.0,0.0,0.0,0.0,0.0,0.0,0.0,0.0,0.0,0.0,0.0,0.0,0.0,0.0,0.0,-1.8025,0.0,0.0,0.0,0.0,0.0,0.0,0.0,0.0,0.0,0.0,0.0,-2.5135,-2.6826,-2.8382,-2.9702,-3.07,-3.1038,-3.119,0.0,0.0,0.0,0.0,0.0,0.0,0.0,0.0,0.0,0.0,0.0,0.0,0.0,0.0,-2.4605,-2.0903,-2.0033,-1.9635,-1.8852,0.0,0.0,0.0,0.0,0.0,0.0,0.0,0.0,0.0,0.0,0.0,0.0,0.0,0.0,0.0,0.0,-3.1715,0.0,0.0,0.0,0.0,0.0,0.0,0.0,0.0,-3.5917,-3.7459,-3.7991,-3.8781,-3.8744,0.0,-3.6853,-3.4559,0.0,0.0,0.0,0.0,0.0,0.0,0.0,0.0,-3.4376,-3.7129,-4.0013,-4.2158,-4.3406,-4.3479,-4.3258,-4.269,-4.0873,-3.7863,-3.3573,-3.1647,-2.9685,0.0,0.0,0.0,0.0,0.0,0.0,0.0,0.0,0.0,0.0,0.0,0.0,0.0,0.0,0.0,0.0,0.0,0.0,0.0,0.0,0.0,0.0,0.0,-1.9165,0.0,0.0,0.0,0.0,0.0,0.0,0.0,0.0,0.0,-2.3357,-2.4915,-2.6624,-2.8382,-2.9463,-3.0362,-3.1106,0.0,0.0,0.0,0.0,0.0,0.0,0.0,-3.0228,-3.0446,-2.9871,-2.9194,-2.8686,-2.8804,-2.8797,-2.8267,0.0,0.0,-2.3924,-2.3027,-2.2639,-2.1865,-2.2423,-2.2813,-2.2164,-2.2921,-2.358,0.0,0.0,0.0,0.0,0.0,0.0,0.0,0.0,-3.5701,-3.5775,0.0,-3.4798,0.0,0.0,0.0,0.0,0.0,0.0,0.0,0.0,-4.1203,-4.2671,-4.1352,-4.2047,-4.1976,-4.126,-4.1168,-3.9937,-3.7474,-3.2908,0.0,0.0,0.0,0.0,0.0,0.0,-3.5514,-3.867,-4.1075,-4.2671,-4.3442,-4.3479,-4.3461,-4.3331,-4.1148,-3.8414,-3.5261,-3.4247,-3.2027,-2.8209,-2.7824,0.0,0.0,0.0,0.0,0.0,0.0,0.0,0.0,0.0,0.0,0.0,0.0,0.0,0.0,0.0,0.0,0.0,0.0,0.0,0.0,-2.0022,0.0,0.0,0.0,0.0,0.0,0.0,0.0,0.0,0.0,0.0,-2.5812,-2.6437,-2.7622,-2.9786,0.0,0.0,0.0,0.0,-3.1532,-3.2242,-3.1752,-3.1529,-3.2226,-3.2293,-3.2039,-3.1393,0.0,0.0,-3.0446,-3.0784,-3.1021,-3.0326,-3.0222,-2.9635,-2.7912,-2.6844,-2.613,-2.5571,-2.5477,-2.5367,-2.4911,-2.5274,-2.5763,-4.2066,0.0,0.0,0.0,0.0,-3.8744,-3.9955,-4.2249,-4.1405,-4.0561,-3.9682,-3.9224,0.0,0.0,0.0,0.0,0.0,0.0,-3.8927,-4.0653,-4.2615,-4.3846,-4.4544,-4.4764,-4.4745,-4.4507,-4.3956,-4.302,-4.1715,-3.9221,-3.5404,-3.0467,0.0,0.0,0.0,0.0,-3.7492,-3.9533,-4.135,-4.269,-4.3479,-4.3479,-4.2947,-4.1827,-4.1113,-3.9515,-3.6853,-3.5422,-3.3867,-3.2118,-2.9329,0.0,0.0,0.0,0.0,0.0,0.0,0.0,0.0,0.0,0.0,0.0,0.0,0.0,0.0,0.0,0.0,0.0,0.0,0.0,-2.0934,-2.1363,-2.1308,0.0,0.0,0.0,0.0,0.0,0.0,0.0,0.0,0.0,-2.9265,-2.9571,-2.9694,0.0,0.0,-3.2128,-3.2015,-3.2425,-3.2848,-3.3068,0.0,0.0,0.0,-3.2628,-3.2412,-3.2713,-3.2949,-3.2933,-3.2527,-3.2628,-3.2713,-3.2476,-3.2459,-3.2272,-3.1675,-2.9463,-2.7626,-2.7011,-2.7232,-2.7503,-2.7409,-2.7841,-2.8268,-4.715,-4.4011,-4.1607,-4.135,-4.247,-4.2011,-4.3094,-4.5131,-4.4323,-4.3773,-4.3425,-4.2801,-4.1277,-3.9111,-3.8138,0.0,0.0,0.0,-4.157,-4.3296,-4.4397,-4.5443,-4.6379,-4.6709,-4.6691,-4.6342,-4.5883,-4.5241,-4.4415,-4.3167,-4.0249,-3.5826,0.0,0.0,-3.4389,-3.7052,-3.9255,-4.0818,-4.2103,-4.3002,-4.3479,-4.3479,-4.2727,-4.1187,-4.1113,-3.9974,-3.7584,-3.6523,-3.5312,-3.3862,-3.1494,-2.9248,0.0,0.0,0.0,0.0,0.0,0.0,0.0,0.0,0.0,0.0,0.0,-1.7399,0.0,0.0,0.0,0.0,-1.9312,-2.1307,-2.2963,-2.287,0.0,0.0,0.0,0.0,0.0,0.0,0.0,-2.7744,-2.8065,-2.8952,-3.1297,-3.1891,-3.1883,-3.1469,-3.2417,-3.306,-3.2791,0.0,-3.3508,-3.3795,-3.3846,-3.3931,-3.4235,-3.3897,-3.3761,-3.418,-3.4286,-3.4264,-3.4264,-3.4286,-3.4264,-3.423,-3.4049,-3.3829,-3.3829,-3.1862,-2.9976,-2.9205,-2.9324,-2.9421,-2.8964,-2.8948,-2.9042,-5.1555,-5.049,-4.5975,-4.4525,-4.515,-4.5168,-4.5608,-4.6214,-4.5443,-4.5865,-4.7058,-4.5572,-4.4452,-4.3534,-4.1366,0.0,0.0,-4.3112,-4.4195,-4.5057,-4.6507,-4.7204,-4.7241,-4.7938,-4.7921,-4.7204,-4.7186,-4.6801,-4.6067,-4.526,-4.4158,-4.2635,-3.9662,-3.8447,-3.9001,-3.9845,-4.1038,-4.2561,-4.3314,-4.3662,-4.3589,-4.3533,-4.2727,-4.115,-4.1113,-3.9994,-3.7731,-3.7456,-3.6354,-3.4137,-3.3807,-3.1971,-2.8191,0.0,0.0,0.0,0.0,0.0,0.0,0.0,0.0,0.0,0.0,0.0,0.0,0.0,0.0,0.0,-2.1962,0.0,-2.4993,-2.4452,0.0,0.0,0.0,-2.4067,-2.5606,-2.614,-2.7218,-2.9369,0.0,0.0,0.0,0.0,-3.3971,-3.3639,-3.3546,-3.3533,-3.3491,-3.3592,-3.3812,-3.4506,-3.4573,-3.4827,-3.5329,-3.5447,-3.5414,-3.5447,-3.5616,-3.5515,-3.5515,-3.5515,-3.5566,-3.5515,-3.5047,-3.4573,-3.4573,-3.3926,-3.3182,-3.1923,-3.1593,-3.1193,-3.0204,-2.9564,-2.9242,-5.1867,-5.1555,-4.9793,-4.9187,-4.9352,-4.9352,-4.9462,-4.9554,-4.8728,-4.8233,-4.7957,-4.6966,-4.6085,-4.5278,-4.4727,-4.4911,-4.57,-4.6067,-4.6691,-4.7462,-4.781,-4.7993,-4.8031,-4.8233,-4.8214,-4.8031,-4.8012,-4.7921,-4.7719,-4.6911,-4.6342,-4.5902,-4.458,-4.3075,-4.157,-4.2855,-4.4048,-4.5021,-4.5241,-4.5021,-4.4415,-4.3827,-4.2745,-4.115,-4.1113,-4.0251,-3.8469,-3.7221,-3.6303,-3.5711,-3.3899,-3.1898,-2.9732,-2.7365,0.0,0.0,0.0,0.0,0.0,0.0,0.0,0.0,0.0,-2.2198,-1.8789,0.0,-2.385,0.0,-2.2443,-2.3838,-2.5265,-2.5484,0.0,0.0,-2.706,-2.7884,-2.887,-2.93,-3.0056,-3.1434,-3.1879,-3.253,-3.3816,-3.4224,-3.4589,-3.4996,-3.4895,-3.4665,-3.4321,-3.4704,-3.5126,-3.5278,-3.5334,-3.5397,-3.5549,-3.5616,-3.5616,-3.5616,-3.5616,-3.5616,-3.5616,-3.5616,-3.5616,-3.56,-3.5464,-3.5329,-3.5334,-3.516,-3.4796,-3.4023,-3.3366,-3.2849,-3.2513,-3.2298,-3.2073,-5.3592,-5.3537,-5.2729,-5.2399,-5.2325,-5.1279,-5.082,-5.0765,-5.0288,-4.9829,-4.937,-4.8581,-4.7957,-4.7535,-4.715,-4.7205,-4.7608,-4.7626,-4.7865,-4.8287,-4.8324,-4.8324,-4.8324,-4.8324,-4.8324,-4.8324,-4.8324,-4.8324,-4.8288,-4.7865,-4.7626,-4.7608,-4.7186,-4.6305,-4.5039,-4.5149,-4.5461,-4.5883,-4.5902,-4.5516,-4.4709,-4.4268,-4.3112,-4.1205,-4.1113,-4.0175,-3.8248,-3.7294,-3.6321,-3.5202,-3.3862,-3.2394,-3.0797,-2.8796,-2.6914,0.0,0.0,0.0,0.0,0.0,0.0,0.0,0.0,0.0,0.0,0.0,-2.5512,0.0,-2.5304,0.0,-2.7772,-2.8267,-2.8673,-2.9078,-2.9796,-3.0541,-3.1341,-3.1387,-3.1837,-3.3109,-3.3275,-3.3711,-3.4827,-3.5013,-3.5131,-3.5549,-3.5474,-3.5288,-3.5079,-3.5368,-3.5616,-3.5616,-3.5616,-3.5616,-3.5616,-3.5616,-3.5616,-3.5616,-3.5616,-3.5616,-3.5616,-3.5616,-3.5616,-3.5616,-3.5616,-3.5616,-3.5616,-3.5616,-3.547,-3.513,-3.4701,-3.4189,-3.3583,-3.3205,-3.2862,-5.5614,-5.5519,-5.484,-5.4564,-5.4381,-5.2179,-5.1206,-5.1096,-5.0986,-5.0912,-5.0765,-5.005,-4.9776,-4.9702,-4.8967,-4.8618,-4.8599,-4.8526,-4.8471,-4.8453,-4.8361,-4.8324,-4.8324,-4.8324,-4.8324,-4.8324,-4.8324,-4.8324,-4.8324,-4.8324,-4.8324,-4.8324,-4.8324,-4.8324,-4.8251,-4.6911,-4.6214,-4.6214,-4.6104,-4.5663,-4.4892,-4.4746,-4.3535,-4.1242,-4.0985,-3.9863,-3.7621,-3.7401,-3.6299,-3.4119,-3.3954,-3.322,-3.1635,-3.0136,-2.8895,0.0,-2.6549,0.0,0.0,0.0,0.0,0.0,0.0,0.0,0.0,-2.6153,-2.7206,-2.8404,-2.9148,-2.9953,-3.093,-3.138,-3.1601,-3.1603,-3.1917,-3.2413,-3.3156,-3.2849,-3.3106,-3.4489,-3.4641,-3.4912,-3.5464,-3.5616,-3.56,-3.56,-3.5588,-3.5577,-3.5583,-3.5583,-3.5616,-3.5616,-3.5616,-3.5616,-3.5616,-3.5616,-3.5616,-3.5616,-3.5616,-3.5616,-3.5616,-3.5616,-3.5616,-3.5616,-3.5616,-3.5616,-3.5616,-3.5616,-3.5616,-3.5577,-3.5493,-3.5144,-3.4149,-3.3487,-3.29,-5.5614,-5.5574,-5.5449,-5.5354,-5.5262,-5.4197,-5.3353,-5.269,-5.205,-5.1408,-5.0802,-5.0637,-5.0582,-5.0563,-5.0398,-5.0325,-5.0288,-4.9646,-4.9353,-4.9335,-4.8618,-4.8324,-4.8324,-4.8324,-4.8324,-4.8324,-4.8324,-4.8324,-4.8324,-4.8324,-4.8324,-4.8324,-4.8324,-4.8324,-4.8306,0.0,0.0,0.0,-4.7204,-4.647,-4.5681,-4.5039,-4.3552,-4.1205,-4.0469,0.0,-3.7584,-3.6886,-3.5991,-3.4857,-3.4766,0.0,0.0,0.0,0.0,0.0,0.0,0.0,0.0,0.0,0.0,0.0,-3.0735,-2.9995,-2.7987,-2.9382,-3.0983,-3.2107,-3.1733,-3.1463,-3.1689,-3.1974,-3.2151,-3.2186,-3.2736,-3.342,-3.4117,-3.4151,-3.4438,-3.5261,-3.538,-3.5453,-3.5566,-3.5616,-3.5616,-3.5616,-3.5616,-3.5616,-3.5616,-3.5616,-3.5616,-3.5616,-3.5616,-3.5616,-3.5616,-3.5616,-3.5616,-3.5616,-3.5616,-3.5616,-3.5616,-3.5616,-3.5616,-3.5616,-3.5616,-3.5616,-3.5616,-3.5616,-3.5616,-3.5616,-3.5616,-3.5526,-3.5262,-3.5105,-3.4874,-5.6767,0.0,-5.6345,-5.618,0.0,-5.5335,-5.4766,-5.4308,-5.3115,-5.2362,-5.1958,-5.1573,-5.1408,-5.1371,-5.0986,-5.082,-5.0784,-5.0362,-5.0216,-5.0141,-4.9334,-4.8948,-4.8912,-4.8508,-4.8324,-4.8324,-4.8324,-4.8324,-4.8324,-4.8324,-4.8324,-4.8324,-4.8324,-4.8324,-4.8324,-4.8324,-4.8324,-4.8324,-4.7883,-4.7296,-4.6489,-4.57,-4.4342,-4.2359,0.0,0.0,0.0,0.0,0.0,0.0,0.0,0.0,0.0,0.0,0.0,-3.2596,-3.2228,-3.1806,-3.1421,-3.1739,-3.2307,-3.3128,-3.394,-3.3483,-3.1245,-3.2403,-3.3477,-3.4054,-3.4089,-3.4067,-3.4103,-3.4548,-3.4871,-3.4889,-3.5326,-3.571,-3.5781,-3.558,-3.5488,-3.5543,-3.5616,-3.5616,-3.5616,-3.5616,-3.5616,-3.5616,-3.5616,-3.5616,-3.5616,-3.5616,-3.5616,-3.5616,-3.5616,-3.5616,-3.5616,-3.5616,-3.5616,-3.5616,-3.5616,-3.5616,-3.5616,-3.5616,-3.5616,-3.5616,-3.5616,-3.5616,-3.5616,-3.5616,-3.5616,-3.5616,-3.5616,-3.5616,-3.5616,-3.5616,-3.5498,-5.7978,-5.7923,-5.7299,-5.7024,-5.695,-5.6143,-5.5739,-5.5482,0.0,0.0,0.0,-5.2491,-5.2215,-5.216,-5.1518,-5.1224,-5.1224,-5.1077,-5.1022,-5.0967,-5.0031,-4.9592,-4.9555,-4.871,-4.8324,-4.8324,-4.8324,-4.8324,-4.8324,-4.8324,-4.8324,-4.8324,-4.8324,-4.8324,-4.8324,-4.8324,-4.8324,-4.8324,-4.8324,-4.7901,-4.7113,-4.6324,-4.5149,-4.3551,-4.1956,-4.0398,-3.8964,-3.83,-3.685,-3.4614,-3.4596,-3.4541,-3.4266,-3.4247,-3.4853,-3.6174,-3.6413,-3.6211,-3.55,-3.5701,-3.5922,-3.6068,-3.6743,-3.6395,-3.4596,-3.5188,-3.572,-3.5848,-3.656,-3.6991,-3.7006,-3.7385,-3.7751,-3.7867,-3.7964,-3.7898,-3.7636,-3.7246,-3.6866,-3.6383,-3.6446,-3.6217,-3.6043,-3.6043,-3.583,-3.5656,-3.5616,-3.5616,-3.5616,-3.5616,-3.5616,-3.5616,-3.5616,-3.5616,-3.5616,-3.5616,-3.5616,-3.5616,-3.5616,-3.5616,-3.5616,-3.5616,-3.5616,-3.5616,-3.5616,-3.5616,-3.5616,-3.5616,-3.5616,-3.5616,-3.5616,-3.5616,-3.5616,-3.5616,-3.56,-5.7978,-5.7978,-5.7868,-5.7831,-5.7758,-5.6969,-5.6235,-5.5519,-5.462,-5.3849,-5.3167,-5.3075,-5.302,-5.3041,-5.2913,-5.2855,-5.28,-5.2142,-5.183,0.0,-5.0308,-4.9592,-4.9555,-4.871,-4.8324,-4.8324,-4.8324,-4.8324,-4.8324,-4.8324,-4.8324,-4.8324,-4.8324,-4.8324,-4.8324,-4.8324,-4.8324,-4.8324,-4.8324,-4.7901,-4.7113,-4.6324,-4.5131,-4.3551,-4.1957,-4.0673,-3.9753,-3.9606,-3.8778,-3.7107,-3.7643,-3.7404,-3.6064,-3.5954,-3.6046,-3.6303,-3.696,-3.7272,-3.7199,-3.8414,-3.9515,-4.0159,-4.0343,-3.946,-3.7254,-3.7716,-3.8469,-3.9114,-3.9427,-3.9732,-3.9697,-3.9014,-3.8777,-3.9179,-3.8889,-3.8751,-3.9124,-3.9122,-3.8947,-3.8807,-3.9035,-3.8432,-3.7404,-3.7236,-3.6835,-3.5943,-3.5949,-3.5707,-3.5774,-3.5616,-3.5616,-3.5616,-3.5616,-3.5616,-3.5684,-3.5616,-3.5616,-3.5616,-3.5616,-3.5616,-3.5616,-3.5616,-3.5616,-3.5616,-3.5616,-3.5616,-3.5616,-3.5616,-3.5616,-3.5616,-3.5616,-3.5616,-3.5616,-3.5616,-3.5616,-5.7978,-5.7978,-5.7978,-5.7978,-5.796,-5.7611,-5.6987,-5.6253,-5.5868,-5.5005,-5.3885,-5.3849,-5.3628,-5.3203,-5.3185,-5.3185,-5.3167,-5.2821,-5.2656,-5.2564,-5.1446,-5.0655,-5.0215,-4.9389,-4.8746,-4.8343,-4.8324,-4.8324,-4.8324,-4.8324,-4.8324,-4.8324,-4.8324,-4.8324,-4.8324,-4.8324,-4.8324,-4.8324,-4.8324,-4.8141,-4.7774,-4.6947,-4.6195,-4.5443,-4.3497,-4.2231,-4.1846,-4.102,-4.001,-3.8851,-3.9129,-3.9019,-3.8303,-3.8248,-3.845,-3.8872,-3.9258,-3.946,-3.9441,-4.0139,-4.0708,-4.1058,-4.1113,-4.0655,-3.9551,-3.979,-4.0175,-4.0508,-4.0675,-4.0719,-4.0719,-4.0293,-4.011,-4.0384,-4.0147,-3.9998,-3.9941,-3.969,-3.9431,-3.9126,-3.886,-3.8449,-3.7848,-3.7752,-3.7762,-3.7283,-3.7276,-3.7182,-3.6869,-3.68,-3.6688,-3.6299,-3.591,-3.5842,-3.6129,-3.5876,-3.565,-3.5616,-3.5616,-3.5616,-3.5616,-3.5616,-3.5616,-3.5616,-3.5616,-3.5616,-3.5616,-3.5616,-3.5616,-3.5616,-3.5616,-3.5616,-3.5616,-3.5616,-3.5616,-5.8162,-5.7978,-5.7978,-5.7978,-5.7978,-5.7978,-5.7629,-5.7097,-5.7079,-5.6271,-5.5042,-5.4748,-5.4234,-5.3497,-5.3482,-5.335,-5.3203,-5.3185,-5.3185,-5.3112,-5.238,-5.1646,-5.1004,-5.0088,-4.9262,-4.8618,-4.8398,-4.8324,-4.8324,-4.8324,-4.8324,-4.8324,-4.8324,-4.8324,-4.8324,-4.8324,-4.8324,-4.8324,-4.8324,-4.8324,-4.8288,-4.7498,-4.7094,-4.6947,-4.5112,-4.3938,-4.3718,-4.258,-4.146,-4.0524,-4.0432,-4.0359,-4.0194,-4.0175,-4.0451,-4.1022,-4.126,-4.1479,-4.1644,-4.1644,-4.1627,-4.1644,-4.1644,-4.1627,-4.1627,-4.1644,-4.1552,-4.1407,-4.1572,-4.1682,-4.1667,-4.1529,-4.151,-4.1611,-4.1508,-4.1375,-4.1035,-4.065,-4.0265,-3.9802,-3.932,-3.8997,-3.8614,-3.8417,-3.8344,-3.8379,-3.853,-3.834,-3.7984,-3.7898,-3.7669,-3.733,-3.6637,-3.6411,-3.6907,-3.6603,-3.6157,-3.5938,-3.591,-3.5836,-3.5718,-3.5616,-3.5616,-3.5616,-3.5616,-3.5616,-3.5616,-3.5616,-3.5616,-3.5616,-3.5616,-3.5616,-3.5616,-3.5616,-3.5616,-5.8676,-5.8033,-5.7997,-5.7978,-5.7978,-5.7978,-5.7941,-5.785,-5.7886,-5.7428,-5.651,-5.5812,-5.5042,-5.4344,-5.4252,-5.3885,-5.3222,-5.3185,-5.3185,-5.3133,-5.238,-5.194,-5.172,-5.0345,-4.9574,-4.9372,-4.8691,-4.8361,-4.8324,-4.8324,-4.8324,-4.8324,-4.8324,-4.8324,-4.8324,-4.8324,-4.8324,-4.8324,-4.8324,-4.8324,-4.8269,-4.7498,-4.7094,-4.7094,-4.6195,-4.5333,-4.4654,-4.4452,-4.3645,-4.2249,-4.2084,-4.1754,-4.1095,-4.102,-4.1022,-4.115,-4.1809,-4.2488,-4.3149,-4.3294,-4.3204,-4.3294,-4.3185,-4.3185,-4.3185,-4.3222,-4.2947,-4.247,-4.2837,-4.313,-4.3223,-4.2778,-4.2595,-4.2829,-4.2614,-4.2721,-4.2867,-4.3154,-4.3101,-4.3084,-4.2029,-4.1797,-4.0426,-3.9847,-3.9187,-3.8374,-3.8434,-3.8363,-3.819,-3.8159,-3.8311,-3.8497,-3.8159,-3.7753,-3.7787,-3.777,-3.7246,-3.6795,-3.6677,-3.6332,-3.5853,-3.5616,-3.5616,-3.5616,-3.5616,-3.5616,-3.5616,-3.5616,-3.5616,-3.5616,-3.5616,-3.5616,-3.5616,-3.5616,-3.5616,-5.9001,-5.8657,-5.8198,-5.7978,-5.7978,-5.7978,-5.7978,-5.7978,-5.7978,-5.7795,-5.7501,-5.7152,-5.6051,-5.4436,-5.4418,-5.3959,-5.3203,-5.3185,-5.3185,-5.3188,-5.2839,-5.2454,-5.194,-5.1371,-5.0547,-4.9647,-4.9243,-4.8802,-4.8398,-4.8324,-4.8324,-4.8324,-4.8324,-4.8324,-4.8324,-4.8324,-4.8324,-4.8324,-4.8324,-4.8324,-4.8288,-4.7975,-4.7791,-4.7718,-4.7039,-4.647,-4.6104,-4.5681,-4.4892,-4.3828,-4.3736,-4.3369,-4.2561,-4.2506,-4.2525,-4.2525,-4.2818,-4.313,-4.3461,-4.3479,-4.3479,-4.3479,-4.3479,-4.3479,-4.3479,-4.3479,-4.3349,-4.313,-4.3314,-4.3392,-4.3069,-4.2826,-4.2656,-4.2523,-4.2284,-4.2266,-4.2464,-4.2188,-4.2068,-4.2329,-4.1707,-4.1153,-4.0861,-4.0595,-4.0094,-3.9411,-3.9416,-3.9443,-3.9238,-3.9191,-3.9309,-3.9512,-3.9385,-3.9022,-3.865,-3.8142,-3.7652,-3.7066,-3.6812,-3.6502,-3.587,-3.5616,-3.5616,-3.5616,-3.5616,-3.5616,-3.5616,-3.5616,-3.5616,-3.5616,-3.5616,-3.5616,-3.5616,-3.5616,-3.5616,-5.9698,-5.9423,-5.8657,-5.8198,-5.7997,-5.7978,-5.7978,-5.7978,-5.7978,-5.7978,-5.7978,-5.7978,-5.6932,-5.5244,-5.506,-5.4509,-5.361,-5.3515,-5.3408,-5.3222,-5.3185,-5.2894,-5.2344,-5.2089,-5.1261,-5.0088,-4.9702,-4.9151,-4.8398,-4.8324,-4.8324,-4.8324,-4.8324,-4.8324,-4.8324,-4.8324,-4.8324,-4.8324,-4.8324,-4.8324,-4.8324,-4.8324,-4.8324,-4.8269,-4.7736,-4.7333,-4.7094,-4.6544,-4.5865,-4.5058,-4.5039,-4.4764,-4.4195,-4.3955,-4.3718,-4.3552,-4.3735,-4.3718,-4.3516,-4.3901,-4.4084,-4.3883,-4.3993,-4.4157,-4.4157,-4.4158,-4.414,-4.4176,-4.4176,-4.3907,-4.305,-4.2902,-4.2714,-4.2306,-4.2165,-4.2041,-4.208,-4.1512,-4.1362,-4.1621,-4.1105,-4.0368,-4.0607,-4.0638,-4.0387,-4.0127,-4.0366,-4.0577,-4.0204,-4.0045,-4.0062,-4.0113,-4.0096,-3.9876,-3.9385,-3.8971,-3.8176,-3.7652,-3.7506,-3.7178,-3.6214,-3.5977,-3.5701,-3.5791,-3.5667,-3.5616,-3.5616,-3.5616,-3.5616,-3.5616,-3.5616,-3.5616,-3.5616,-3.5616,-3.5616,-6.1043,-6.0272,-5.9483,-5.8712,-5.8015,-5.7997,-5.7978,-5.7978,-5.7978,-5.7978,-5.7978,-5.7978,-5.7501,-5.6675,-5.662,-5.5812,-5.4454,-5.4289,-5.3867,-5.324,-5.3185,-5.3188,-5.3093,-5.2362,-5.1573,-5.0729,-5.0013,-4.9205,-4.8361,-4.8324,-4.8324,-4.8324,-4.8324,-4.8324,-4.8324,-4.8324,-4.8324,-4.8324,-4.8324,-4.8324,-4.8324,-4.8324,-4.8324,-4.8306,-4.8269,-4.7846,-4.7241,-4.7076,-4.6691,-4.5883,-4.5847,-4.581,-4.5681,-4.5057,-4.4342,-4.3772,-4.425,-4.4323,-4.3883,-4.4892,-4.5388,-4.4874,-4.5241,-4.5718,-4.5553,-4.5553,-4.5553,-4.5718,-4.5535,-4.4967,-4.3778,-4.356,-4.3469,-4.336,-4.29,-4.265,-4.2632,-4.1973,-4.1789,-4.1707,-4.1183,-4.0631,-4.0254,-4.0121,-4.0179,-4.0121,-4.0146,-4.0146,-4.0146,-4.0113,-4.0113,-4.0113,-4.0113,-4.0079,-4.0028,-3.9723,-3.9453,-3.8877,-3.8294,-3.8294,-3.7438,-3.666,-3.6282,-3.5943,-3.5876,-3.5791,-3.5667,-3.5616,-3.5616,-3.5616,-3.5616,-3.5616,-3.5616,-3.5616,-3.5616,-6.1135,-6.0346,-5.9515,-5.9019,-5.8731,-5.8235,-5.7978,-5.7978,-5.7978,-5.7978,-5.7978,-5.7978,-5.785,-5.7574,-5.7556,-5.6418,-5.4528,-5.4418,-5.3977,-5.3259,-5.3185,-5.3185,-5.317,-5.2894,-5.2344,-5.1555,-5.0747,-4.9646,-4.8434,-4.8324,-4.8324,-4.8324,-4.8324,-4.8324,-4.8324,-4.8324,-4.8324,-4.8324,-4.8324,-4.8324,-4.8324,-4.8324,-4.8324,-4.8324,-4.8324,-4.8158,-4.7884,-4.7884,-4.748,-4.6709,-4.6672,-4.6415,-4.5938,-4.5626,-4.5351,-4.5112,-4.5314,-4.5351,-4.5149,-4.5553,-4.5792,-4.5553,-4.5718,-4.5938,-4.5902,-4.5902,-4.5902,-4.5865,-4.5529,-4.4993,-4.4701,-4.4503,-4.4369,-4.3942,-4.3322,-4.2894,-4.2682,-4.1938,-4.1358,-4.1599,-4.1268,-4.0703,-4.0254,-4.0113,-4.0113,-4.0113,-4.0113,-4.0113,-4.0113,-4.0113,-4.0113,-4.0113,-4.0113,-4.0113,-4.0096,-4.0096,-3.9876,-3.9317,-3.8819,-3.8481,-3.7804,-3.7533,-3.7229,-3.6603,-3.6366,-3.5994,-3.5893,-3.5616,-3.5616,-3.5616,-3.5616,-3.5616,-3.5616,-3.5616,-3.5616,-6.152,-6.0713,-5.9924,-5.9423,-5.9093,-5.8345,-5.7978,-5.7978,-5.7978,-5.7978,-5.7978,-5.7978,-5.7978,-5.7978,-5.7978,-5.7024,-5.5262,-5.4913,-5.4344,-5.361,-5.3314,-5.3185,-5.3185,-5.3185,-5.2784,-5.1922,-5.0875,-4.9756,-4.8802,-4.8453,-4.8324,-4.8324,-4.8324,-4.8324,-4.8324,-4.8324,-4.8324,-4.8324,-4.8324,-4.8324,-4.8324,-4.8324,-4.8324,-4.8324,-4.8324,-4.8324,-4.8324,-4.8324,-4.8067,-4.7571,-4.7498,-4.7113,-4.6416,-4.6287,-4.6159,-4.5957,-4.6159,-4.6177,-4.603,-4.6361,-4.6581,-4.6342,-4.6562,-4.6673,-4.6673,-4.6673,-4.6673,-4.658,-4.6334,-4.6059,-4.6021,-4.594,-4.5375,-4.4352,-4.3477,-4.3065,-4.3007,-4.2048,-4.1542,-4.1447,-4.1,-4.0507,-4.0179,-4.0121,-4.0113,-4.0113,-4.0113,-4.0113,-4.0113,-4.0113,-4.0113,-4.0113,-4.0113,-4.0113,-4.0113,-4.0113,-4.0113,-3.9639,-3.9402,-3.8937,-3.8548,-3.8345,-3.799,-3.7364,-3.6823,-3.6383,-3.6011,-3.5701,-3.5616,-3.5616,-3.5616,-3.5616,-3.5616,-3.5616,-3.5532,-6.2328,-6.1539,-6.0731,-5.9955,-5.9281,-5.8474,-5.8033,-5.7997,-5.7978,-5.7978,-5.7978,-5.7978,-5.7978,-5.7978,-5.7978,-5.7519,-5.6712,-5.5941,-5.5115,-5.4271,-5.3589,-5.328,-5.3185,-5.3185,-5.2784,-5.194,-5.0398,-4.9627,-4.9463,-4.8783,-4.8416,-4.8343,-4.8324,-4.8324,-4.8324,-4.8324,-4.8324,-4.8324,-4.8324,-4.8324,-4.8324,-4.8324,-4.8324,-4.8324,-4.8324,-4.8324,-4.8324,-4.8324,-4.8288,-4.8251,-4.8233,-4.7883,-4.7223,-4.7113,-4.6782,-4.6342,-4.6709,-4.6691,-4.6287,-4.7352,-4.77,-4.7239,-4.7717,-4.7915,-4.7726,-4.7838,-4.7857,-4.7763,-4.7817,-4.7948,-4.7776,-4.7316,-4.6327,-4.4466,-4.3845,-4.3443,-4.3249,-4.2715,-4.2052,-4.141,-4.0756,-4.0206,-4.013,-4.013,-4.0113,-4.0113,-4.0113,-4.0113,-4.0113,-4.0113,-4.0113,-4.0113,-4.0113,-4.0113,-4.0113,-4.0113,-4.0113,-4.0045,-3.9943,-3.969,-3.9283,-3.8988,-3.8667,-3.8091,-3.7364,-3.6891,-3.6248,-3.5977,-3.5752,-3.5718,-3.5667,-3.5616,-3.5616,-3.5577,-3.5339,-6.2658,-6.2346,-6.1557,-6.075,-5.9979,-5.9171,-5.8529,-5.8015,-5.7978,-5.7978,-5.7978,-5.7978,-5.7978,-5.7978,-5.7978,-5.785,-5.7556,-5.6767,-5.5721,-5.4564,-5.4142,-5.3702,-5.3259,-5.3185,-5.2784,-5.2032,-5.1481,-5.0639,-4.9757,-4.9335,-4.893,-4.8416,-4.8324,-4.8324,-4.8324,-4.8324,-4.8324,-4.8324,-4.8324,-4.8324,-4.8324,-4.8324,-4.8324,-4.8324,-4.8324,-4.8324,-4.8324,-4.8324,-4.8324,-4.8324,-4.8324,-4.8196,-4.7994,-4.7939,-4.7791,-4.7627,-4.7755,-4.7865,-4.7682,-4.7919,-4.8003,-4.7504,-4.7568,-4.7409,-4.7048,-4.7044,-4.7026,-4.7026,-4.6981,-4.6981,-4.691,-4.6448,-4.6112,-4.6297,-4.5313,-4.4482,-4.431,-4.3554,-4.2723,-4.201,-4.1305,-4.0899,-4.0747,-4.0536,-4.0163,-4.0113,-4.0113,-4.0113,-4.0113,-4.0113,-4.0113,-4.0113,-4.0113,-4.0113,-4.0113,-4.0113,-4.0113,-4.0113,-4.0096,-4.0079,-3.9757,-3.9537,-3.9208,-3.8717,-3.799,-3.7364,-3.6721,-3.6366,-3.6248,-3.5876,-3.5735,-3.5684,-3.5633,-3.5509,-3.5339,-6.2823,-6.2707,-6.1924,-6.1318,-6.0713,-5.968,-5.8909,-5.8437,-5.8107,-5.7978,-5.7978,-5.7978,-5.7978,-5.7978,-5.7978,-5.7978,-5.7923,-5.7446,-5.6547,-5.5299,-5.4564,-5.3977,-5.3277,-5.3185,-5.2986,-5.2472,-5.2123,-5.1501,-5.051,-4.9886,-4.9317,-4.8857,-4.8489,-4.8324,-4.8324,-4.8324,-4.8324,-4.8324,-4.8324,-4.8324,-4.8324,-4.8324,-4.8324,-4.8324,-4.8324,-4.8324,-4.8324,-4.8324,-4.8324,-4.8324,-4.8324,-4.8324,-4.8324,-4.8306,-4.8324,-4.8324,-4.8306,-4.8306,-4.8305,-4.8018,-4.7836,-4.7467,-4.7172,-4.6887,-4.6501,-4.6389,-4.6389,-4.6389,-4.6413,-4.6389,-4.6318,-4.5865,-4.5933,-4.6548,-4.56,-4.5018,-4.4813,-4.3957,-4.3211,-4.2637,-4.2066,-4.1593,-4.1153,-4.0882,-4.0383,-4.0214,-4.0113,-4.0113,-4.0113,-4.0113,-4.0113,-4.0113,-4.0113,-4.0113,-4.0113,-4.0113,-4.0113,-4.0113,-4.0096,-4.0096,-3.996,-3.991,-3.9706,-3.9106,-3.8447,-3.8024,-3.7432,-3.7263,-3.7077,-3.6552,-3.6028,-3.5926,-3.591,-3.565,-3.5424,-6.2823,-6.2713,-6.1998,-6.1649,-6.1355,-5.996,-5.9258,-5.9038,-5.8345,-5.7978,-5.7978,-5.7978,-5.7978,-5.7978,-5.7978,-5.7978,-5.7978,-5.7923,-5.7409,-5.6418,-5.5354,-5.4271,-5.3314,-5.3185,-5.313,-5.2983,-5.2454,-5.2032,-5.1646,-5.0565,-4.9702,-4.961,-4.8893,-4.8416,-4.8489,-4.8379,-4.8324,-4.8324,-4.8324,-4.8324,-4.8324,-4.8324,-4.8324,-4.8324,-4.8324,-4.8324,-4.8324,-4.8324,-4.8324,-4.8324,-4.8324,-4.8324,-4.8324,-4.8324,-4.8324,-4.8324,-4.8324,-4.8324,-4.819,-4.7797,-4.7406,-4.7219,-4.6687,-4.6312,-4.6143,-4.6046,-4.6046,-4.6112,-4.6192,-4.627,-4.6192,-4.5858,-4.5571,-4.5381,-4.5013,-4.4695,-4.4569,-4.3959,-4.3593,-4.3379,-4.2811,-4.2083,-4.1457,-4.1255,-4.0781,-4.0299,-4.0113,-4.0113,-4.0113,-4.0113,-4.0113,-4.0113,-4.0113,-4.0113,-4.0113,-4.0113,-4.0113,-4.0113,-4.0113,-4.0113,-4.0113,-4.0096,-4.0062,-3.9503,-3.9039,-3.8633,-3.8294,-3.8058,-3.7669,-3.7094,-3.6688,-3.64,-3.6282,-3.6225,-3.5893,-6.2823,-6.2787,-6.2585,-6.2144,-6.1502,-6.0511,-5.974,-5.9129,-5.8345,-5.7978,-5.7978,-5.7978,-5.7978,-5.7978,-5.7978,-5.7978,-5.7978,-5.7978,-5.7556,-5.684,-5.6436,-5.4965,-5.3534,-5.3185,-5.3185,-5.313,-5.2931,-5.2601,-5.2013,-5.1481,-5.0986,-5.0453,-4.9664,-4.9262,-4.9225,-4.8636,-4.8343,-4.8324,-4.8324,-4.8324,-4.8324,-4.8324,-4.8324,-4.8324,-4.8324,-4.8324,-4.8324,-4.8324,-4.8324,-4.8324,-4.8324,-4.8324,-4.8324,-4.8324,-4.8324,-4.8306,-4.8287,-4.8305,-4.8172,-4.7677,-4.7194,-4.6664,-4.6088,-4.5545,-4.5089,-4.5089,-4.5089,-4.5169,-4.5451,-4.5732,-4.5707,-4.5588,-4.5294,-4.4906,-4.4692,-4.4598,-4.4564,-4.4445,-4.4293,-4.4209,-4.3572,-4.2844,-4.2151,-4.1593,-4.1052,-4.0451,-4.0197,-4.018,-4.0248,-4.0113,-4.0113,-4.0113,-4.0113,-4.0113,-4.0113,-4.0113,-4.0113,-4.0113,-4.0113,-4.0113,-4.0113,-4.0096,-4.0062,-3.9859,-3.9673,-3.9334,-3.8988,-3.8717,-3.8193,-3.7736,-3.755,-3.7364,-3.7398,-3.7334,-3.6848,-6.2823,-6.2823,-6.2823,-6.2548,-6.1979,-6.0896,-6.0144,-5.9538,-5.8492,-5.7978,-5.7978,-5.7978,-5.7978,-5.7978,-5.7978,-5.7978,-5.7978,-5.7978,-5.774,-5.7354,-5.6932,-5.5611,-5.4069,-5.3424,-5.3185,-5.3185,-5.3185,-5.2949,-5.2509,-5.2179,-5.172,-5.1242,-5.049,-4.9978,-4.9537,-4.917,-4.8636,-4.8398,-4.8324,-4.8324,-4.8324,-4.8324,-4.8324,-4.8324,-4.8324,-4.8324,-4.8324,-4.8324,-4.8324,-4.8324,-4.8324,-4.8324,-4.8324,-4.8324,-4.8324,-4.8287,-4.8093,-4.7917,-4.7756,-4.7128,-4.6472,-4.6014,-4.5459,-4.5025,-4.472,-4.4598,-4.4598,-4.4692,-4.4944,-4.5089,-4.5115,-4.5115,-4.4961,-4.4692,-4.4598,-4.4598,-4.4598,-4.4581,-4.4598,-4.4496,-4.4181,-4.3606,-4.2861,-4.2354,-4.1796,-4.1221,-4.0798,-4.0696,-4.0595,-4.035,-4.0113,-4.0113,-4.0113,-4.0113,-4.0113,-4.0113,-4.0113,-4.0113,-4.0113,-4.0113,-4.0113,-4.0113,-4.0096,-4.0079,-4.0096,-3.9994,-3.9622,-3.9292,-3.9022,-3.8684,-3.8514,-3.8244,-3.8142,-3.7909,-3.7461,-6.2823,-6.2823,-6.2823,-6.2823,-6.253,-6.1117,-6.0364,-6.007,-5.8676,-5.7978,-5.7978,-5.7978,-5.7978,-5.7978,-5.7978,-5.7978,-5.7978,-5.7978,-5.7978,-5.7666,-5.7152,-5.5996,-5.4858,-5.3849,-5.3387,-5.3222,-5.3185,-5.3167,-5.2949,-5.2435,-5.2179,-5.1922,-5.1316,-5.0618,-5.0124,-4.9739,-4.915,-4.8618,-4.8379,-4.8324,-4.8324,-4.8324,-4.8324,-4.8324,-4.8324,-4.8324,-4.8267,-4.821,-4.8152,-4.8191,-4.8267,-4.8305,-4.8305,-4.8287,-4.8172,-4.8035,-4.7614,-4.7299,-4.715,-4.6264,-4.5597,-4.5485,-4.4998,-4.4598,-4.4598,-4.4598,-4.4598,-4.4598,-4.4598,-4.4665,-4.4665,-4.4654,-4.4654,-4.4598,-4.4598,-4.4598,-4.4598,-4.4598,-4.4598,-4.4598,-4.4598,-4.4198,-4.369,-4.3352,-4.3081,-4.1847,-4.1457,-4.1221,-4.1001,-4.0679,-4.0383,-4.0113,-4.0113,-4.0113,-4.0113,-4.0113,-4.0113,-4.0113,-4.0113,-4.0113,-4.0113,-4.0113,-4.0113,-4.0113,-4.0113,-4.0113,-4.0011,-3.9791,-3.9622,-3.9486,-3.9157,-3.8768,-3.8415,-3.8095,-3.7685,-6.2823,-6.2823,-6.2823,-6.2823,-6.2548,-6.1117,-6.0401,-6.0236,-5.8676,-5.7978,-5.7978,-5.7978,-5.7978,-5.7978,-5.7978,-5.7978,-5.7978,-5.7978,-5.7978,-5.7886,-5.7189,-5.673,-5.5941,-5.4821,-5.3849,-5.3405,-5.3203,-5.3185,-5.3075,-5.3004,-5.2949,-5.2784,-5.2142,-5.1628,-5.1336,-5.0271,-4.9555,-4.9225,-4.8691,-4.8361,-4.8324,-4.8324,-4.8324,-4.8324,-4.8324,-4.8324,-4.8191,-4.7856,-4.7614,-4.7697,-4.7977,-4.8152,-4.8075,-4.7797,-4.7614,-4.7449,-4.6999,-4.6618,-4.646,-4.594,-4.5485,-4.5381,-4.4961,-4.4598,-4.4598,-4.4598,-4.4598,-4.4598,-4.4598,-4.4598,-4.4598,-4.4598,-4.4598,-4.4598,-4.4598,-4.4598,-4.4598,-4.4598,-4.4598,-4.4598,-4.4581,-4.4282,-4.3544,-4.3494,-4.3149,-4.2455,-4.2117,-4.1796,-4.1491,-4.1187,-4.0764,-4.0468,-4.0333,-4.0333,-4.0113,-4.0113,-4.0113,-4.0113,-4.0113,-4.0113,-4.0113,-4.0113,-4.0113,-4.0113,-4.0113,-4.0113,-4.0113,-4.0096,-3.9876,-3.9842,-3.9808,-3.952,-3.9109,-3.8591,-3.791,-6.2823,-6.2823,-6.2823,-6.2585,-6.2089,-6.0933,-6.0199,-5.9667,-5.8565,-5.7978,-5.7978,-5.7978,-5.7978,-5.7978,-5.7978,-5.7978,-5.7978,-5.7978,-5.7978,-5.7905,-5.7519,-5.7171,-5.6602,-5.5611,-5.4546,-5.383,-5.3371,-5.3222,-5.3185,-5.3185,-5.3148,-5.3185,-5.2747,-5.2307,-5.2032,-5.1116,-5.0345,-4.9647,-4.9188,-4.8746,-4.8379,-4.8324,-4.8324,-4.8324,-4.8324,-4.8324,-4.8267,-4.7736,-4.7449,-4.7406,-4.7406,-4.7409,-4.7388,-4.7128,-4.6955,-4.6842,-4.6353,-4.5996,-4.584,-4.5459,-4.5062,-4.5072,-4.4759,-4.4665,-4.4598,-4.4598,-4.4598,-4.4598,-4.4598,-4.4598,-4.4598,-4.4598,-4.4598,-4.4598,-4.4598,-4.4598,-4.4598,-4.4598,-4.4598,-4.4598,-4.4598,-4.4429,-4.4096,-4.3876,-4.3859,-4.3515,-4.2963,-4.2658,-4.2489,-4.21,-4.139,-4.1001,-4.0764,-4.057,-4.0214,-4.0113,-4.0113,-4.0113,-4.0113,-4.0113,-4.0113,-4.0113,-4.0113,-4.0113,-4.0113,-4.0113,-4.0113,-4.0113,-4.0113,-4.0028,-3.9994,-4.0079,-3.9689,-3.8725,-3.8132,-6.2823,-6.2805,-6.2677,-6.2291,-6.1649,-6.0676,-5.9924,-5.9391,-5.8382,-5.7978,-5.7978,-5.7978,-5.7978,-5.7978,-5.7978,-5.7978,-5.7978,-5.7978,-5.7978,-5.7941,-5.7923,-5.7574,-5.6969,-5.6198,-5.5372,-5.4546,-5.3628,-5.324,-5.3185,-5.3185,-5.3185,-5.3185,-5.3185,-5.2839,-5.2307,-5.1958,-5.1336,-5.0345,-4.9941,-4.9389,-4.8746,-4.86,-4.8563,-4.8324,-4.8324,-4.8191,-4.7995,-4.7512,-4.715,-4.7084,-4.6478,-4.6192,-4.6143,-4.624,-4.6281,-4.624,-4.5681,-4.5407,-4.5294,-4.4961,-4.4637,-4.4598,-4.4598,-4.4615,-4.4598,-4.4598,-4.4598,-4.4598,-4.4598,-4.4598,-4.4598,-4.4598,-4.4598,-4.4598,-4.4598,-4.4598,-4.4598,-4.4598,-4.4598,-4.4598,-4.4598,-4.4496,-4.4496,-4.4367,-4.4513,-4.4496,-4.3927,-4.3443,-4.3267,-4.2946,-4.2219,-4.1491,-4.1187,-4.0654,-4.0248,-4.0146,-4.0146,-4.0113,-4.0113,-4.0113,-4.0113,-4.0113,-4.0113,-4.0113,-4.0113,-4.0113,-4.0113,-4.0113,-4.0113,-4.0113,-4.0113,-4.0113,-3.9532,-3.875,-3.8206,-6.2823,-6.275,-6.2089,-6.2089,-6.2218,-6.0322,-5.9703,-5.9905,-5.8565,-5.7997,-5.7978,-5.7978,-5.7978,-5.7978,-5.7978,-5.7978,-5.7978,-5.7978,-5.7978,-5.7978,-5.7978,-5.7795,-5.7556,-5.6822,-5.6124,-5.5188,-5.4051,-5.3295,-5.3203,-5.3185,-5.3185,-5.3185,-5.3185,-5.302,-5.2803,-5.238,-5.1839,-5.1158,-5.07,-5.0059,-4.9376,-4.9047,-4.8831,-4.8335,-4.8187,-4.7955,-4.7512,-4.6914,-4.6336,-4.5833,-4.5232,-4.4981,-4.5098,-4.5416,-4.5622,-4.5537,-4.5169,-4.4852,-4.4814,-4.4692,-4.4598,-4.4598,-4.4598,-4.4598,-4.4598,-4.4598,-4.4598,-4.4598,-4.4598,-4.4598,-4.4598,-4.4598,-4.4598,-4.4598,-4.4598,-4.4598,-4.4598,-4.4598,-4.4598,-4.4598,-4.4598,-4.4598,-4.4598,-4.4598,-4.4598,-4.4598,-4.4316,-4.3893,-4.3606,-4.3369,-4.298,-4.2236,-4.1559,-4.0908,-4.0248,-4.0214,-4.0197,-4.013,-4.0113,-4.0113,-4.0113,-4.0113,-4.0113,-4.0113,-4.0113,-4.0113,-4.0113,-4.0113,-3.9952,-3.9859,-3.9952,-4.0045,-3.9226,-3.8402,-3.795,-6.2823,-6.2732,-6.1942,-6.1575,-6.13,-5.99,-5.9171,-5.9043,-5.8327,-5.7978,-5.7978,-5.7978,-5.7978,-5.7978,-5.7978,-5.7978,-5.7978,-5.7978,-5.7978,-5.7978,-5.7978,-5.7978,-5.7886,-5.7189,-5.6675,-5.5868,-5.4675,-5.361,-5.3261,-5.3185,-5.3185,-5.3185,-5.3185,-5.3185,-5.3027,-5.2445,-5.1865,-5.1497,-5.102,-5.0286,-4.9225,-4.8878,-4.8424,-4.8345,-4.7751,-4.7381,-4.7299,-4.6401,-4.5858,-4.5468,-4.4944,-4.4665,-4.4692,-4.4824,-4.5035,-4.4998,-4.4759,-4.4598,-4.4598,-4.4598,-4.4598,-4.4598,-4.4598,-4.4598,-4.4598,-4.4598,-4.4598,-4.4598,-4.4598,-4.4598,-4.4598,-4.4598,-4.4598,-4.4598,-4.4598,-4.4598,-4.4598,-4.4598,-4.4598,-4.4598,-4.4598,-4.4598,-4.4598,-4.4598,-4.4598,-4.4598,-4.4598,-4.4316,-4.3961,-4.3792,-4.3589,-4.2895,-4.2168,-4.1525,-4.0882,-4.0739,-4.0468,-4.0299,-4.0214,-4.0214,-4.0113,-4.0113,-4.0113,-4.0113,-4.0113,-4.0113,-4.0113,-4.0096,-3.9859,-3.962,-3.9516,-3.9332,-3.8734,-3.8133,-3.7587,-6.2688,-6.2493,-6.1686,-6.0988,-6.0309,-5.9355,-5.8731,-5.8272,-5.807,-5.7978,-5.7978,-5.7978,-5.7978,-5.7978,-5.7978,-5.7978,-5.7978,-5.7978,-5.7978,-5.7978,-5.7978,-5.7978,-5.7795,-5.7428,-5.695,-5.651,-5.5702,-5.4381,-5.3628,-5.3277,-5.3185,-5.3185,-5.3185,-5.3185,-5.3045,-5.2445,-5.1736,-5.1326,-5.0915,-5.0211,-4.9089,-4.8282,-4.7927,-4.8245,-4.721,-4.6872,-4.6763,-4.6105,-4.5511,-4.5205,-4.4879,-4.4598,-4.4598,-4.4598,-4.4598,-4.4598,-4.4598,-4.4598,-4.4598,-4.4598,-4.4598,-4.4598,-4.4598,-4.4598,-4.4598,-4.4598,-4.4598,-4.4598,-4.4598,-4.4598,-4.4598,-4.4598,-4.4598,-4.4598,-4.4598,-4.4598,-4.4598,-4.4598,-4.4598,-4.4598,-4.4598,-4.4598,-4.4598,-4.4598,-4.4598,-4.4598,-4.4598,-4.4598,-4.4282,-4.435,-4.4079,-4.3453,-4.2811,-4.2219,-4.1745,-4.1457,-4.1068,-4.0629,-4.0527,-4.0476,-4.0299,-4.0113,-4.013,-4.0163,-4.0113,-4.0113,-4.0113,-4.002,-3.9756,-3.9463,-3.9086,-3.869,-3.8246,-3.7658,-3.7054,-6.2383,-6.1667,-6.0878,-6.0474,-6.0162,-5.8804,-5.8529,-5.8872,-5.8272,-5.7997,-5.7978,-5.7978,-5.7978,-5.7978,-5.7978,-5.7978,-5.7978,-5.7978,-5.7978,-5.7978,-5.7978,-5.7978,-5.7978,-5.7941,-5.7258,-5.6767,-5.6411,-5.5647,-5.4463,-5.3638,-5.3298,-5.3316,-5.324,-5.3185,-5.3124,-5.2335,-5.2082,-5.1832,-5.1315,-5.0563,-4.9727,-4.89,-4.8254,-4.79,-4.7448,-4.69,-4.6202,-4.5676,-4.5344,-4.4786,-4.4665,-4.4598,-4.4598,-4.4598,-4.4598,-4.4598,-4.4598,-4.4598,-4.4598,-4.4598,-4.4598,-4.4598,-4.4598,-4.4598,-4.4598,-4.4598,-4.4598,-4.4598,-4.4598,-4.4598,-4.4598,-4.4598,-4.4598,-4.4598,-4.4598,-4.4598,-4.4598,-4.4598,-4.4598,-4.4598,-4.4598,-4.4598,-4.4598,-4.4598,-4.4598,-4.4598,-4.4598,-4.4598,-4.4598,-4.4598,-4.453,-4.3893,-4.3538,-4.2997,-4.2489,-4.2219,-4.1779,-4.117,-4.1018,-4.0916,-4.0773,-4.0603,-4.0231,-4.0248,-4.0197,-4.013,-4.0113,-3.9952,-3.9679,-3.9209,-3.8734,-3.8302,-3.7933,-3.7263,-3.6461,-6.1245,-6.086,-6.0052,-5.9716,-5.9593,-5.8474,-5.8198,-5.84,-5.8162,-5.7978,-5.7978,-5.7978,-5.7978,-5.7978,-5.7978,-5.7978,-5.7978,-5.7978,-5.7978,-5.7978,-5.7978,-5.7978,-5.7886,-5.757,-5.7085,-5.6764,-5.602,-5.5483,-5.4754,-5.433,-5.3885,-5.3794,-5.3405,-5.3185,-5.306,-5.2083,-5.1661,-5.1197,-5.0564,-4.9972,-4.9649,-4.892,-4.8248,-4.8233,-4.7557,-4.6817,-4.6237,-4.5723,-4.5299,-4.475,-4.4598,-4.4598,-4.4598,-4.4598,-4.4598,-4.4598,-4.4598,-4.4598,-4.4598,-4.4598,-4.4598,-4.4598,-4.4598,-4.4598,-4.4598,-4.4598,-4.4598,-4.4598,-4.4598,-4.4598,-4.4598,-4.4598,-4.4598,-4.4598,-4.4598,-4.4598,-4.4598,-4.4598,-4.4598,-4.4598,-4.4598,-4.4598,-4.4598,-4.4598,-4.4598,-4.4598,-4.4598,-4.4598,-4.4598,-4.4598,-4.4513,-4.4282,-4.4045,-4.3809,-4.3318,-4.2902,-4.2523,-4.2033,-4.183,-4.1677,-4.1474,-4.1247,-4.0745,-4.04,-4.0333,-4.0231,-4.013,-3.9927,-3.9705,-3.9022,-3.829,-3.7777,-3.7205,-3.6523,-3.5879,-5.9997,-5.9758,-5.9349,-5.9074,-5.8836,-5.8253,-5.7997,-5.7997,-5.7997,-5.7978,-5.7978,-5.7978,-5.7978,-5.7978,-5.7978,-5.7978,-5.7978,-5.7978,-5.7978,-5.7978,-5.7978,-5.7978,-5.7797,-5.7333,-5.692,-5.6843,-5.5723,-5.5303,-5.5261,-5.4858,-5.4337,-5.4374,-5.3533,-5.3258,-5.2824,-5.1916,-5.106,-5.038,-4.961,-4.9355,-4.9438,-4.8771,-4.8468,-4.8167,-4.767,-4.6946,-4.6614,-4.626,-4.5647,-4.5089,-4.4953,-4.4919,-4.4682,-4.4598,-4.4598,-4.4598,-4.4598,-4.4598,-4.4598,-4.4598,-4.4598,-4.4598,-4.4598,-4.4598,-4.4598,-4.4598,-4.4598,-4.4598,-4.4598,-4.4598,-4.4598,-4.4598,-4.4598,-4.4598,-4.4598,-4.4598,-4.4598,-4.4598,-4.4598,-4.4598,-4.4598,-4.4598,-4.4598,-4.4598,-4.4598,-4.4598,-4.4598,-4.4598,-4.4598,-4.4598,-4.4547,-4.4445,-4.435,-4.4231,-4.3995,-4.3555,-4.3166,-4.2878,-4.2658,-4.2149,-4.1728,-4.1422,-4.1013,-4.0725,-4.0452,-4.0163,-3.9934,-3.9852,-3.9679,-3.8778,-3.7863,-3.7041,-3.6368,-3.5765,-3.5489,-5.8841,-5.8217,-5.8891,-5.8767,-5.8107,-5.8015,-5.7978,-5.7978,-5.7978,-5.7978,-5.7978,-5.7978,-5.7978,-5.7978,-5.7978,-5.7978,-5.7978,-5.7978,-5.7978,-5.7978,-5.7978,-5.795,-5.7655,-5.7191,-5.6721,-5.6563,-5.5539,-5.5283,-5.5423,-5.4697,-5.4428,-5.4286,-5.3463,-5.3258,-5.2694,-5.1651,-5.0397,-4.971,-4.9094,-4.9032,-4.9168,-4.8877,-4.8653,-4.8179,-4.7894,-4.7526,-4.6857,-4.6747,-4.638,-4.5686,-4.55,-4.5263,-4.4902,-4.4666,-4.4615,-4.4598,-4.4598,-4.4598,-4.4598,-4.4598,-4.4598,-4.4598,-4.4598,-4.4598,-4.4598,-4.4598,-4.4598,-4.4598,-4.4598,-4.4598,-4.4598,-4.4598,-4.4598,-4.4598,-4.4598,-4.4598,-4.4598,-4.4598,-4.4598,-4.4598,-4.4598,-4.4598,-4.4598,-4.4598,-4.4598,-4.4598,-4.4598,-4.4598,-4.4598,-4.4598,-4.4598,-4.4547,-4.4564,-4.453,-4.453,-4.4181,-4.3842,-4.3606,-4.3403,-4.2507,-4.164,-4.138,-4.1332,-4.0717,-4.0348,-4.0053,-3.978,-3.9633,-3.9227,-3.8331,-3.7472,-3.6753,-3.6133,-3.5636,-3.5489,-5.829,-5.8033,-5.8345,-5.829,-5.7978,-5.7978,-5.7978,-5.7978,-5.7978,-5.7978,-5.7978,-5.7978,-5.7978,-5.7978,-5.7978,-5.7978,-5.7978,-5.7978,-5.7955,-5.7978,-5.7978,-5.7726,-5.7284,-5.6598,-5.592,-5.5483,-5.4822,-5.4668,-5.4864,-5.4283,-5.4296,-5.3984,-5.3226,-5.2712,-5.2106,-5.1264,-5.0011,-4.9316,-4.9018,-4.9018,-4.9018,-4.9001,-4.8866,-4.8646,-4.8578,-4.8189,-4.7614,-4.7496,-4.7039,-4.6498,-4.6024,-4.5635,-4.5263,-4.4936,-4.4699,-4.4649,-4.4649,-4.4598,-4.4598,-4.4598,-4.4598,-4.4598,-4.4598,-4.4598,-4.4598,-4.4598,-4.4598,-4.4598,-4.4598,-4.4598,-4.4598,-4.4598,-4.4598,-4.4598,-4.4598,-4.4598,-4.4598,-4.4598,-4.4598,-4.4598,-4.4598,-4.4598,-4.4598,-4.4598,-4.4598,-4.4598,-4.4598,-4.4598,-4.4598,-4.4598,-4.4598,-4.4598,-4.4598,-4.4598,-4.4598,-4.4547,-4.4451,-4.4265,-4.4045,-4.3096,-4.2116,-4.1906,-4.1712,-4.0983,-4.015,-3.9746,-3.946,-3.9328,-3.8727,-3.7689,-3.7071,-3.6585,-3.6038,-3.5569,-3.5534,-5.7978,-5.7978,-5.7978,-5.7978,-5.7978,-5.7978,-5.7978,-5.7978,-5.7978,-5.7978,-5.7978,-5.7978,-5.7978,-5.7978,-5.7978,-5.7774,-5.766,-5.7613,-5.7637,-5.7613,-5.7522,-5.7351,-5.6773,-5.6132,-5.5466,-5.4606,-5.3946,-5.3898,-5.4218,-5.375,-5.3825,-5.3649,-5.2968,-5.2411,-5.1882,-5.0788,-4.9681,-4.9168,-4.9018,-4.9018,-4.9018,-4.9001,-4.9001,-4.8951,-4.8934,-4.8748,-4.8359,-4.8206,-4.7851,-4.7259,-4.6735,-4.6329,-4.5889,-4.5432,-4.501,-4.4886,-4.475,-4.4632,-4.4598,-4.4598,-4.4598,-4.4598,-4.4598,-4.4598,-4.4598,-4.4598,-4.4598,-4.4598,-4.4598,-4.4598,-4.4598,-4.4598,-4.4598,-4.4598,-4.4598,-4.4598,-4.4598,-4.4598,-4.4598,-4.4598,-4.4598,-4.4598,-4.4598,-4.4598,-4.4598,-4.4598,-4.4598,-4.4598,-4.4598,-4.4598,-4.4598,-4.4598,-4.4598,-4.4598,-4.4598,-4.4508,-4.4474,-4.4513,-4.4204,-4.3602,-4.2908,-4.2466,-4.1788,-4.0928,-4.0118,-3.9472,-3.9125,-3.8935,-3.8041,-3.6938,-3.6553,-3.6285,-3.6063,-3.5654,-3.5654,-5.7978,-5.7978,-5.7978,-5.7978,-5.7978,-5.7978,-5.7978,-5.7973,-5.7909,-5.7886,-5.7844,-5.7844,-5.7779,-5.7755,-5.7618,-5.734,-5.6971,-5.6938,-5.692,-5.6902,-5.6876,-5.6869,-5.6492,-5.5836,-5.5072,-5.4544,-5.3913,-5.3568,-5.3618,-5.3568,-5.3566,-5.3344,-5.2797,-5.211,-5.2011,-5.0725,-4.9686,-4.9124,-4.9032,-4.9018,-4.9018,-4.9018,-4.9018,-4.9018,-4.9018,-4.8883,-4.8815,-4.8765,-4.8426,-4.7953,-4.7618,-4.7242,-4.6752,-4.6075,-4.572,-4.5669,-4.5077,-4.4784,-4.4649,-4.4615,-4.4598,-4.4598,-4.4598,-4.4598,-4.4598,-4.4598,-4.4598,-4.4598,-4.4598,-4.4598,-4.4598,-4.4598,-4.4598,-4.4598,-4.4598,-4.4598,-4.4598,-4.4598,-4.4598,-4.4598,-4.4598,-4.4598,-4.4598,-4.4598,-4.4598,-4.4598,-4.4598,-4.4598,-4.4598,-4.4598,-4.4598,-4.4598,-4.4598,-4.4598,-4.457,-4.4485,-4.4468,-4.4542,-4.4105,-4.3243,-4.2598,-4.1964,-4.1274,-4.0673,-3.9979,-3.9244,-3.8815,-3.8516,-3.7676,-3.6914,-3.6304,-3.5997,-3.5851,-3.5923,-3.6088,-5.7978,-5.7978,-5.7978,-5.7978,-5.7978,-5.7978,-5.7978,-5.7909,-5.7516,-5.7259,-5.7141,-5.6755,-5.6483,-5.6483,-5.6536,-5.6403,-5.6186,-5.6104,-5.6104,-5.6087,-5.6104,-5.5741,-5.5454,-5.5191,-5.462,-5.3994,-5.3568,-5.3518,-5.3534,-5.3518,-5.3518,-5.3298,-5.2756,-5.176,-5.0994,-5.0141,-4.9712,-4.9134,-4.9018,-4.9018,-4.9018,-4.9018,-4.9018,-4.9018,-4.9018,-4.9018,-4.9018,-4.9018,-4.8815,-4.8511,-4.8291,-4.7834,-4.7445,-4.6836,-4.6464,-4.643,-4.6024,-4.5805,-4.5348,-4.4993,-4.4615,-4.4598,-4.4598,-4.4598,-4.4598,-4.4598,-4.4598,-4.4598,-4.4598,-4.4598,-4.4598,-4.4598,-4.4598,-4.4598,-4.4598,-4.4598,-4.4598,-4.4598,-4.4598,-4.4598,-4.4598,-4.4598,-4.4598,-4.4598,-4.4598,-4.4468,-4.4468,-4.4542,-4.457,-4.457,-4.4598,-4.4598,-4.4598,-4.4598,-4.4542,-4.4281,-4.4006,-4.3919,-4.3229,-4.2221,-4.1658,-4.1363,-4.0743,-4.0093,-3.9556,-3.9002,-3.8772,-3.8439,-3.7737,-3.703,-3.6855,-3.6641,-3.6611,-3.6776,-3.6956,-5.7978,-5.7978,-5.7978,-5.7978,-5.7978,-5.7978,-5.7978,-5.7844,-5.7234,-5.6894,-5.6747,-5.6059,-5.5734,-5.5734,-5.5678,-5.5466,-5.5379,-5.5338,-5.5338,-5.532,-5.532,-5.5072,-5.4787,-5.4513,-5.4249,-5.3701,-5.3518,-5.3518,-5.3518,-5.3518,-5.3518,-5.3382,-5.2976,-5.2213,-5.1261,-5.0551,-4.991,-4.9441,-4.9289,-4.9018,-4.9018,-4.9018,-4.9018,-4.9018,-4.9018,-4.9018,-4.9018,-4.9018,-4.9001,-4.8849,-4.8612,-4.8274,-4.8054,-4.7665,-4.7242,-4.7175,-4.6836,-4.643,-4.572,-4.5365,-4.4959,-4.4632,-4.4615,-4.4598,-4.4598,-4.4598,-4.4598,-4.4598,-4.4598,-4.4598,-4.4598,-4.4598,-4.4598,-4.4598,-4.4598,-4.4598,-4.4598,-4.4598,-4.4598,-4.4598,-4.4598,-4.4598,-4.4598,-4.4598,-4.4598,-4.444,-4.4327,-4.4412,-4.444,-4.4384,-4.4338,-4.4338,-4.444,-4.4468,-4.4253,-4.3873,-4.3621,-4.3353,-4.2458,-4.1478,-4.118,-4.0946,-4.0205,-3.9631,-3.9367,-3.9146,-3.8841,-3.8457,-3.8222,-3.8147,-3.8138,-3.7883,-3.7554,-3.7584,-3.7734,-5.7978,-5.7978,-5.7978,-5.7978,-5.7978,-5.7978,-5.7978,-5.7909,-5.7141,-5.6817,-5.6765,-5.5854,-5.535,-5.5495,-5.5552,-5.5161,-5.4699,-5.4575,-5.4575,-5.4575,-5.4558,-5.4451,-5.4482,-5.4405,-5.3994,-5.3668,-5.3518,-5.3518,-5.3518,-5.3518,-5.3518,-5.3518,-5.3382,-5.2807,-5.2012,-5.1031,-5.0287,-4.983,-4.9306,-4.9069,-4.9018,-4.9018,-4.9018,-4.9018,-4.9018,-4.9018,-4.9018,-4.9018,-4.9018,-4.8984,-4.8951,-4.8951,-4.8748,-4.8277,-4.8041,-4.7767,-4.7276,-4.6633,-4.616,-4.5923,-4.5331,-4.4891,-4.4649,-4.4615,-4.4598,-4.4598,-4.4598,-4.4598,-4.4598,-4.4598,-4.4598,-4.4598,-4.4598,-4.4598,-4.4598,-4.4598,-4.4598,-4.4598,-4.4598,-4.4598,-4.4598,-4.4598,-4.4598,-4.4598,-4.4468,-4.4384,-4.4196,-4.3977,-4.3977,-4.3856,-4.3827,-4.3873,-4.4006,-4.4281,-4.396,-4.332,-4.3047,-4.2693,-4.1917,-4.1028,-4.0792,-4.05,-3.999,-3.9574,-3.9445,-3.9254,-3.908,-3.911,-3.9185,-3.9119,-3.8916,-3.8706,-3.8227,-3.8302,-3.8377,-5.7978,-5.7978,-5.7978,-5.7978,-5.7978,-5.7978,-5.7978,-5.7821,-5.6677,-5.6031,-5.5976,-5.4686,-5.4313,-5.4139,-5.4106,-5.4044,-5.3913,-5.3832,-5.3832,-5.3865,-5.3929,-5.3865,-5.3832,-5.3865,-5.3668,-5.3584,-5.3518,-5.3518,-5.3518,-5.3518,-5.3518,-5.3518,-5.3518,-5.3281,-5.2689,-5.164,-5.0811,-5.0067,-4.9441,-4.9103,-4.9018,-4.9018,-4.9018,-4.9018,-4.9018,-4.9018,-4.9018,-4.9018,-4.9018,-4.9018,-4.9018,-4.9018,-4.8968,-4.8798,-4.868,-4.8595,-4.8054,-4.7462,-4.7128,-4.6295,-4.5585,-4.5246,-4.4902,-4.4632,-4.4598,-4.4598,-4.4598,-4.4598,-4.4598,-4.4598,-4.4598,-4.4598,-4.4598,-4.4598,-4.4598,-4.4598,-4.4598,-4.4598,-4.4598,-4.4598,-4.4598,-4.4468,-4.4468,-4.4412,-4.4327,-4.4253,-4.4035,-4.3621,-4.3426,-4.329,-4.3213,-4.3229,-4.3229,-4.341,-4.3015,-4.241,-4.2252,-4.1981,-4.1162,-4.0481,-4.013,-3.9829,-3.9631,-3.9538,-3.9424,-3.9388,-3.9343,-3.9388,-3.9388,-3.9388,-3.9194,-3.9074,-3.897,-3.896,-3.896,-5.7978,-5.7978,-5.7978,-5.7978,-5.7932,-5.7684,-5.7546,-5.7333,-5.6241,-5.5706,-5.5506,-5.4203,-5.3518,-5.3568,-5.3584,-5.3568,-5.3568,-5.3568,-5.3568,-5.3568,-5.3518,-5.3534,-5.3501,-5.3518,-5.3534,-5.3518,-5.3518,-5.3518,-5.3518,-5.3518,-5.3518,-5.3518,-5.3518,-5.3518,-5.3027,-5.1995,-5.1082,-5.0338,-4.9695,-4.9171,-4.9018,-4.9018,-4.9018,-4.9018,-4.9018,-4.9018,-4.9018,-4.9018,-4.9018,-4.9018,-4.9018,-4.9018,-4.9018,-4.8984,-4.8984,-4.8883,-4.8646,-4.8139,-4.7699,-4.6786,-4.616,-4.5602,-4.5043,-4.4699,-4.4598,-4.4598,-4.4598,-4.4598,-4.4598,-4.4598,-4.4598,-4.4598,-4.4598,-4.4598,-4.4598,-4.4598,-4.4598,-4.4598,-4.4598,-4.4598,-4.4497,-4.4327,-4.4253,-4.4196,-4.3977,-4.3621,-4.3092,-4.2504,-4.2442,-4.2567,-4.2504,-4.2473,-4.2379,-4.2379,-4.1949,-4.1691,-4.1511,-4.1196,-4.0447,-3.9829,-3.946,-3.9424,-3.9481,-3.9445,-3.9424,-3.9388,-3.9388,-3.9388,-3.9388,-3.9388,-3.9388,-3.9269,-3.9194,-3.9224,-3.9239,-5.7955,-5.7844,-5.7844,-5.7666,-5.7708,-5.7065,-5.6791,-5.6713,-5.591,-5.5592,-5.5291,-5.4124,-5.3518,-5.3518,-5.3518,-5.3518,-5.3518,-5.3518,-5.3518,-5.3518,-5.3518,-5.3518,-5.3518,-5.3518,-5.3518,-5.3518,-5.3518,-5.3518,-5.3518,-5.3518,-5.3518,-5.3518,-5.3518,-5.3518,-5.3281,-5.2181,-5.1352,-5.0862,-4.9949,-4.9204,-4.9052,-4.9018,-4.9018,-4.9018,-4.9018,-4.9018,-4.9018,-4.9018,-4.9018,-4.9018,-4.9018,-4.9018,-4.9018,-4.9018,-4.9018,-4.9001,-4.89,-4.8646,-4.8139,-4.7361,-4.6616,-4.5906,-4.5145,-4.4818,-4.4699,-4.4615,-4.4598,-4.4598,-4.4598,-4.4598,-4.4598,-4.4598,-4.4598,-4.4598,-4.4598,-4.4598,-4.4598,-4.4598,-4.4598,-4.4598,-4.457,-4.4327,-4.3785,-4.368,-4.3456,-4.3017,-4.2284,-4.1576,-4.1445,-4.1658,-4.1576,-4.1543,-4.1346,-4.1247,-4.1445,-4.1147,-4.0826,-4.0378,-3.9829,-3.9538,-3.9424,-3.9388,-3.9388,-3.9388,-3.9388,-3.9388,-3.9388,-3.9388,-3.9388,-3.9388,-3.9388,-3.9388,-3.9388,-3.9388,-3.9388,-5.766,-5.7109,-5.6501,-5.625,-5.6223,-5.6059,-5.5976,-5.592,-5.5173,-5.4861,-5.4682,-5.3979,-5.3518,-5.3518,-5.3518,-5.3518,-5.3518,-5.3518,-5.3518,-5.3518,-5.3518,-5.3518,-5.3518,-5.3518,-5.3518,-5.3518,-5.3518,-5.3518,-5.3518,-5.3518,-5.3518,-5.3518,-5.3518,-5.3518,-5.3433,-5.235,-5.1742,-5.1168,-5.0321,-4.9424,-4.9052,-4.9018,-4.9018,-4.9018,-4.9018,-4.9018,-4.9018,-4.9018,-4.9018,-4.9018,-4.9018,-4.9018,-4.9018,-4.9018,-4.9018,-4.9018,-4.9018,-4.8832,-4.8545,-4.7936,-4.7242,-4.6583,-4.5872,-4.5213,-4.4835,-4.4682,-4.4598,-4.4615,-4.4598,-4.4598,-4.4598,-4.4598,-4.4598,-4.4598,-4.4598,-4.4598,-4.4598,-4.4598,-4.4598,-4.4598,-4.4598,-4.4121,-4.3532,-4.3108,-4.2878,-4.23,-4.1478,-4.086,-4.0656,-4.069,-4.0413,-4.0289,-4.006,-4.006,-4.0481,-4.0638,-4.0324,-4.0185,-3.9793,-3.9574,-3.9424,-3.9388,-3.9388,-3.9388,-3.9388,-3.9388,-3.9388,-3.9388,-3.9388,-3.9388,-3.9388,-3.9388,-3.9388,-3.9388,-3.9388,-5.6755,-5.6313,-5.5893,-5.5706,-5.5621,-5.535,-5.5203,-5.5072,-5.4437,-5.4106,-5.4074,-5.3701,-5.3518,-5.3518,-5.3518,-5.3518,-5.3518,-5.3518,-5.3518,-5.3518,-5.3518,-5.3518,-5.3518,-5.3518,-5.3518,-5.3518,-5.3518,-5.3518,-5.3518,-5.3518,-5.3518,-5.3518,-5.3518,-5.3484,-5.3382,-5.2706,-5.1978,-5.1185,-5.0507,-4.9796,-4.9154,-4.9018,-4.9018,-4.9018,-4.9018,-4.9018,-4.9018,-4.9018,-4.9018,-4.9018,-4.9018,-4.9018,-4.9018,-4.9018,-4.9018,-4.9018,-4.9018,-4.9001,-4.8798,-4.8376,-4.7736,-4.7175,-4.6599,-4.5923,-4.5771,-4.5585,-4.4891,-4.4823,-4.4632,-4.4598,-4.4598,-4.4598,-4.4598,-4.4598,-4.4598,-4.4598,-4.4598,-4.4598,-4.4598,-4.4598,-4.4367,-4.3885,-4.3229,-4.2552,-4.2221,-4.1478,-4.0656,-4.0535,-4.0274,-4.0025,-3.9646,-3.9388,-3.9388,-3.9424,-3.9829,-3.9935,-3.9773,-3.9666,-3.9737,-3.9574,-3.9388,-3.9388,-3.9388,-3.9388,-3.9388,-3.9388,-3.9388,-3.9388,-3.9388,-3.9388,-3.9388,-3.9388,-3.9388,-3.9388,-3.9388,-5.5678,-5.5563,-5.5437,-5.5408,-5.532,-5.4743,-5.4451,-5.4342,-5.3799,-5.3534,-5.3568,-5.3534,-5.3518,-5.3518,-5.3518,-5.3518,-5.3518,-5.3518,-5.3518,-5.3518,-5.3518,-5.3518,-5.3518,-5.3518,-5.3518,-5.3518,-5.3518,-5.3518,-5.3518,-5.3518,-5.3518,-5.3518,-5.3518,-5.3501,-5.3281,-5.2841,-5.2198,-5.1572,-5.0862,-5.0067,-4.9509,-4.9052,-4.9018,-4.9018,-4.9018,-4.9018,-4.9018,-4.9018,-4.9018,-4.9018,-4.9018,-4.9018,-4.9018,-4.9018,-4.9018,-4.9018,-4.9018,-4.9018,-4.8883,-4.8528,-4.8108,-4.7733,-4.7208,-4.687,-4.6701,-4.6126,-4.5415,-4.5179,-4.4987,-4.4649,-4.4649,-4.4598,-4.4598,-4.4468,-4.4468,-4.4236,-4.4207,-4.431,-4.4338,-4.4367,-4.3989,-4.3515,-4.2831,-4.2125,-4.1412,-4.0622,-4.0309,-4.0239,-4.0115,-3.9829,-3.9517,-3.9388,-3.9388,-3.946,-3.9481,-3.9481,-3.9481,-3.9481,-3.9553,-3.9445,-3.9388,-3.9388,-3.9388,-3.9388,-3.9388,-3.9388,-3.9388,-3.9388,-3.9388,-3.9388,-3.9388,-3.9388,-3.9388,-3.9388,-3.9388,-5.535,-5.4774,-5.4203,-5.3946,-5.3931,-5.3766,-5.3734,-5.3701,-5.3584,-5.3518,-5.3518,-5.3518,-5.3518,-5.3518,-5.3518,-5.3518,-5.3518,-5.3518,-5.3518,-5.3518,-5.3518,-5.3518,-5.3518,-5.3518,-5.3518,-5.3518,-5.3518,-5.3518,-5.3518,-5.3518,-5.3518,-5.3518,-5.3518,-5.3518,-5.3484,-5.3095,-5.2756,-5.2097,-5.1691,-5.1099,-4.9949,-4.9458,-4.9052,-4.9018,-4.9018,-4.9018,-4.9018,-4.9018,-4.9018,-4.9018,-4.9018,-4.9018,-4.9018,-4.9018,-4.9018,-4.9018,-4.9018,-4.9018,-4.8866,-4.8765,-4.8511,-4.8075,-4.7648,-4.7462,-4.7073,-4.638,-4.6024,-4.616,-4.5771,-4.497,-4.4784,-4.4649,-4.4587,-4.4224,-4.4064,-4.332,-4.2923,-4.3259,-4.3515,-4.3515,-4.3426,-4.2831,-4.2189,-4.1478,-4.074,-4.0115,-3.9773,-3.9702,-3.9737,-3.9553,-3.9388,-3.9388,-3.9388,-3.9388,-3.9424,-3.9424,-3.9424,-3.9424,-3.9388,-3.9388,-3.9388,-3.9388,-3.9388,-3.9388,-3.9388,-3.9388,-3.9388,-3.9388,-3.9388,-3.9388,-3.9388,-3.9388,-3.9388,-3.9388,-3.9388]},{"header":{"parameterUnit":"m.s-1","parameterCategory":1,"la1":31.0,"la2":29.5877,"lo1":-88.7671,"lo2":-86.6584,"dy":0.0162,"dx":0.0185,"nx":115,"ny":88,"refTime":"2025-04-12T12:00:00:Z","depth":0,"parameterNumber":3,"parameterNumberName":"V-component_of_WINDS"},"data":[0.0,0.0,0.0,0.0,0.0,0.0,0.0,0.0,0.0,0.0,0.0,0.0,0.0,0.0,0.0,0.0,0.0,0.0,0.0,0.0,0.0,0.0,0.0,0.0,0.0,0.0,0.0,0.0,0.0,0.0,0.0,0.0,0.0,0.0,0.0,0.0,0.0,0.0,0.0,0.0,0.0,0.0,0.0,0.0,0.0,0.0,0.0,0.0,0.0,0.0,0.0,0.0,0.0,0.0,0.0,0.0,0.0,0.0,0.0,0.0,0.0,0.0,0.0,0.0,0.0,0.0,0.0,0.0,0.0,0.0,0.0,0.0,0.0,0.0,0.0,0.0,0.0,0.0,0.0,0.0,0.0,0.0,0.0,0.0,0.0,0.0,0.0,0.0,0.0,0.0,0.0,0.0,0.0,0.0,0.0,0.0,0.0,0.0,0.0,0.0,0.0,0.0,0.0,0.0,0.0,0.0,0.0,0.0,0.0,0.0,0.0,0.0,0.0,0.0,0.0,0.0,0.0,0.0,0.0,0.0,0.0,0.0,0.0,0.0,0.0,0.0,0.0,0.0,0.0,0.0,0.0,0.0,0.0,0.0,0.0,0.0,0.0,0.0,0.0,0.0,0.0,0.0,0.0,0.0,0.0,0.0,0.0,0.0,0.0,0.0,0.0,0.0,0.0,0.0,0.0,0.0,0.0,0.0,0.0,0.0,0.0,0.0,0.0,0.0,0.0,0.0,0.0,0.0,0.0,0.0,0.0,0.0,0.0,0.0,0.0,0.0,0.0,0.0,0.0,0.0,0.0,0.0,0.0,0.0,0.0,0.0,0.0,0.0,0.0,0.0,0.0,0.0,0.0,0.0,0.0,0.0,0.0,0.0,0.0,0.0,0.0,0.0,0.0,0.0,0.0,0.0,0.0,0.0,0.0,0.0,0.0,0.0,0.0,0.0,0.0,0.0,0.0,0.0,0.0,0.0,0.0,0.0,0.0,0.0,0.0,0.0,0.0,0.0,0.0,0.0,0.0,0.0,0.0,0.0,0.0,0.0,0.0,0.0,0.0,0.0,0.0,0.0,0.0,0.0,0.0,0.0,0.0,0.0,0.0,0.0,0.0,0.0,0.0,0.0,0.0,0.0,0.0,0.0,0.0,0.0,0.0,0.0,0.0,0.0,0.0,0.0,0.0,0.0,0.0,0.0,0.0,0.0,0.0,0.0,0.0,0.0,0.0,0.0,0.0,0.0,0.0,0.0,0.0,0.0,0.0,0.0,0.0,0.0,0.0,0.0,0.0,0.0,0.0,0.0,0.0,0.0,0.0,0.0,0.0,0.0,0.0,0.0,0.0,0.0,0.0,0.0,0.0,0.0,0.0,0.0,0.0,0.0,0.0,0.0,0.0,0.0,0.0,0.0,0.0,0.0,0.0,0.0,0.0,0.0,0.0,0.0,0.0,0.0,0.0,0.0,0.0,0.0,0.0,0.0,0.0,0.0,0.0,0.0,0.0,0.0,0.0,0.0,0.0,0.0,0.0,0.0,0.0,0.0,0.0,0.0,0.0,0.0,0.0,0.0,0.0,0.0,0.0,0.0,0.0,0.0,0.0,0.0,0.0,0.0,0.0,0.0,0.0,0.0,0.0,0.0,0.0,0.0,0.0,0.0,0.0,0.0,0.0,0.0,0.0,0.0,0.0,0.0,0.0,0.0,0.0,0.0,0.0,0.0,0.0,0.0,0.0,0.0,0.0,0.0,0.0,0.0,0.0,0.0,0.0,0.0,0.0,0.0,0.0,0.0,0.0,0.0,0.0,0.0,0.0,0.0,0.0,0.0,0.0,0.0,0.0,0.0,0.0,0.0,0.0,0.0,0.0,0.0,0.0,0.0,0.0,0.0,0.0,0.0,0.0,0.0,0.0,0.0,0.0,0.0,0.0,0.0,0.0,0.0,0.0,0.0,0.0,0.0,0.0,0.0,0.0,0.0,0.0,0.0,0.0,0.0,0.0,0.0,0.0,0.0,0.0,0.0,0.0,0.0,0.0,0.0,0.0,0.0,0.0,0.0,0.0,0.0,0.0,0.0,0.0,0.0,0.0,0.0,0.0,0.0,0.0,0.0,0.0,0.0,0.0,0.0,0.0,0.0,0.0,0.0,0.0,0.0,0.0,0.0,0.0,0.0,0.0,0.0,0.0,0.0,0.0,0.0,0.0,0.0,0.0,0.0,0.0,0.0,0.0,0.0,0.0,0.0,0.0,0.0,0.0,0.0,0.0,0.0,0.0,0.0,0.0,0.0,0.0,0.0,0.0,0.0,0.0,0.0,0.0,0.0,0.0,0.0,0.0,0.0,0.0,0.0,0.0,0.0,0.0,0.0,0.0,0.0,0.0,0.0,0.0,0.0,0.0,0.0,0.0,0.0,0.0,0.0,0.0,0.0,0.0,0.0,0.0,0.0,0.0,0.0,0.0,0.0,0.0,0.0,0.0,0.0,0.0,0.0,0.0,0.0,0.0,0.0,0.0,0.0,0.0,0.0,0.0,0.0,0.0,0.0,0.0,0.0,0.0,0.0,0.0,0.0,0.0,0.0,0.0,0.0,0.0,0.0,0.0,0.0,0.0,0.0,0.0,0.0,0.0,0.0,0.0,0.0,0.0,0.0,0.0,0.0,0.0,0.0,0.0,0.0,0.0,0.0,0.0,0.0,0.0,0.0,0.0,0.0,0.0,0.0,0.0,0.0,0.0,0.0,0.0,0.0,0.0,0.0,0.0,0.0,0.0,0.0,0.0,0.0,0.0,0.0,0.0,0.0,0.0,0.0,0.0,0.0,0.0,0.0,0.0,0.0,0.0,0.0,0.0,0.0,0.0,0.0,0.0,0.0,0.0,0.0,0.0,0.0,0.0,0.0,0.0,0.0,0.0,0.0,0.0,0.0,0.0,0.0,0.0,0.0,0.0,0.0,0.0,0.0,0.0,0.0,0.0,0.0,0.0,0.0,0.0,0.0,0.0,0.0,0.0,0.0,0.0,0.0,0.0,0.0,0.0,0.0,0.0,0.0,0.0,0.0,0.0,0.0,0.0,0.0,0.0,0.0,0.0,0.0,0.0,0.0,0.0,0.0,0.0,0.0,0.0,0.0,0.0,0.0,0.0,0.0,0.0,0.0,0.0,0.0,0.0,0.0,0.0,0.0,0.0,0.0,0.0,0.0,0.0,0.0,0.0,0.0,0.0,0.0,0.0,0.0,0.0,0.0,0.0,0.0,0.0,0.0,0.0,0.0,0.0,0.0,0.0,0.0,0.0,0.0,0.0,0.0,0.0,0.0,0.0,0.0,0.0,0.0,0.0,0.0,0.0,0.0,0.0,0.0,0.0,0.0,0.0,0.0,0.0,0.0,0.0,0.0,0.0,0.0,0.0,0.0,0.0,0.0,0.0,0.0,0.0,0.0,0.0,0.0,0.0,0.0,0.0,0.0,0.0,0.0,0.0,0.0,0.0,0.0,0.0,0.0,0.0,0.0,0.0,0.0,0.0,0.0,0.0,0.0,0.0,0.0,0.0,0.0,0.0,0.0,0.0,0.0,0.0,0.0,0.0,0.0,0.0,0.0,0.0,0.0,0.0,0.0,0.0,0.0,0.0,0.0,0.0,0.0,0.0,0.0,0.0,0.0,0.0,0.0,0.0,0.0,0.0,0.0,0.0,0.0,0.0,0.0,0.0,0.0,0.0,0.0,0.0,0.0,0.0,0.0,0.0,0.0,0.0,0.0,0.0,0.0,0.0,0.0,0.0,0.0,0.0,0.0,0.0,0.0,0.0,0.0,0.0,0.0,0.0,0.0,0.0,0.0,0.0,0.0,0.0,0.0,0.0,0.0,0.0,0.0,0.0,0.0,0.0,0.0,0.0,0.0,0.0,0.0,0.0,0.0,0.0,0.0,0.0,0.0,0.0,0.0,0.0,0.0,0.0,0.0,0.0,0.0,0.0,0.0,0.0,0.0,0.0,0.0,0.0,0.0,0.0,0.0,0.0,0.0,0.0,0.0,0.0,0.0,0.0,0.0,0.0,0.0,0.0,0.0,0.0,0.0,0.0,0.0,0.0,0.0,0.0,0.0,0.0,0.0,0.0,0.0,0.0,0.0,0.0,0.0,0.0,0.0,0.0,0.0,0.0,0.0,0.0,0.0,0.0,0.0,0.0,0.0,0.0,0.0,0.0,0.0,0.0,0.0,0.0,0.0,0.0,0.0,0.0,0.0,0.0,0.0,0.0,0.0,0.0,0.0,0.0,0.0,1.0322,0.0,0.0,0.0,0.0,0.0,0.0,0.0,0.0,0.0,0.0,0.0,0.0,0.0,0.0,0.0,0.0,0.0,0.0,0.0,0.0,0.0,0.0,0.0,0.0,0.0,0.0,0.0,0.0,0.0,0.0,0.0,0.0,0.0,0.0,0.0,0.0,0.0,0.0,0.0,0.0,0.0,0.0,0.0,0.0,0.0,0.0,0.0,0.0,0.0,0.0,0.0,0.0,0.0,0.0,0.0,0.0,0.0,0.0,0.0,0.0,0.0,0.0,0.0,0.0,0.0,0.0,0.0,0.0,0.0,0.0,0.0,0.0,0.0,0.0,0.0,0.0,0.0,0.0,0.0,0.0,0.0,0.0,0.0,0.0,0.0,0.0,0.0,0.0,0.0,0.0,0.0,0.0,0.0,0.0,0.0,0.0,0.0,0.0,0.0,0.0,0.0,0.0,0.0,0.0,0.0,0.0,0.0,0.0,0.0,0.0,1.0322,1.0322,1.0322,1.0322,1.0312,0.0,0.0,0.0,0.0,0.0,0.0,0.0,0.0,0.0,0.0,0.0,0.0,0.0,0.0,0.0,0.0,0.0,0.0,0.0,0.0,0.0,0.0,0.0,0.0,0.0,0.0,0.0,0.0,0.0,0.0,0.0,0.0,0.0,0.0,0.0,0.0,0.0,0.0,0.0,0.0,0.0,0.0,0.0,0.0,0.0,0.0,0.0,0.0,0.0,0.0,0.0,0.0,0.0,0.0,0.0,0.0,0.0,0.0,0.0,0.0,0.0,0.0,0.0,0.0,0.0,0.0,0.0,0.0,0.0,0.0,0.0,0.0,0.0,0.0,0.0,0.0,0.0,0.0,0.0,0.0,0.0,0.0,0.0,0.0,0.0,0.0,0.0,0.0,0.0,0.0,0.0,0.0,0.0,0.0,0.0,0.0,0.0,0.0,0.0,0.0,0.0,0.0,0.0,0.0,0.0,0.0,0.0,0.0,0.0,0.0,0.0,0.0,1.0586,1.0596,1.0616,0.0,0.0,0.0,0.0,0.0,0.0,0.0,0.0,0.0,0.0,0.0,0.0,0.0,0.0,0.0,0.0,0.0,0.0,0.0,0.0,0.0,0.0,0.0,0.0,0.0,0.0,0.0,0.0,0.0,0.0,0.0,0.0,0.0,0.0,0.0,0.0,0.0,0.0,0.0,0.0,0.0,0.0,0.0,0.0,0.0,0.0,0.0,0.0,0.0,0.0,0.0,0.0,0.0,0.0,0.0,0.0,0.0,0.0,0.0,0.0,0.0,0.0,0.0,0.0,0.0,0.0,0.0,0.0,0.0,0.0,0.0,0.0,0.0,0.0,0.0,0.0,0.0,0.0,0.0,0.0,0.0,0.0,0.0,0.0,0.0,0.0,0.0,0.0,0.0,0.0,0.0,0.0,0.0,0.0,0.0,0.0,0.0,0.0,0.0,0.0,0.0,0.0,0.0,0.0,0.0,0.0,0.0,0.0,0.0,0.0,1.0674,1.1459,1.1457,0.0,1.1518,0.0,0.0,0.0,0.0,0.0,0.0,0.0,0.0,0.0,0.0,0.0,0.0,0.0,0.0,0.0,0.0,0.0,0.0,0.0,0.0,0.0,0.0,0.0,0.0,0.0,0.0,0.0,0.0,0.0,0.0,0.0,0.0,0.0,0.0,0.0,0.0,0.0,0.0,0.0,0.0,0.0,0.0,0.0,0.0,0.0,0.0,0.0,0.0,0.0,0.0,0.0,0.0,0.0,0.0,0.0,0.0,0.0,0.0,0.0,0.0,0.0,0.0,0.0,0.0,0.0,0.0,0.0,0.0,0.0,0.0,0.0,0.0,0.0,0.0,0.0,0.0,0.0,0.0,0.0,0.0,0.0,0.0,0.0,0.0,0.0,0.0,0.0,0.0,0.0,0.0,0.0,0.0,0.0,0.0,0.0,0.0,0.0,0.0,0.0,0.0,0.0,0.0,0.0,0.0,0.0,0.0,0.0,0.0,0.0,0.0,0.0,1.1596,1.1596,1.1596,0.0,0.0,0.0,0.0,0.0,0.0,0.0,0.0,0.0,0.0,0.0,0.0,0.0,0.0,0.0,0.0,0.0,0.0,0.0,0.0,0.0,0.0,0.0,0.0,0.0,0.0,0.0,0.0,0.0,0.0,0.0,0.0,0.0,0.0,0.0,0.0,0.0,0.0,0.0,0.0,0.0,0.0,0.0,0.0,0.0,0.0,0.0,0.0,0.0,0.0,0.0,0.0,0.0,0.0,0.0,0.0,0.0,0.0,0.0,0.0,0.0,0.0,0.0,0.0,0.0,0.0,0.0,0.0,0.0,0.0,0.0,0.0,0.0,0.0,0.0,0.0,0.0,0.0,0.0,0.0,0.0,0.0,0.0,0.0,0.0,0.0,0.0,0.0,0.0,0.0,0.0,0.0,0.0,0.0,0.0,0.0,0.0,0.0,0.0,0.0,0.0,0.0,0.0,0.0,0.0,0.0,0.0,0.0,0.0,0.0,1.142,0.0,1.1927,1.1969,1.1829,1.1606,0.0,0.0,0.0,0.0,0.0,0.0,0.0,0.0,0.0,0.0,0.0,0.0,0.0,0.0,0.0,0.0,0.0,0.0,0.0,0.0,0.0,0.0,0.0,0.0,0.0,0.0,0.0,0.0,0.0,0.0,0.0,0.0,0.0,0.0,0.0,0.0,0.0,0.0,0.0,0.0,0.0,0.0,0.0,0.0,0.0,0.0,0.0,0.0,0.0,0.0,0.0,0.0,0.0,0.0,0.0,0.0,0.0,0.0,0.0,0.0,0.0,0.0,0.0,0.0,0.0,0.0,0.0,0.0,0.0,0.0,0.0,0.0,0.0,0.0,0.0,0.0,0.0,0.0,0.0,0.0,0.0,0.0,0.0,0.0,0.0,0.0,0.0,0.0,0.0,0.0,0.0,0.0,0.0,0.0,0.0,0.0,0.0,0.0,0.0,0.0,0.0,0.0,0.0,0.0,0.0,0.0,0.0,0.0,0.0,1.1985,1.1995,1.2807,1.2846,1.2455,0.0,0.0,0.0,0.0,0.0,0.0,0.0,0.0,0.0,0.0,0.0,0.0,0.0,0.0,0.0,0.0,0.0,0.0,0.0,0.0,0.0,0.0,0.0,0.0,0.0,0.0,0.0,0.0,0.0,0.0,0.0,0.0,0.0,0.0,0.0,0.0,0.0,0.0,0.0,0.0,0.0,0.0,0.0,0.0,0.0,0.0,0.0,0.0,0.0,0.0,0.0,0.0,0.0,0.0,0.0,0.0,0.0,0.0,0.0,0.0,0.0,0.0,0.0,0.0,0.0,0.0,0.0,0.0,0.0,0.0,0.0,0.0,0.0,0.0,0.0,0.0,0.0,0.0,0.0,0.0,0.0,0.0,0.0,0.0,0.0,0.0,0.0,0.0,0.0,0.0,0.0,0.0,0.0,0.0,0.0,0.0,0.0,0.0,0.0,0.0,0.0,0.0,0.0,0.0,0.0,0.0,0.0,0.0,0.0,1.1191,1.1479,1.2259,1.3574,1.2627,1.2171,0.0,0.0,0.0,0.0,0.0,0.0,0.0,0.0,0.0,0.0,0.0,0.0,0.0,0.0,0.0,0.0,0.0,0.0,0.0,0.0,0.0,0.0,0.0,0.0,0.0,0.0,0.0,0.0,0.0,0.0,0.0,0.0,0.0,0.0,0.0,0.0,0.0,0.0,0.0,0.0,0.0,0.0,0.0,0.0,0.0,0.0,0.0,0.0,0.0,0.0,0.0,0.0,0.0,0.0,0.0,0.0,0.0,0.0,0.0,0.0,0.0,0.0,0.0,0.0,0.0,0.0,0.0,0.0,0.0,0.0,0.0,0.0,0.0,0.0,0.0,0.0,0.0,0.0,0.0,0.0,0.0,0.0,0.0,0.0,0.0,0.0,0.0,0.0,0.0,0.0,0.0,0.0,0.0,0.0,0.0,0.0,0.0,0.0,0.0,0.0,0.0,0.0,0.0,0.0,0.0,0.0,0.0,0.0,0.0,1.0851,0.0,1.2832,0.0,1.2621,1.2025,0.0,0.0,0.0,0.0,0.0,0.0,0.0,0.0,0.0,0.0,0.0,0.0,0.0,0.0,0.0,0.0,0.0,0.0,0.0,0.0,0.0,0.0,0.0,0.0,0.0,0.0,0.0,0.0,0.0,0.0,0.0,0.0,0.0,0.0,0.0,0.0,0.0,0.0,0.0,0.0,0.0,0.0,0.0,0.0,0.0,0.0,0.0,0.0,0.0,0.0,0.0,0.0,0.0,0.0,0.0,0.0,0.0,0.0,0.0,0.0,0.0,0.0,0.0,0.0,0.0,0.0,0.0,0.0,0.0,0.0,0.0,0.0,0.0,0.0,0.0,0.0,0.0,0.0,0.0,0.0,0.0,0.0,0.0,0.0,0.0,0.0,0.0,0.0,0.0,0.0,0.0,0.0,0.0,0.0,0.0,0.0,0.0,0.0,0.0,0.0,0.0,0.0,0.0,0.0,0.0,0.0,0.0,0.0,0.0,1.1932,1.3284,1.3636,1.2964,1.2886,1.2083,0.0,0.0,0.0,0.0,0.0,0.0,0.0,0.0,0.0,0.0,0.0,0.0,0.0,0.0,0.0,0.0,0.0,0.0,0.0,0.0,0.0,0.0,0.0,0.0,0.0,0.0,0.0,0.0,0.0,0.0,0.0,0.0,0.0,0.0,0.0,0.0,0.0,0.0,0.0,0.0,0.0,0.0,0.0,0.0,0.0,0.0,0.0,0.0,0.0,0.0,0.0,0.0,0.0,0.0,0.0,0.0,0.0,0.0,0.0,0.0,0.0,0.0,0.0,0.0,0.0,0.0,0.0,0.0,0.0,0.0,0.0,0.0,0.0,0.0,0.0,0.0,0.0,0.0,0.0,0.0,0.0,0.0,0.0,0.0,0.0,0.0,0.0,0.0,0.0,0.0,0.0,0.0,0.0,0.0,0.0,0.0,0.0,0.0,0.0,0.0,0.0,0.0,0.0,0.0,0.0,0.0,0.0,0.0,0.0,1.1459,1.2639,1.3418,1.3665,1.2866,1.2324,0.0,0.0,0.0,0.0,0.0,0.0,0.0,0.0,0.0,0.0,0.0,0.0,0.0,0.0,0.0,0.0,0.0,0.0,0.0,0.0,0.0,0.0,0.0,0.0,0.0,0.0,0.0,0.0,0.0,0.0,0.0,0.0,0.0,0.0,0.0,0.0,0.0,0.0,0.0,0.0,0.0,0.0,0.0,0.0,0.0,0.0,0.0,0.0,0.0,0.0,0.0,0.0,0.0,0.0,0.0,0.0,0.0,0.0,0.0,0.0,0.0,0.0,0.0,0.0,0.0,0.0,0.0,0.0,0.0,0.0,0.0,0.0,0.0,0.0,0.0,0.0,0.0,0.0,0.0,0.0,0.0,0.0,0.0,0.0,0.0,0.0,0.0,0.0,0.0,0.0,0.0,0.0,0.0,0.0,0.0,0.0,0.0,0.0,0.0,0.0,0.0,0.0,0.0,0.0,0.0,0.0,0.0,0.0,0.0,1.1597,1.2932,1.3711,1.3837,1.3234,1.2817,1.2627,0.0,0.0,0.0,0.0,0.0,0.0,0.0,0.0,0.0,0.0,0.0,0.0,0.0,0.0,0.0,0.0,0.0,0.0,0.0,0.0,0.0,0.0,0.0,0.0,0.0,0.0,0.0,0.0,0.0,0.0,0.0,0.0,0.0,0.0,0.0,0.0,0.0,0.0,0.0,0.0,0.0,0.0,0.0,0.0,0.0,0.0,0.0,0.0,0.0,0.0,0.0,0.0,0.0,0.0,0.0,0.0,0.0,0.0,0.0,0.0,0.0,0.0,0.0,0.0,0.0,0.0,0.0,0.0,0.0,0.0,0.0,0.0,0.0,0.0,0.0,0.0,0.0,0.0,0.0,0.0,0.0,0.0,0.0,0.0,0.0,0.0,0.0,0.0,0.0,0.0,0.0,0.0,0.0,0.0,0.0,0.0,0.0,0.0,0.0,0.0,0.0,0.0,0.0,0.0,0.0,0.0,0.0,0.0,1.2198,1.4009,1.4486,1.356,1.3913,1.353,0.0,0.0,0.0,0.0,0.0,0.0,0.0,0.0,0.0,0.0,0.0,0.0,0.0,0.0,0.0,0.0,0.0,0.0,0.0,0.0,0.0,0.0,0.0,0.0,0.0,0.0,0.0,0.0,0.0,0.0,0.0,0.0,0.0,0.0,0.0,0.0,0.0,0.0,0.0,0.0,0.0,0.0,0.0,0.0,0.0,0.0,0.0,0.0,0.0,0.0,0.0,0.0,0.0,0.0,0.0,0.0,0.0,0.0,0.0,0.0,0.0,0.0,0.0,0.0,0.0,0.0,0.0,0.0,0.0,0.0,0.0,0.0,0.0,0.0,0.0,0.0,0.0,0.0,0.0,0.0,0.0,0.0,0.0,0.0,0.0,0.0,0.0,0.0,0.0,0.0,0.0,0.0,0.0,0.0,0.0,0.0,0.0,0.0,0.0,0.0,0.0,0.0,0.0,0.0,0.0,0.0,0.0,0.0,0.0,1.2026,1.4334,1.5274,1.4688,1.4486,1.3996,0.0,0.0,0.0,0.0,0.0,0.0,0.0,0.0,0.0,0.0,0.0,0.0,0.0,0.0,0.0,0.0,0.0,0.0,0.0,0.0,0.0,0.0,0.0,0.0,0.0,0.0,0.0,0.0,0.0,0.0,0.0,0.0,0.0,0.0,0.0,0.0,0.0,0.0,0.0,0.0,0.0,0.0,0.0,0.0,0.0,0.0,0.0,0.0,0.0,0.0,0.0,0.0,0.0,0.0,0.0,0.0,0.0,0.0,0.0,0.0,0.0,0.0,0.0,0.0,0.0,0.0,0.0,0.0,0.0,0.0,0.0,0.0,0.0,0.0,0.0,0.0,0.0,0.0,0.0,0.0,0.0,0.0,0.0,0.0,0.0,0.0,0.0,0.0,0.0,0.0,0.0,0.0,0.0,0.0,0.0,0.0,0.0,0.0,0.0,0.0,0.0,0.0,0.0,0.0,0.0,0.0,0.0,0.0,1.1523,1.2261,1.3966,1.4861,1.4803,1.5579,1.5369,0.0,0.0,0.0,0.0,0.0,0.0,0.0,0.0,0.0,0.0,0.0,0.0,0.0,0.0,0.0,0.0,0.0,0.0,0.0,0.0,0.0,0.0,0.0,0.0,0.0,0.0,0.0,0.0,0.0,0.0,0.0,0.0,0.0,0.0,0.0,0.0,0.0,0.0,0.0,0.0,0.0,0.0,0.0,0.0,0.0,0.0,0.0,0.0,0.0,0.0,0.0,0.0,0.0,0.0,0.0,0.0,0.0,0.0,0.0,0.0,0.0,0.0,0.0,0.0,0.0,0.0,0.0,0.0,0.0,0.0,0.0,0.0,0.0,0.0,0.0,0.0,0.0,0.0,0.0,0.0,0.0,0.0,0.0,0.0,0.0,0.0,0.0,0.0,0.0,0.0,0.0,0.0,0.0,0.0,0.0,0.0,0.0,0.0,0.0,0.0,0.0,0.0,0.0,0.0,0.0,0.0,0.0,0.0,1.1951,1.2857,1.3507,1.4033,1.4555,1.6605,1.6812,0.0,0.0,0.0,0.0,0.0,0.0,0.0,0.0,0.0,0.0,0.0,0.0,0.0,0.0,0.0,0.0,0.0,0.0,0.0,0.0,0.0,0.0,0.0,0.0,0.0,0.0,0.0,0.0,0.0,0.0,0.0,0.0,0.0,0.0,0.0,0.0,0.0,0.0,0.0,0.0,0.0,0.0,0.0,0.0,0.0,0.0,0.0,0.0,0.0,0.0,0.0,0.0,0.0,0.0,0.0,0.0,0.0,0.0,0.0,0.0,0.0,0.0,0.0,0.0,0.0,0.0,0.0,0.0,0.0,0.0,0.0,0.0,0.0,0.0,0.0,0.0,0.0,0.0,0.0,0.0,0.0,0.0,0.0,0.0,0.0,0.0,0.0,0.0,0.0,0.0,0.0,0.0,0.0,0.0,0.0,0.0,0.0,0.0,0.0,0.0,0.0,0.0,0.0,0.0,0.0,0.0,0.0,0.0,1.2552,1.3427,1.4638,1.524,1.5249,1.5697,1.5532,0.0,0.0,0.0,0.0,0.0,0.0,0.0,0.0,0.0,0.0,0.0,0.0,0.0,0.0,0.0,0.0,0.0,0.0,0.0,0.0,0.0,0.0,0.0,0.0,0.0,0.0,0.0,0.0,0.0,0.0,0.0,0.0,0.0,0.0,0.0,0.0,0.0,0.0,0.0,0.0,0.0,0.0,0.0,0.0,0.0,0.0,0.0,0.0,1.3778,0.0,0.0,0.0,0.0,0.0,0.0,0.0,0.0,0.0,0.0,0.0,0.0,0.0,0.0,0.0,0.0,0.0,0.0,0.0,0.0,0.0,0.0,0.0,0.0,0.0,0.0,0.0,0.0,0.0,0.0,0.0,0.0,0.0,0.0,0.0,0.0,0.0,0.0,0.0,0.0,0.0,0.0,0.0,0.0,0.0,0.0,0.0,0.0,0.0,0.0,0.0,0.0,0.0,0.0,0.0,0.0,0.0,0.0,0.0,1.3093,1.3828,1.4706,1.5113,1.5036,1.5018,1.4948,0.0,0.0,0.0,0.0,0.0,0.0,0.0,0.0,0.0,0.0,0.0,0.0,0.0,0.0,0.0,0.0,0.0,0.0,0.0,0.0,0.0,0.0,0.0,0.0,0.0,0.0,0.0,0.0,0.0,0.0,0.0,0.0,0.0,0.0,0.0,0.0,0.0,0.0,0.0,0.0,0.0,0.0,0.0,0.0,0.0,0.0,0.0,0.0,0.0,0.0,0.0,0.0,0.0,0.0,0.0,0.0,0.0,0.0,0.0,0.0,0.0,0.0,0.0,0.0,0.0,0.0,0.0,0.0,0.0,0.0,0.0,0.0,0.0,0.0,0.0,0.0,0.0,0.0,0.0,0.0,0.0,0.0,0.0,0.0,0.0,0.0,0.0,0.0,0.0,0.0,0.0,0.0,0.0,0.0,0.0,0.0,0.0,0.0,0.0,0.0,0.0,0.0,0.0,0.0,0.0,0.0,0.0,1.2572,1.3581,1.4322,1.4556,1.4693,1.4892,1.4744,1.4864,1.5268,0.0,0.0,0.0,0.0,0.0,0.0,0.0,0.0,0.0,0.0,0.0,0.0,0.0,0.0,0.0,0.0,0.0,0.0,0.0,0.0,0.0,0.0,0.0,0.0,0.0,0.0,0.0,0.0,0.0,0.0,0.0,0.0,0.0,0.0,0.0,0.0,0.0,0.0,1.1699,1.4219,0.0,0.0,0.0,0.0,0.0,0.0,0.0,0.0,1.5387,0.0,0.0,0.0,0.0,0.0,0.0,0.0,0.0,0.0,0.0,0.0,0.0,0.0,0.0,0.0,0.0,0.0,0.0,0.0,0.0,0.0,0.0,0.0,0.0,0.0,0.0,0.0,0.0,0.0,0.0,0.0,0.0,0.0,0.0,0.0,0.0,0.0,0.0,0.0,0.0,0.0,0.0,0.0,0.0,0.0,0.0,0.0,0.0,0.0,0.0,0.0,0.0,0.0,0.0,0.0,0.0,1.2806,1.3086,1.3968,1.5491,1.5351,1.5693,1.6533,1.5551,1.5402,1.6086,0.0,0.0,0.0,0.0,0.0,0.0,0.0,0.0,0.0,0.0,0.0,0.0,0.0,0.0,0.0,0.0,0.0,0.0,0.0,0.0,0.0,0.0,0.0,0.0,0.0,0.0,0.0,0.0,0.0,0.0,0.0,0.0,0.0,0.0,0.0,0.0,0.0,0.0,0.0,1.5287,1.6749,0.0,0.0,0.0,0.0,0.0,0.0,0.0,0.0,1.4614,0.0,0.0,0.0,0.0,0.0,0.0,0.0,0.0,0.0,0.0,0.0,0.0,0.0,0.0,0.0,0.0,0.0,0.0,0.0,0.0,0.0,0.0,0.0,0.0,0.0,0.0,0.0,0.0,0.0,0.0,0.0,0.0,0.0,0.0,0.0,0.0,0.0,0.0,0.0,0.0,0.0,0.0,0.0,0.0,0.0,0.0,0.0,0.0,0.0,0.0,0.0,0.0,0.0,0.0,0.0,1.2931,1.3728,1.475,1.5999,1.5772,1.577,1.6123,1.5249,1.4996,0.0,0.0,0.0,0.0,0.0,0.0,0.0,0.0,0.0,0.0,0.0,0.0,0.0,0.0,0.0,0.0,0.0,0.0,0.0,0.0,0.0,0.0,0.0,0.0,0.0,0.0,0.0,0.0,0.0,0.0,0.0,0.0,0.0,0.0,0.0,0.0,0.0,0.0,0.0,0.0,1.563,1.683,1.6705,0.0,0.0,0.0,0.0,0.0,0.0,1.6182,1.5444,0.0,0.0,0.0,0.0,0.0,0.0,0.0,0.0,0.0,0.0,0.0,0.0,0.0,0.0,0.0,0.0,0.0,0.0,0.0,0.0,0.0,0.0,0.0,0.0,0.0,0.0,0.0,0.0,0.0,0.0,0.0,0.0,0.0,0.0,0.0,0.0,0.0,0.0,0.0,0.0,0.0,0.0,0.0,0.0,0.0,0.0,0.0,0.0,0.0,0.0,0.0,0.0,0.0,0.0,0.0,1.2871,1.4224,1.5377,1.6213,1.6039,1.5846,1.5693,1.5019,1.4706,0.0,0.0,0.0,0.0,0.0,0.0,0.0,0.0,0.0,0.0,0.0,0.0,0.0,0.0,0.0,0.0,0.0,0.0,0.0,0.0,0.0,0.0,0.0,0.0,0.0,0.0,0.0,0.0,0.0,0.0,0.0,0.0,0.0,0.0,0.0,0.0,0.0,0.0,0.0,0.0,0.0,1.6818,1.7275,1.6733,0.0,0.0,0.0,0.0,1.6899,1.6796,0.0,0.0,0.0,0.0,0.0,0.0,0.0,0.0,0.0,0.0,0.0,0.0,0.0,0.0,0.0,0.0,0.0,0.0,0.0,0.0,0.0,0.0,0.0,0.0,0.0,0.0,0.0,0.0,0.0,0.0,0.0,0.0,0.0,0.0,0.0,0.0,0.0,0.0,0.0,0.0,0.0,0.0,0.0,0.0,0.0,0.0,0.0,0.0,0.0,0.0,0.0,0.0,0.0,0.0,0.0,0.0,1.312,1.4088,1.5124,1.6248,1.6288,1.6422,1.6768,1.5889,1.5316,0.0,0.0,0.0,0.0,0.0,0.0,0.0,0.0,0.0,0.0,0.0,0.0,0.0,0.0,0.0,0.0,0.0,0.0,0.0,0.0,0.0,0.0,0.0,0.0,0.0,0.0,0.0,0.0,0.0,0.0,0.0,0.0,0.0,0.0,0.0,0.0,0.0,0.0,0.0,0.0,0.0,1.6946,1.5604,1.5786,1.6037,0.0,0.0,0.0,1.6737,1.695,0.0,0.0,0.0,0.0,0.0,0.0,0.0,0.0,0.0,0.0,0.0,0.0,0.0,0.0,0.0,0.0,0.0,0.0,0.0,0.0,0.0,0.0,0.0,0.0,0.0,0.0,0.0,0.0,0.0,0.0,0.0,0.0,0.0,0.0,0.0,0.0,0.0,0.0,0.0,0.0,0.0,0.0,0.0,0.0,0.0,0.0,0.0,0.0,0.0,0.0,0.0,0.0,0.0,0.0,0.0,1.1844,1.3387,1.4489,1.5511,1.6466,1.6359,1.6218,1.6067,1.5998,1.5343,0.0,0.0,0.0,0.0,0.0,0.0,0.0,0.0,0.0,0.0,0.0,0.0,0.0,0.0,0.0,0.0,0.0,0.0,0.0,0.0,0.0,0.0,0.0,0.0,0.0,0.0,0.0,0.0,0.0,0.0,0.0,0.0,0.0,0.0,0.0,0.0,0.0,0.0,0.0,0.0,0.0,0.0,1.5972,1.6115,0.0,0.0,0.0,1.6444,1.6955,0.0,0.0,0.0,0.0,0.0,0.0,0.0,0.0,0.0,0.0,0.0,0.0,0.0,0.0,0.0,0.0,0.0,0.0,0.0,0.0,0.0,0.0,0.0,0.0,0.0,0.0,0.0,0.0,0.0,0.0,0.0,0.0,0.0,0.0,0.0,0.0,0.0,0.0,0.0,0.0,0.0,0.0,0.0,0.0,0.0,0.0,0.0,0.0,0.0,0.0,0.0,0.0,0.0,0.0,0.0,0.0,0.0,1.3473,1.4689,1.5678,1.6446,1.6273,1.5885,1.5336,1.5606,0.0,0.0,0.0,0.0,0.0,0.0,0.0,0.0,0.0,0.0,0.0,0.0,0.0,0.0,0.0,0.0,0.0,0.0,0.0,0.0,0.0,0.0,0.0,0.0,0.0,0.0,0.0,0.6076,0.0,0.0,0.0,0.0,0.0,0.0,0.0,0.0,0.0,0.0,0.0,0.0,0.0,0.0,1.5863,1.6185,1.6403,1.667,0.0,0.0,1.6629,1.6875,1.7198,1.6743,0.0,0.0,0.0,0.0,0.0,0.0,0.0,0.0,0.0,0.0,0.0,0.0,0.0,0.0,0.0,0.0,0.0,0.0,0.0,0.0,0.0,0.0,0.0,0.0,0.0,0.0,0.0,0.0,0.0,0.0,0.0,0.0,0.0,0.0,0.0,0.0,0.0,0.0,0.0,0.0,0.0,0.0,0.0,0.0,0.0,0.0,0.0,0.0,0.0,0.0,0.0,0.0,0.0,0.0,0.0,1.3227,1.4396,1.5291,1.5865,1.5824,1.5585,1.5003,1.4505,1.3689,0.0,0.0,0.0,0.0,0.0,0.0,0.0,0.0,0.0,0.0,0.0,0.0,0.0,0.0,0.0,0.0,0.0,0.0,0.0,0.0,0.0,0.0,0.0,0.0,0.0,0.0,0.0,0.0,0.0,0.0,0.0,0.0,0.0,0.0,0.0,0.0,0.0,0.0,0.0,0.0,0.0,1.5439,1.5459,1.6174,1.6682,0.0,0.0,1.6576,1.6214,1.6776,1.6524,1.4547,0.0,0.0,0.0,0.0,0.0,0.0,0.0,0.0,0.0,0.0,0.0,0.0,0.0,0.0,0.0,0.0,0.0,0.0,0.0,0.0,0.0,0.0,0.0,0.0,0.0,0.0,0.0,0.0,0.0,0.0,0.0,0.0,0.0,0.0,0.0,0.0,0.0,0.0,0.0,0.0,0.0,0.0,0.0,0.0,0.0,0.0,0.0,0.0,0.0,0.0,0.0,0.0,0.0,1.1981,1.3206,1.4412,1.5244,1.5798,1.5825,1.5551,1.5028,1.497,1.4022,0.0,0.0,0.0,0.0,0.0,0.0,0.0,0.0,0.0,0.0,0.0,0.0,0.0,0.0,0.0,0.0,0.0,0.0,0.0,0.0,0.0,0.0,0.0,0.0,0.0,0.0,0.0,0.0,0.7719,0.7656,0.7388,0.0,0.0,0.0,0.0,0.0,0.0,0.0,0.0,0.0,0.0,1.5908,1.6161,1.6738,0.0,0.0,1.7139,1.708,1.6936,1.6901,1.6447,1.5161,1.4844,0.0,0.0,0.0,0.0,0.0,0.0,0.0,0.0,0.0,0.0,0.0,0.0,0.0,0.0,0.0,0.0,0.0,0.0,0.0,0.0,0.0,0.0,0.0,0.0,0.0,0.0,0.0,0.0,0.0,0.0,0.0,0.0,0.0,0.0,0.0,0.0,0.0,0.0,0.0,0.0,0.0,0.0,0.0,0.0,0.0,0.0,0.0,0.0,0.0,0.0,0.0,0.0,1.1981,1.32,1.4362,1.5244,1.5764,1.5825,1.5591,1.5149,1.5196,1.427,0.0,0.0,0.0,0.0,0.0,0.0,0.0,0.0,0.0,0.0,0.0,0.0,0.0,0.0,0.0,0.0,0.0,0.0,0.0,0.0,0.0,0.0,0.0,0.0,0.0,0.0,0.0,0.0,0.8445,0.8072,0.7623,0.0,0.0,0.0,0.0,0.0,0.0,0.0,0.0,0.0,0.0,1.63,1.6846,1.7295,1.7568,1.7578,1.7461,1.7376,1.7207,1.6902,1.6356,1.5391,0.0,0.0,0.0,0.0,0.0,0.0,0.0,0.0,0.0,0.0,0.0,0.0,0.0,0.0,0.0,0.0,0.0,0.0,0.0,0.0,0.0,0.0,0.0,0.0,0.0,0.0,0.0,0.0,0.0,0.0,0.8831,0.0,0.0,0.0,0.0,0.0,0.0,0.0,0.0,0.0,0.0,0.0,0.0,0.0,0.0,0.0,0.0,0.0,0.0,0.0,0.0,0.0,0.0,0.0,1.32,1.4362,1.5244,1.5805,1.5825,1.5638,1.5378,1.4816,1.4088,1.316,0.0,0.0,0.0,0.0,0.0,0.0,0.0,0.0,0.0,0.0,0.0,0.0,0.0,0.0,0.0,0.0,0.0,0.0,0.0,0.0,0.0,0.0,0.0,0.0,0.0,0.0,0.9517,0.886,0.8189,0.0,0.0,0.0,0.0,0.0,0.0,0.0,0.0,0.0,0.0,1.5547,1.6427,1.7246,1.7725,1.7978,1.7978,1.7646,1.7246,1.6846,1.6716,1.6258,0.0,0.0,0.0,0.0,0.0,0.0,0.0,0.0,0.0,0.0,0.0,0.0,0.0,0.0,0.0,0.0,0.0,0.0,0.0,0.0,0.0,0.0,0.0,0.0,0.0,0.0,0.0,1.0894,1.0421,0.0,0.0,0.0,0.0,0.0,0.0,0.0,0.0,0.0,0.0,0.0,1.2625,1.2874,0.0,0.0,0.0,0.0,0.0,0.0,0.0,0.0,0.0,0.0,0.0,0.0,1.2211,1.3213,1.4369,1.5251,1.5805,1.5825,1.5691,1.5398,1.4823,1.3828,1.2402,0.0,0.0,0.0,0.0,0.0,0.0,0.0,0.0,0.0,0.0,0.0,0.0,0.0,0.0,0.0,0.0,0.0,0.0,0.0,0.0,0.0,0.0,0.0,0.0,0.0,0.8889,0.0,0.0,0.0,0.0,0.0,0.0,0.0,0.0,0.0,0.0,0.0,1.4512,1.5527,1.6427,1.7148,1.7725,1.792,1.8008,0.0,0.0,0.0,0.0,0.0,0.0,0.0,0.0,0.0,0.0,0.0,0.0,0.0,0.0,1.6402,1.5257,1.4891,1.4965,1.5575,0.0,0.0,0.0,0.0,0.0,0.0,0.0,0.0,0.0,0.0,0.0,0.0,0.0,0.0,0.0,0.0,1.1543,0.0,0.0,0.0,0.0,0.0,0.0,0.0,0.0,1.3073,1.3634,1.3828,1.4115,1.4102,0.0,1.3414,1.2579,0.0,0.0,0.0,0.0,0.0,0.0,0.0,0.0,1.2512,1.3514,1.4613,1.5344,1.5798,1.5825,1.5691,1.5538,1.4877,1.3781,1.2261,1.1558,1.1062,0.0,0.0,0.0,0.0,0.0,0.0,0.0,0.0,0.0,0.0,0.0,0.0,0.0,0.0,0.0,0.0,0.0,0.0,0.0,0.0,0.0,0.0,0.0,0.927,0.0,0.0,0.0,0.0,0.0,0.0,0.0,0.0,0.0,1.3451,1.4385,1.541,1.6427,1.7054,1.7529,1.7959,0.0,0.0,0.0,0.0,0.0,0.0,0.0,1.7408,1.7578,1.7246,1.6855,1.6604,1.6672,1.6878,1.7195,0.0,0.0,1.6328,1.6012,1.6223,1.7315,1.8118,1.8598,1.8556,1.9233,1.9786,0.0,0.0,0.0,0.0,0.0,0.0,0.0,0.0,1.3038,1.3065,0.0,1.2665,0.0,0.0,0.0,0.0,0.0,0.0,0.0,0.0,1.4997,1.5531,1.5102,1.5304,1.533,1.5068,1.5035,1.4536,1.3593,1.1977,0.0,0.0,0.0,0.0,0.0,0.0,1.2926,1.4075,1.495,1.5531,1.5812,1.5825,1.5818,1.5718,1.4977,1.3981,1.2878,1.2465,1.1657,1.0267,1.0127,0.0,0.0,0.0,0.0,0.0,0.0,0.0,0.0,0.0,0.0,0.0,0.0,0.0,0.0,0.0,0.0,0.0,0.0,0.0,0.0,1.0478,0.0,0.0,0.0,0.0,0.0,0.0,0.0,0.0,0.0,0.0,1.4902,1.5225,1.5907,1.7197,0.0,0.0,0.0,0.0,1.8159,1.8568,1.8286,1.8203,1.8559,1.8598,1.8451,1.8125,0.0,0.0,1.7578,1.7773,1.791,1.7553,1.7537,1.7763,1.8694,1.832,1.8254,1.9095,1.9285,1.9686,2.0444,2.0834,2.1285,1.5311,0.0,0.0,0.0,0.0,1.4102,1.4543,1.5378,1.507,1.4763,1.4492,1.4325,0.0,0.0,0.0,0.0,0.0,0.0,1.4168,1.4796,1.5458,1.5959,1.6213,1.6293,1.6286,1.6199,1.5999,1.5658,1.5132,1.4275,1.2886,1.1089,0.0,0.0,0.0,0.0,1.36,1.4389,1.505,1.5538,1.5825,1.5825,1.5631,1.5224,1.5015,1.4382,1.3414,1.2893,1.2368,1.169,1.0675,0.0,0.0,0.0,0.0,0.0,0.0,0.0,0.0,0.0,0.0,0.0,0.0,0.0,0.0,0.0,0.0,0.0,0.0,0.0,0.8458,0.9736,1.0221,0.0,0.0,0.0,0.0,0.0,0.0,0.0,0.0,0.0,1.6811,1.6307,1.6164,0.0,0.0,1.7535,1.8298,1.8721,1.8965,1.9092,0.0,0.0,0.0,1.8838,1.8666,1.8887,1.9023,1.9014,1.8779,1.8838,1.8887,1.875,1.874,1.8868,1.9032,1.8455,1.8242,1.8869,1.9335,1.9663,1.9959,2.0461,2.0869,1.7161,1.6019,1.5144,1.505,1.5458,1.5291,1.5685,1.6426,1.6132,1.5932,1.5859,1.5631,1.5023,1.4235,1.3881,0.0,0.0,0.0,1.513,1.5758,1.6159,1.654,1.6881,1.7001,1.6994,1.6924,1.6757,1.6466,1.6166,1.5712,1.4649,1.3039,0.0,0.0,1.2474,1.344,1.4239,1.4856,1.5324,1.5651,1.5825,1.5825,1.5551,1.5042,1.5015,1.4549,1.3633,1.3293,1.2852,1.2325,1.1463,1.0609,0.0,0.0,0.0,0.0,0.0,0.0,0.0,0.0,0.0,0.0,0.0,0.8345,0.0,0.0,0.0,0.0,0.8725,0.9237,0.9836,1.0756,0.0,0.0,0.0,0.0,0.0,0.0,0.0,1.4635,1.5317,1.6255,1.7979,1.7316,1.7042,1.8032,1.8062,1.8231,1.8789,0.0,1.9346,1.9512,1.9541,1.959,1.9766,1.957,1.9492,1.9783,1.9795,1.9832,1.9832,1.9795,1.9832,1.9813,1.9658,1.9531,1.9531,1.8909,1.8776,1.9885,1.9919,1.9985,2.0708,2.1032,2.1101,1.8764,1.8377,1.6734,1.6206,1.6489,1.6496,1.66,1.682,1.654,1.675,1.7186,1.6643,1.6179,1.5845,1.5005,0.0,0.0,1.5691,1.6086,1.64,1.6985,1.7239,1.7253,1.7507,1.7442,1.7239,1.7233,1.7092,1.6767,1.6529,1.6072,1.5518,1.4436,1.3946,1.4195,1.4502,1.4937,1.5491,1.5765,1.5838,1.5865,1.5791,1.5551,1.5028,1.5015,1.4606,1.3686,1.3586,1.3187,1.2425,1.2305,1.1637,1.0261,0.0,0.0,0.0,0.0,0.0,0.0,0.0,0.0,0.0,0.0,0.0,0.0,0.0,0.0,0.0,1.1402,0.0,1.2769,1.2797,0.0,0.0,0.0,1.1738,1.2593,1.3571,1.4625,1.578,0.0,0.0,0.0,0.0,1.8397,1.9275,1.9319,1.9263,1.9336,1.9394,1.9521,1.9922,1.9961,2.0107,2.0449,2.0517,2.0498,2.0517,2.0615,2.0556,2.0556,2.0556,2.0586,2.0556,2.0234,1.9961,1.9961,1.9637,1.9938,2.1583,2.0812,2.0354,2.1694,2.1777,2.149,1.8878,1.8764,1.8123,1.7903,1.7963,1.7963,1.8003,1.8036,1.7736,1.7555,1.7455,1.7152,1.6774,1.648,1.6279,1.6346,1.669,1.6824,1.6994,1.7275,1.746,1.7527,1.7482,1.7555,1.7549,1.7482,1.7475,1.7442,1.7368,1.7132,1.6924,1.6764,1.6226,1.5678,1.513,1.5598,1.6032,1.6386,1.6466,1.6386,1.6166,1.5898,1.5558,1.5028,1.5015,1.47,1.4001,1.3547,1.3213,1.2954,1.2338,1.161,1.0822,0.996,0.0,0.0,0.0,0.0,0.0,0.0,0.0,0.0,0.0,0.9537,0.8267,0.0,1.0681,0.0,1.2408,1.2909,1.2357,1.3055,0.0,0.0,1.3529,1.3978,1.5962,1.5826,1.6192,1.7739,1.822,1.8734,1.9475,1.9511,1.9619,2.0205,1.9393,1.892,1.9616,2.0087,2.0331,2.0419,2.04,2.0488,2.0576,2.0615,2.0615,2.0615,2.0615,2.0615,2.0615,2.0615,2.0615,2.0605,2.0527,2.0449,2.04,2.0351,2.0701,2.1623,2.0648,1.9543,2.0022,2.0035,2.0139,1.9506,1.9486,1.9192,1.9072,1.9045,1.8664,1.8497,1.8477,1.8303,1.8136,1.7969,1.7682,1.7455,1.7301,1.7161,1.7181,1.7387,1.7393,1.7481,1.7635,1.7589,1.7589,1.7589,1.7589,1.7589,1.7589,1.7589,1.7589,1.7575,1.7422,1.7393,1.7387,1.7174,1.6854,1.6393,1.6433,1.6547,1.67,1.6707,1.6567,1.6328,1.6112,1.5691,1.5048,1.5015,1.4623,1.3921,1.3574,1.322,1.2812,1.2325,1.179,1.1209,1.0481,0.9829,0.0,0.0,0.0,0.0,0.0,0.0,0.0,0.0,0.0,0.0,0.0,1.0928,0.0,1.241,0.0,1.2437,1.3369,1.4101,1.434,1.4694,1.5562,1.7061,1.722,1.7738,1.902,1.9163,1.9463,2.0107,2.0215,2.0283,2.0576,1.9918,1.9611,2.01,2.042,2.0615,2.0615,2.0615,2.0615,2.0615,2.0615,2.0615,2.0615,2.0615,2.0615,2.0615,2.0615,2.0615,2.0615,2.0615,2.0615,2.0615,2.0615,2.0789,2.1056,2.0594,2.0039,2.0179,2.005,2.0088,2.0173,2.0207,1.996,1.986,1.9793,1.8991,1.8637,1.8597,1.8557,1.8531,1.8477,1.8217,1.8055,1.8029,1.7822,1.7695,1.7749,1.7662,1.7642,1.7635,1.7602,1.7589,1.7589,1.7589,1.7589,1.7589,1.7589,1.7589,1.7589,1.7589,1.7589,1.7589,1.7589,1.7589,1.7562,1.7074,1.682,1.682,1.678,1.662,1.6339,1.6342,1.5899,1.5062,1.4968,1.4509,1.3646,1.3567,1.3167,1.2418,1.2358,1.2091,1.1475,1.0969,1.0553,0.0,0.963,0.0,0.0,0.0,0.0,0.0,0.0,0.0,0.0,1.1068,1.113,1.0585,1.241,1.3493,1.3209,1.4177,1.4862,1.4905,1.6,1.6918,1.7352,1.8209,1.9065,1.9912,2.0,2.0156,2.0527,2.0615,2.0605,2.0605,2.0547,2.0489,2.0595,2.0595,2.0615,2.0615,2.0615,2.0615,2.0615,2.0615,2.0615,2.0615,2.0615,2.0615,2.0615,2.0615,2.0615,2.0615,2.0615,2.0615,2.0615,2.0615,2.0615,2.0644,2.0595,2.065,2.0978,2.0824,2.0658,2.0173,2.0227,2.0113,2.0147,2.0114,1.9726,1.9419,1.9243,1.8945,1.8711,1.849,1.843,1.841,1.8404,1.8343,1.8317,1.8303,1.807,1.7902,1.7896,1.7695,1.7589,1.7589,1.7589,1.7589,1.7589,1.7589,1.7589,1.7589,1.7589,1.7589,1.7589,1.7589,1.7589,1.7582,0.0,0.0,0.0,1.7239,1.6971,1.6627,1.6393,1.5852,1.5048,1.473,0.0,1.3633,1.338,1.31,1.273,1.2697,0.0,0.0,0.0,0.0,0.0,0.0,0.0,0.0,0.0,0.0,0.0,1.1377,1.1514,1.1593,1.2852,1.3432,1.2972,1.4671,1.5773,1.5713,1.6956,1.7776,1.7795,1.8333,1.8908,1.9303,1.9519,1.9883,2.041,2.0478,2.0469,2.0586,2.0615,2.0615,2.0615,2.0615,2.0615,2.0615,2.0615,2.0615,2.0615,2.0615,2.0615,2.0615,2.0615,2.0615,2.0615,2.0615,2.0615,2.0615,2.0615,2.0615,2.0615,2.0615,2.0615,2.0615,2.0615,2.0615,2.0615,2.0615,2.0615,2.0719,2.0678,2.0799,2.0661,0.0,2.0508,2.0448,0.0,2.014,1.9933,1.9766,1.9332,1.9058,1.8911,1.8771,1.8711,1.8698,1.8557,1.8497,1.8484,1.833,1.8215,1.825,1.7956,1.7816,1.7802,1.7655,1.7589,1.7589,1.7589,1.7589,1.7589,1.7589,1.7589,1.7589,1.7589,1.7589,1.7589,1.7589,1.7589,1.7589,1.7487,1.7273,1.6978,1.6633,1.6139,1.5418,0.0,0.0,0.0,0.0,0.0,0.0,0.0,0.0,0.0,0.0,0.0,1.1864,1.173,1.1577,1.1436,1.1591,1.1799,1.2058,1.2395,1.2394,1.2072,1.2969,1.3441,1.32,1.4164,1.4813,1.4828,1.5608,1.6122,1.6177,1.6944,1.7804,1.8527,1.9118,1.9773,2.0469,2.0615,2.0615,2.0615,2.0615,2.0615,2.0615,2.0615,2.0615,2.0615,2.0615,2.0615,2.0615,2.0615,2.0615,2.0615,2.0615,2.0615,2.0615,2.0615,2.0615,2.0615,2.0615,2.0615,2.0615,2.0615,2.0615,2.0615,2.0615,2.0615,2.0615,2.0615,2.0615,2.0615,2.0615,2.0702,2.1102,2.1082,2.0855,2.0755,2.0728,2.0434,2.0287,2.0194,0.0,0.0,0.0,1.9105,1.9005,1.8985,1.8751,1.8644,1.8644,1.8591,1.8571,1.8551,1.821,1.7989,1.7975,1.7729,1.7589,1.7589,1.7589,1.7589,1.7589,1.7589,1.7589,1.7589,1.7589,1.7589,1.7589,1.7589,1.7589,1.7589,1.7589,1.7494,1.7206,1.686,1.6377,1.5798,1.5271,1.4754,1.4182,1.3893,1.3367,1.2599,1.2592,1.2572,1.2472,1.2465,1.2685,1.3166,1.3253,1.318,1.2965,1.3038,1.3119,1.3172,1.3373,1.3247,1.2592,1.2851,1.3045,1.3092,1.3533,1.383,1.379,1.4444,1.4633,1.4441,1.5628,1.6824,1.745,1.8267,1.9191,2.0012,2.0099,2.0231,2.034,2.034,2.0479,2.0586,2.0615,2.0615,2.0615,2.0615,2.0615,2.0615,2.0615,2.0615,2.0615,2.0615,2.0615,2.0615,2.0615,2.0615,2.0615,2.0615,2.0615,2.0615,2.0615,2.0615,2.0615,2.0615,2.0615,2.0615,2.0615,2.0615,2.0615,2.0615,2.0605,2.1102,2.1102,2.1062,2.1049,2.1022,2.0735,2.0468,2.0207,1.988,1.9599,1.9417,1.9383,1.9363,1.9305,1.9259,1.9303,1.9283,1.8978,1.8865,0.0,1.8249,1.7989,1.7975,1.7729,1.7589,1.7589,1.7589,1.7589,1.7589,1.7589,1.7589,1.7589,1.7589,1.7589,1.7589,1.7589,1.7589,1.7589,1.7589,1.7494,1.7206,1.686,1.6426,1.5798,1.5323,1.4854,1.4469,1.4416,1.4066,1.346,1.3701,1.3614,1.3126,1.3086,1.312,1.3213,1.3407,1.352,1.3493,1.3981,1.4382,1.4666,1.4733,1.4362,1.3513,1.3728,1.4001,1.4285,1.5283,1.6103,1.624,1.7677,1.8237,1.7597,1.8549,1.9057,1.814,1.8191,1.8472,1.8718,1.8514,1.8953,1.9679,1.9747,2.0,2.0439,2.0546,2.0615,2.0654,2.0615,2.0615,2.0615,2.0615,2.0615,2.0654,2.0615,2.0615,2.0615,2.0615,2.0615,2.0615,2.0615,2.0615,2.0615,2.0615,2.0615,2.0615,2.0615,2.0615,2.0615,2.0615,2.0615,2.0615,2.0615,2.0615,2.1102,2.1102,2.1102,2.1102,2.1096,2.0969,2.0742,2.0474,2.0334,2.002,1.9613,1.9599,1.9519,1.943,1.9424,1.9424,1.9417,1.9225,1.9165,1.9132,1.8661,1.8437,1.8277,1.7976,1.7742,1.7595,1.7589,1.7589,1.7589,1.7589,1.7589,1.7589,1.7589,1.7589,1.7589,1.7589,1.7589,1.7589,1.7589,1.7522,1.7388,1.7146,1.6814,1.654,1.5832,1.5371,1.5231,1.493,1.4563,1.4093,1.4242,1.4202,1.3941,1.3921,1.3995,1.4148,1.4289,1.4362,1.4355,1.4609,1.4816,1.4995,1.5015,1.4847,1.4396,1.4482,1.4623,1.4794,1.541,1.5732,1.5732,1.669,1.7077,1.6521,1.699,1.7288,1.7419,1.7983,1.8544,1.9136,1.98,2.0336,2.0711,2.0765,2.0503,2.0401,2.0292,2.0504,2.1179,2.13,2.1182,2.0957,2.0732,2.0693,2.0859,2.0713,2.0635,2.0615,2.0615,2.0615,2.0615,2.0615,2.0615,2.0615,2.0615,2.0615,2.0615,2.0615,2.0615,2.0615,2.0615,2.0615,2.0615,2.0615,2.0615,2.1169,2.1102,2.1102,2.1102,2.1102,2.1102,2.0975,2.0782,2.0775,2.0481,2.0034,1.9927,1.974,1.9537,1.9466,1.9484,1.943,1.9424,1.9424,1.9397,1.9065,1.8798,1.8564,1.8169,1.7869,1.7695,1.7615,1.7589,1.7589,1.7589,1.7589,1.7589,1.7589,1.7589,1.7589,1.7589,1.7589,1.7589,1.7589,1.7589,1.7575,1.7347,1.7199,1.7146,1.642,1.5992,1.5912,1.5498,1.509,1.475,1.4716,1.4689,1.4629,1.4623,1.4723,1.4981,1.5068,1.5097,1.5157,1.5157,1.5202,1.5157,1.5157,1.5202,1.5202,1.5157,1.5124,1.5122,1.5182,1.5223,1.532,1.5579,1.552,1.5248,1.5468,1.5986,1.6423,1.7255,1.8085,1.9038,2.0143,2.0845,2.1184,2.1459,2.1309,2.0676,2.0433,2.0871,2.1709,2.1936,2.1748,2.1553,2.1152,2.1075,2.1309,2.1133,2.0928,2.0801,2.0732,2.0742,2.0674,2.0615,2.0615,2.0615,2.0615,2.0615,2.0615,2.0615,2.0615,2.0615,2.0615,2.0615,2.0615,2.0615,2.0615,2.1356,2.1122,2.1109,2.1102,2.1102,2.1102,2.1089,2.1056,2.1069,2.0902,2.0568,2.0314,2.0034,1.978,1.9746,1.9613,1.9437,1.9424,1.9424,1.9339,1.9065,1.8905,1.8824,1.8262,1.7982,1.7909,1.7722,1.7602,1.7589,1.7589,1.7589,1.7589,1.7589,1.7589,1.7589,1.7589,1.7589,1.7589,1.7589,1.7589,1.7569,1.7347,1.7199,1.7199,1.6814,1.65,1.6308,1.6179,1.5939,1.5378,1.5317,1.5197,1.5008,1.493,1.4981,1.5028,1.5217,1.5464,1.5705,1.5704,1.5725,1.5704,1.5718,1.5718,1.5718,1.5732,1.5631,1.5458,1.5591,1.5698,1.5785,1.6689,1.6886,1.6173,1.684,1.7098,1.6348,1.5974,1.6061,1.6162,1.8003,1.8391,1.9499,2.0358,2.1111,2.1656,2.1469,2.1594,2.1938,2.2031,2.2119,2.2227,2.2031,2.1797,2.1816,2.1807,2.1504,2.119,2.1122,2.0977,2.0752,2.0615,2.0615,2.0615,2.0615,2.0615,2.0615,2.0615,2.0615,2.0615,2.0615,2.0615,2.0615,2.0615,2.0615,2.1547,2.1349,2.1182,2.1102,2.1102,2.1102,2.1102,2.1102,2.1102,2.1036,2.0929,2.0802,2.0401,1.9813,1.9806,1.9639,1.943,1.9424,1.9424,1.9359,1.9232,1.9092,1.8905,1.8698,1.8335,1.8009,1.7862,1.7762,1.7615,1.7589,1.7589,1.7589,1.7589,1.7589,1.7589,1.7589,1.7589,1.7589,1.7589,1.7589,1.7575,1.7521,1.7454,1.7427,1.7179,1.6971,1.6837,1.6627,1.6339,1.5952,1.5919,1.5785,1.5491,1.5471,1.5478,1.5478,1.5585,1.5698,1.5818,1.5825,1.5825,1.5825,1.5825,1.5825,1.5825,1.5825,1.5724,1.5698,1.5765,1.6062,1.6803,1.7412,1.7723,1.794,1.8495,1.8488,1.8079,1.8618,1.884,1.8295,1.967,2.0631,2.0428,2.074,2.1487,2.2241,2.2074,2.1864,2.2427,2.2627,2.2695,2.2812,2.2682,2.2529,2.2314,2.2021,2.1738,2.1346,2.12,2.1074,2.0762,2.0615,2.0615,2.0615,2.0615,2.0615,2.0615,2.0615,2.0615,2.0615,2.0615,2.0615,2.0615,2.0615,2.0615,2.1802,2.1702,2.1349,2.1182,2.1109,2.1102,2.1102,2.1102,2.1102,2.1102,2.1102,2.1102,2.0722,2.0107,2.004,1.984,1.9512,1.9544,1.9439,1.9437,1.9424,1.9252,1.9052,1.8895,1.8657,1.8169,1.8029,1.7829,1.7615,1.7589,1.7589,1.7589,1.7589,1.7589,1.7589,1.7589,1.7589,1.7589,1.7589,1.7589,1.7589,1.7589,1.7589,1.7569,1.7434,1.7286,1.7199,1.6941,1.6693,1.6455,1.6393,1.6293,1.6086,1.5944,1.5912,1.5852,1.5864,1.5912,1.5838,1.5979,1.5991,1.5972,1.6012,1.6017,1.6017,1.6072,1.6066,1.6079,1.6024,1.6471,1.6958,1.7171,1.7584,1.8395,1.8718,1.8993,1.8956,2.0079,2.0342,1.9852,2.0944,2.2492,2.1933,2.1836,2.2215,2.2761,2.2375,2.2031,2.2862,2.3062,2.3071,2.3101,2.3091,2.2964,2.2682,2.25,2.2041,2.1738,2.16,2.1465,2.0908,2.0771,2.0664,2.0664,2.0644,2.0615,2.0615,2.0615,2.0615,2.0615,2.0615,2.0615,2.0615,2.0615,2.0615,2.2218,2.1937,2.165,2.137,2.1116,2.1109,2.1102,2.1102,2.1102,2.1102,2.1102,2.1102,2.0929,2.0628,2.0608,2.0314,1.982,1.976,1.9606,1.9444,1.9424,1.9359,1.939,1.9058,1.8771,1.8464,1.8203,1.7909,1.7602,1.7589,1.7589,1.7589,1.7589,1.7589,1.7589,1.7589,1.7589,1.7589,1.7589,1.7589,1.7589,1.7589,1.7589,1.7582,1.7569,1.7474,1.7253,1.7192,1.6994,1.67,1.6687,1.6673,1.6627,1.64,1.6139,1.5878,1.6106,1.6132,1.5972,1.6284,1.652,1.6333,1.6466,1.664,1.658,1.658,1.658,1.664,1.6686,1.6645,1.6313,1.6449,1.6415,1.659,1.7333,1.7939,1.7932,1.9239,1.9542,1.967,2.0702,2.1889,2.2775,2.3047,2.2906,2.3047,2.3003,2.3003,2.3003,2.3101,2.3101,2.3101,2.3101,2.3081,2.3052,2.2877,2.2721,2.2389,2.2109,2.2109,2.1561,2.1112,2.0947,2.0752,2.0713,2.0664,2.0644,2.0615,2.0615,2.0615,2.0615,2.0615,2.0615,2.0615,2.0615,2.2251,2.1964,2.1735,2.1554,2.1376,2.1196,2.1102,2.1102,2.1102,2.1102,2.1102,2.1102,2.1056,2.0955,2.0949,2.0535,1.9846,1.9806,1.9646,1.945,1.9424,1.9424,1.9352,1.9252,1.9052,1.8764,1.847,1.807,1.7629,1.7589,1.7589,1.7589,1.7589,1.7589,1.7589,1.7589,1.7589,1.7589,1.7589,1.7589,1.7589,1.7589,1.7589,1.7589,1.7589,1.7588,1.7428,1.7428,1.734,1.7058,1.7045,1.6951,1.672,1.6607,1.6506,1.642,1.6493,1.6506,1.6433,1.658,1.6667,1.658,1.664,1.672,1.6707,1.6707,1.6707,1.6807,1.7534,1.778,1.7721,1.7586,1.787,1.8596,1.8949,1.9098,1.9283,2.0004,2.0395,1.9898,2.0576,2.1756,2.2775,2.3101,2.3101,2.3101,2.3101,2.3101,2.3101,2.3101,2.3101,2.3101,2.3101,2.3101,2.3091,2.3091,2.2964,2.2643,2.2412,2.2217,2.1826,2.167,2.1494,2.1133,2.0996,2.0781,2.0723,2.0615,2.0615,2.0615,2.0615,2.0615,2.0615,2.0615,2.0615,2.2392,2.2098,2.181,2.1702,2.1581,2.1236,2.1102,2.1102,2.1102,2.1102,2.1102,2.1102,2.1102,2.1102,2.1102,2.0755,2.0114,1.9987,1.978,1.9512,1.947,1.9424,1.9424,1.9424,1.9212,1.8898,1.8517,1.811,1.7762,1.7635,1.7589,1.7589,1.7589,1.7589,1.7589,1.7589,1.7589,1.7589,1.7589,1.7589,1.7589,1.7589,1.7589,1.7589,1.7589,1.7589,1.7589,1.7589,1.7554,1.7373,1.7347,1.7206,1.6894,1.6847,1.68,1.6727,1.68,1.6807,1.6754,1.6874,1.6954,1.6867,1.6947,1.6987,1.6987,1.6987,1.6987,1.7184,1.7728,1.8376,1.8419,1.8619,1.9319,2.0329,2.0679,2.0772,2.0802,2.1714,2.1799,2.1347,2.1571,2.228,2.2906,2.3047,2.3101,2.3101,2.3101,2.3101,2.3101,2.3101,2.3101,2.3101,2.3101,2.3101,2.3101,2.3101,2.3101,2.2828,2.2691,2.248,2.2256,2.2139,2.1934,2.1572,2.126,2.1006,2.0791,2.0664,2.0615,2.0615,2.0615,2.0615,2.0615,2.0615,2.0722,2.2686,2.2398,2.2104,2.1896,2.1577,2.1283,2.1122,2.1109,2.1102,2.1102,2.1102,2.1102,2.1102,2.1102,2.1102,2.0935,2.0641,2.0361,2.006,1.9753,1.9571,1.9392,1.9424,1.9424,1.9212,1.8905,1.8343,1.8063,1.7942,1.7756,1.7622,1.7595,1.7589,1.7589,1.7589,1.7589,1.7589,1.7589,1.7589,1.7589,1.7589,1.7589,1.7589,1.7589,1.7589,1.7589,1.7589,1.7589,1.7575,1.7562,1.7555,1.7487,1.7246,1.7206,1.7085,1.6867,1.7058,1.6994,1.6847,1.7235,1.742,1.7486,1.7544,1.7796,1.8022,1.7946,1.7952,1.8036,1.8057,1.7987,1.822,1.9177,2.0023,2.0735,2.1444,2.2076,2.2454,2.3495,2.4156,2.3548,2.3235,2.3096,2.311,2.311,2.3101,2.3101,2.3101,2.3101,2.3101,2.3101,2.3101,2.3101,2.3101,2.3101,2.3101,2.3101,2.3101,2.3062,2.3003,2.2857,2.2623,2.251,2.2324,2.1992,2.1572,2.1299,2.0928,2.0771,2.0693,2.0674,2.0644,2.0615,2.0615,2.0644,2.0972,2.2806,2.2692,2.2405,2.2111,2.183,2.1537,2.1303,2.1116,2.1102,2.1102,2.1102,2.1102,2.1102,2.1102,2.1102,2.1056,2.0949,2.0661,2.0281,1.986,1.9706,1.9546,1.945,1.9424,1.9212,1.8938,1.8738,1.8368,1.8049,1.7896,1.7809,1.7622,1.7589,1.7589,1.7589,1.7589,1.7589,1.7589,1.7589,1.7589,1.7589,1.7589,1.7589,1.7589,1.7589,1.7589,1.7589,1.7589,1.7589,1.7589,1.7589,1.7542,1.7468,1.7448,1.7454,1.7335,1.7382,1.7481,1.7355,1.756,1.8007,1.8653,1.8917,1.9517,2.0274,2.0333,2.0326,2.0326,2.0428,2.0428,2.0641,2.1659,2.1686,2.019,2.095,2.1876,2.2092,2.2673,2.3439,2.4072,2.3848,2.3613,2.3525,2.3344,2.313,2.3101,2.3101,2.3101,2.3101,2.3101,2.3101,2.3101,2.3101,2.3101,2.3101,2.3101,2.3101,2.3101,2.3091,2.3081,2.2896,2.2769,2.2637,2.2353,2.1934,2.1572,2.1201,2.0996,2.0928,2.0713,2.0683,2.0654,2.0625,2.076,2.0972,2.2866,2.2901,2.2539,2.2318,2.2098,2.1795,2.1514,2.1269,2.1149,2.1102,2.1102,2.1102,2.1102,2.1102,2.1102,2.1102,2.1082,2.0909,2.0581,2.0127,1.986,1.9646,1.9457,1.9424,1.9285,1.9098,1.8971,1.8681,1.8322,1.8095,1.7889,1.7782,1.7649,1.7589,1.7589,1.7589,1.7589,1.7589,1.7589,1.7589,1.7589,1.7589,1.7589,1.7589,1.7589,1.7589,1.7589,1.7589,1.7589,1.7589,1.7589,1.7589,1.7589,1.7582,1.7589,1.7589,1.7582,1.7582,1.7641,1.8133,1.8662,1.948,2.0084,2.0692,2.1499,2.1693,2.1693,2.1693,2.1643,2.1693,2.1845,2.2868,2.2776,2.1397,2.2302,2.2814,2.2957,2.3249,2.3768,2.4431,2.4287,2.4014,2.376,2.3603,2.3257,2.3159,2.3101,2.3101,2.3101,2.3101,2.3101,2.3101,2.3101,2.3101,2.3101,2.3101,2.3101,2.3101,2.3091,2.3091,2.3013,2.2984,2.2867,2.2578,2.2197,2.1953,2.1611,2.1514,2.1406,2.1103,2.0801,2.0742,2.0732,2.0635,2.0867,2.2866,2.2826,2.2565,2.2438,2.2331,2.1824,2.1641,2.1561,2.1236,2.1102,2.1102,2.1102,2.1102,2.1102,2.1102,2.1102,2.1102,2.1082,2.0895,2.0535,2.0147,1.9753,1.947,1.9424,1.9403,1.935,1.9092,1.8938,1.8798,1.8342,1.8029,1.7995,1.7796,1.7622,1.7649,1.7609,1.7589,1.7589,1.7589,1.7589,1.7589,1.7589,1.7589,1.7589,1.7589,1.7589,1.7589,1.7589,1.7589,1.7589,1.7589,1.7589,1.7589,1.7589,1.7589,1.7589,1.7589,1.7589,1.7898,1.8708,1.9576,1.9922,2.1092,2.1904,2.2257,2.2458,2.2458,2.2366,2.2156,2.1946,2.2156,2.2926,2.3534,2.3939,2.4503,2.5158,2.5538,2.5188,2.5042,2.4982,2.4717,2.4297,2.3935,2.3818,2.3545,2.3208,2.3101,2.3101,2.3101,2.3101,2.3101,2.3101,2.3101,2.3101,2.3101,2.3101,2.3101,2.3101,2.3101,2.3101,2.3101,2.3091,2.3071,2.275,2.2539,2.2305,2.2109,2.1973,2.1748,2.1416,2.1182,2.1016,2.0947,2.0967,2.1301,2.2866,2.2853,2.2779,2.2619,2.2385,2.2024,2.1744,2.1594,2.1236,2.1102,2.1102,2.1102,2.1102,2.1102,2.1102,2.1102,2.1102,2.1102,2.0949,2.0688,2.0541,2.0073,1.9551,1.9424,1.9424,1.9403,1.9265,1.9145,1.8931,1.8738,1.8557,1.8364,1.8076,1.7869,1.7856,1.7702,1.7595,1.7589,1.7589,1.7589,1.7589,1.7589,1.7589,1.7589,1.7589,1.7589,1.7589,1.7589,1.7589,1.7589,1.7589,1.7589,1.7589,1.7589,1.7589,1.7582,1.7635,1.7641,1.7891,1.8961,2.0033,2.1143,2.2416,2.3583,2.4609,2.4609,2.4609,2.4461,2.385,2.3176,2.3226,2.3543,2.4146,2.502,2.5479,2.5684,2.5664,2.5596,2.5508,2.546,2.5156,2.4736,2.4336,2.4014,2.3701,2.3296,2.3149,2.314,2.3179,2.3101,2.3101,2.3101,2.3101,2.3101,2.3101,2.3101,2.3101,2.3101,2.3101,2.3101,2.3101,2.3091,2.3071,2.2955,2.2847,2.2652,2.251,2.2353,2.2051,2.1787,2.168,2.1572,2.1592,2.1663,2.2141,2.2866,2.2866,2.2866,2.2766,2.2559,2.2164,2.1891,2.167,2.1289,2.1102,2.1102,2.1102,2.1102,2.1102,2.1102,2.1102,2.1102,2.1102,2.1015,2.0875,2.0722,2.0241,1.9679,1.9511,1.9424,1.9424,1.9424,1.9272,1.9112,1.8991,1.8824,1.8651,1.8377,1.8129,1.7969,1.7836,1.7702,1.7615,1.7589,1.7589,1.7589,1.7589,1.7589,1.7589,1.7589,1.7589,1.7589,1.7589,1.7589,1.7589,1.7589,1.7589,1.7589,1.7589,1.7589,1.7635,1.8101,1.8454,1.8812,2.0187,2.1608,2.2567,2.3791,2.4766,2.543,2.5684,2.5684,2.5479,2.4913,2.4609,2.4559,2.4559,2.4922,2.5479,2.5684,2.5684,2.5684,2.5674,2.5684,2.5625,2.5508,2.5176,2.4746,2.4453,2.4131,2.3799,2.3555,2.3496,2.3437,2.3237,2.3101,2.3101,2.3101,2.3101,2.3101,2.3101,2.3101,2.3101,2.3101,2.3101,2.3101,2.3101,2.3091,2.3081,2.3091,2.3033,2.2818,2.2685,2.2529,2.2334,2.2236,2.208,2.2021,2.2497,2.3012,2.2866,2.2866,2.2866,2.2866,2.2759,2.2245,2.1971,2.1864,2.1356,2.1102,2.1102,2.1102,2.1102,2.1102,2.1102,2.1102,2.1102,2.1102,2.1102,2.0989,2.0802,2.0381,1.9967,1.9599,1.9497,1.9437,1.9424,1.9417,1.9272,1.9085,1.8991,1.8898,1.8677,1.8424,1.8182,1.8042,1.7889,1.7695,1.7609,1.7589,1.7589,1.7589,1.7589,1.7589,1.7589,1.7589,1.7687,1.7786,1.7943,1.7838,1.7687,1.7641,1.7641,1.7635,1.7891,1.8199,1.9117,1.9834,2.0135,2.2005,2.3484,2.3741,2.4815,2.5684,2.5684,2.5684,2.5684,2.5684,2.5684,2.5528,2.5528,2.5586,2.5586,2.5684,2.5684,2.5684,2.5684,2.5684,2.5684,2.5684,2.5684,2.5518,2.5225,2.5029,2.4873,2.416,2.3935,2.3799,2.3672,2.3486,2.3257,2.3101,2.3101,2.3101,2.3101,2.3101,2.3101,2.3101,2.3101,2.3101,2.3101,2.3101,2.3101,2.3101,2.3101,2.3101,2.3042,2.2916,2.2818,2.274,2.2607,2.2383,2.2291,2.3174,2.3835,2.2866,2.2866,2.2866,2.2866,2.2766,2.2245,2.1984,2.1924,2.1356,2.1102,2.1102,2.1102,2.1102,2.1102,2.1102,2.1102,2.1102,2.1102,2.1102,2.1069,2.0815,2.0648,2.0361,1.9953,1.9599,1.9504,1.943,1.9424,1.9383,1.9292,1.9272,1.9212,1.8978,1.8791,1.8621,1.8235,1.7975,1.7856,1.7722,1.7602,1.7589,1.7589,1.7589,1.7589,1.7589,1.7589,1.7838,1.861,1.9117,1.8909,1.8297,1.7943,1.8094,1.8708,1.9117,1.9472,2.0436,2.1245,2.1541,2.2717,2.3741,2.3939,2.4922,2.5684,2.5684,2.5684,2.5684,2.5684,2.5684,2.5684,2.5684,2.5684,2.5684,2.5684,2.5684,2.5684,2.5684,2.5684,2.5684,2.5684,2.5674,2.5566,2.5204,2.5174,2.4912,2.4512,2.4316,2.4131,2.3955,2.3779,2.3535,2.3305,2.3227,2.3227,2.3101,2.3101,2.3101,2.3101,2.3101,2.3101,2.3101,2.3101,2.3101,2.3101,2.3101,2.3101,2.3101,2.3091,2.2964,2.2945,2.2925,2.276,2.2922,2.3822,2.4678,2.2866,2.2866,2.2866,2.2779,2.2599,2.2178,2.1911,2.1717,2.1316,2.1102,2.1102,2.1102,2.1102,2.1102,2.1102,2.1102,2.1102,2.1102,2.1102,2.1076,2.0935,2.0808,2.0601,2.0241,1.9853,1.9593,1.9426,1.9437,1.9424,1.9424,1.941,1.9424,1.9199,1.9038,1.8938,1.8542,1.8262,1.8009,1.7842,1.7742,1.7609,1.7589,1.7589,1.7589,1.7589,1.7589,1.7687,1.8864,1.9472,1.9576,1.9576,1.9517,1.9568,2.0187,2.0538,2.0794,2.1862,2.2558,2.2918,2.3791,2.4658,2.4599,2.5323,2.5528,2.5684,2.5684,2.5684,2.5684,2.5684,2.5684,2.5684,2.5684,2.5684,2.5684,2.5684,2.5684,2.5684,2.5684,2.5684,2.5684,2.5684,2.5586,2.5459,2.5332,2.5322,2.506,2.4805,2.4629,2.4531,2.4307,2.3896,2.3672,2.3535,2.3364,2.3159,2.3101,2.3101,2.3101,2.3101,2.3101,2.3101,2.3101,2.3101,2.3101,2.3101,2.3101,2.3101,2.3101,2.3101,2.3052,2.3033,2.3081,2.3554,2.4493,2.5299,2.2866,2.2859,2.2812,2.2672,2.2438,2.2084,2.181,2.1617,2.1249,2.1102,2.1102,2.1102,2.1102,2.1102,2.1102,2.1102,2.1102,2.1102,2.1102,2.1089,2.1082,2.0955,2.0735,2.0454,2.0154,1.9853,1.9519,1.9444,1.9424,1.9424,1.9424,1.9424,1.9424,1.9232,1.9038,1.8911,1.8621,1.8262,1.8115,1.7976,1.7742,1.7689,1.7675,1.7589,1.7589,1.7838,1.8304,1.9317,2.0135,2.029,2.155,2.2156,2.2257,2.2055,2.2013,2.2055,2.3276,2.389,2.4146,2.4922,2.5577,2.5684,2.5684,2.5693,2.5684,2.5684,2.5684,2.5684,2.5684,2.5684,2.5684,2.5684,2.5684,2.5684,2.5684,2.5684,2.5684,2.5684,2.5684,2.5684,2.5684,2.5625,2.5625,2.5615,2.5635,2.5625,2.5361,2.5145,2.498,2.4795,2.4375,2.3955,2.3779,2.3413,2.3179,2.312,2.312,2.3101,2.3101,2.3101,2.3101,2.3101,2.3101,2.3101,2.3101,2.3101,2.3101,2.3101,2.3101,2.3101,2.3101,2.3101,2.393,2.5105,2.5891,2.2866,2.2839,2.2599,2.2599,2.2645,2.203,2.173,2.1804,2.1316,2.1109,2.1102,2.1102,2.1102,2.1102,2.1102,2.1102,2.1102,2.1102,2.1102,2.1102,2.1102,2.1036,2.0949,2.0681,2.0428,2.0087,1.9673,1.9464,1.943,1.9424,1.9424,1.9424,1.9424,1.9363,1.9219,1.9065,1.9124,1.8937,1.8767,1.853,1.8461,1.8338,1.8136,1.8012,1.8016,1.8408,1.9317,2.0582,2.1853,2.2976,2.4304,2.4805,2.455,2.3831,2.3434,2.3642,2.4461,2.5118,2.5226,2.5479,2.5684,2.5684,2.5684,2.5684,2.5684,2.5684,2.5684,2.5684,2.5684,2.5684,2.5684,2.5684,2.5684,2.5684,2.5684,2.5684,2.5684,2.5684,2.5684,2.5684,2.5684,2.5684,2.5684,2.5684,2.5684,2.5684,2.5586,2.5342,2.5176,2.5039,2.4814,2.4385,2.3994,2.3559,2.3179,2.3159,2.3149,2.311,2.3101,2.3101,2.3101,2.3101,2.3101,2.3101,2.3101,2.3101,2.3101,2.3101,2.3299,2.342,2.3299,2.3178,2.4392,2.5599,2.6265,2.2866,2.2832,2.2545,2.2412,2.2311,2.1876,2.1537,2.149,2.1229,2.1102,2.1102,2.1102,2.1102,2.1102,2.1102,2.1102,2.1102,2.1102,2.1102,2.1102,2.1102,2.1102,2.1069,2.0815,2.0628,2.0334,1.99,1.9512,1.9386,1.9424,1.9424,1.9424,1.9424,1.9424,1.9628,2.0066,2.0104,2.0026,1.9905,2.0062,2.039,2.0309,1.9873,1.9288,1.9353,1.9687,1.9834,2.176,2.2926,2.3732,2.4913,2.5528,2.5479,2.5167,2.4707,2.4815,2.5323,2.5684,2.5684,2.5684,2.5684,2.5684,2.5684,2.5684,2.5684,2.5684,2.5684,2.5684,2.5684,2.5684,2.5684,2.5684,2.5684,2.5684,2.5684,2.5684,2.5684,2.5684,2.5684,2.5684,2.5684,2.5684,2.5684,2.5684,2.5684,2.5684,2.5684,2.5586,2.5381,2.5283,2.5166,2.4766,2.4346,2.3975,2.3603,2.3461,2.3305,2.3208,2.3159,2.3159,2.3101,2.3101,2.3101,2.3101,2.3101,2.3101,2.3101,2.3091,2.342,2.3747,2.392,2.4221,2.5094,2.5964,2.6748,2.2894,2.2746,2.2452,2.2198,2.1951,2.1603,2.1376,2.1209,2.1136,2.1102,2.1102,2.1102,2.1102,2.1102,2.1102,2.1102,2.1102,2.1102,2.1102,2.1102,2.1102,2.1102,2.1036,2.0902,2.0728,2.0568,2.0274,1.9793,1.9519,1.9457,1.9424,1.9424,1.9424,1.9424,1.9635,2.0659,2.1166,2.1391,2.1612,2.2159,2.2695,2.2579,2.1905,2.0852,2.1453,2.1299,2.1065,2.2425,2.3692,2.4353,2.5069,2.5684,2.5684,2.5684,2.5684,2.5684,2.5684,2.5684,2.5684,2.5684,2.5684,2.5684,2.5684,2.5684,2.5684,2.5684,2.5684,2.5684,2.5684,2.5684,2.5684,2.5684,2.5684,2.5684,2.5684,2.5684,2.5684,2.5684,2.5684,2.5684,2.5684,2.5684,2.5684,2.5684,2.5684,2.5684,2.5684,2.5684,2.5566,2.5605,2.5449,2.5088,2.4717,2.4375,2.4102,2.3935,2.3711,2.3457,2.3398,2.3369,2.3208,2.3101,2.311,2.313,2.3101,2.3101,2.3101,2.3222,2.3594,2.4006,2.4542,2.5126,2.5797,2.6614,2.7481,2.2706,2.2445,2.2158,2.2011,2.1897,2.1403,2.1303,2.1501,2.1209,2.1109,2.1102,2.1102,2.1102,2.1102,2.1102,2.1102,2.1102,2.1102,2.1102,2.1102,2.1102,2.1102,2.1102,2.1089,2.1194,2.1224,2.0951,2.0254,2.0025,1.9722,1.9399,1.9406,1.9444,1.9424,1.9533,2.1145,2.1506,2.1801,2.2847,2.3511,2.3453,2.3193,2.2822,2.2336,2.2378,2.2622,2.2847,2.3714,2.4301,2.5274,2.5528,2.5684,2.5684,2.5684,2.5684,2.5684,2.5684,2.5684,2.5684,2.5684,2.5684,2.5684,2.5684,2.5684,2.5684,2.5684,2.5684,2.5684,2.5684,2.5684,2.5684,2.5684,2.5684,2.5684,2.5684,2.5684,2.5684,2.5684,2.5684,2.5684,2.5684,2.5684,2.5684,2.5684,2.5684,2.5684,2.5684,2.5684,2.5684,2.5684,2.5645,2.5342,2.5137,2.4824,2.4531,2.4375,2.4121,2.3769,2.3682,2.3623,2.3481,2.3383,2.3169,2.3179,2.3149,2.311,2.3101,2.3299,2.3724,2.4382,2.5094,2.5714,2.6254,2.7197,2.8295,2.2291,2.2151,2.1857,2.1809,2.169,2.1283,2.1182,2.1256,2.1169,2.1102,2.1102,2.1102,2.1102,2.1102,2.1102,2.1102,2.1102,2.1102,2.1102,2.1102,2.1102,2.1102,2.1355,2.2027,2.2415,2.2431,2.2919,2.284,2.1776,2.0381,1.9613,1.9579,1.9504,1.9424,1.9707,2.1707,2.2597,2.3535,2.4867,2.5737,2.5297,2.5263,2.5117,2.4246,2.4625,2.4566,2.4326,2.4955,2.5239,2.5771,2.5684,2.5684,2.5684,2.5684,2.5684,2.5684,2.5684,2.5684,2.5684,2.5684,2.5684,2.5684,2.5684,2.5684,2.5684,2.5684,2.5684,2.5684,2.5684,2.5684,2.5684,2.5684,2.5684,2.5684,2.5684,2.5684,2.5684,2.5684,2.5684,2.5684,2.5684,2.5684,2.5684,2.5684,2.5684,2.5684,2.5684,2.5684,2.5684,2.5684,2.5635,2.5566,2.543,2.5293,2.501,2.4832,2.4551,2.4268,2.415,2.4062,2.3945,2.3754,2.3762,2.3501,2.3345,2.3286,2.3227,2.3343,2.3681,2.4681,2.5766,2.6513,2.7342,2.8279,2.9184,2.1837,2.175,2.1675,2.1574,2.1487,2.1203,2.1109,2.1109,2.1109,2.1102,2.1102,2.1102,2.1102,2.1102,2.1102,2.1102,2.1102,2.1102,2.1102,2.1102,2.1102,2.1102,2.1538,2.2584,2.3504,2.369,2.4664,2.4695,2.3671,2.2303,2.113,1.9925,2.0282,1.9846,2.0277,2.2104,2.3877,2.5325,2.7006,2.7428,2.6913,2.7313,2.6935,2.6631,2.656,2.6493,2.5441,2.5841,2.6288,2.5966,2.5888,2.5869,2.5732,2.5684,2.5684,2.5684,2.5684,2.5684,2.5684,2.5684,2.5684,2.5684,2.5684,2.5684,2.5684,2.5684,2.5684,2.5684,2.5684,2.5684,2.5684,2.5684,2.5684,2.5684,2.5684,2.5684,2.5684,2.5684,2.5684,2.5684,2.5684,2.5684,2.5684,2.5684,2.5684,2.5684,2.5684,2.5684,2.5684,2.5684,2.5654,2.5596,2.5605,2.5537,2.54,2.5146,2.4922,2.4756,2.4629,2.4766,2.4826,2.4766,2.4765,2.441,2.4067,2.4132,2.4472,2.4005,2.3724,2.5062,2.6389,2.7597,2.8542,2.9417,2.9779,2.1416,2.1189,2.1507,2.139,2.1149,2.1116,2.1102,2.1102,2.1102,2.1102,2.1102,2.1102,2.1102,2.1102,2.1102,2.1102,2.1102,2.1102,2.1102,2.1102,2.1102,2.1235,2.1915,2.2889,2.3931,2.4301,2.5825,2.6369,2.5844,2.5506,2.3033,2.0499,2.1533,2.0778,2.1089,2.2862,2.5333,2.678,2.813,2.8237,2.796,2.8077,2.7878,2.7606,2.7513,2.737,2.6849,2.6922,2.6777,2.6377,2.6269,2.6133,2.5859,2.5723,2.5693,2.5684,2.5684,2.5684,2.5684,2.5684,2.5684,2.5684,2.5684,2.5684,2.5684,2.5684,2.5684,2.5684,2.5684,2.5684,2.5684,2.5684,2.5684,2.5684,2.5684,2.5684,2.5684,2.5684,2.5684,2.5684,2.5684,2.5684,2.5684,2.5684,2.5684,2.5684,2.5684,2.5684,2.5684,2.5684,2.5684,2.5654,2.5664,2.5645,2.5645,2.5508,2.5312,2.5176,2.5059,2.5541,2.602,2.592,2.5702,2.6127,2.6015,2.5824,2.5526,2.5067,2.505,2.5915,2.6976,2.8011,2.887,2.9573,2.9779,2.1216,2.1122,2.1236,2.1216,2.1102,2.1102,2.1102,2.1102,2.1102,2.1102,2.1102,2.1102,2.1102,2.1102,2.1102,2.1102,2.1102,2.1102,2.1166,2.1102,2.1102,2.1727,2.2709,2.417,2.5558,2.6539,2.8009,2.8307,2.7579,2.8032,2.6482,2.4673,2.3837,2.3263,2.3472,2.4041,2.6173,2.7618,2.8301,2.8301,2.8301,2.8291,2.8213,2.8086,2.8047,2.7822,2.749,2.7422,2.7158,2.6846,2.6572,2.6348,2.6133,2.5879,2.5742,2.5713,2.5713,2.5684,2.5684,2.5684,2.5684,2.5684,2.5684,2.5684,2.5684,2.5684,2.5684,2.5684,2.5684,2.5684,2.5684,2.5684,2.5684,2.5684,2.5684,2.5684,2.5684,2.5684,2.5684,2.5684,2.5684,2.5684,2.5684,2.5684,2.5684,2.5684,2.5684,2.5684,2.5684,2.5684,2.5684,2.5684,2.5684,2.5684,2.5684,2.5654,2.5664,2.5557,2.543,2.6151,2.6767,2.6697,2.6638,2.7255,2.7788,2.7445,2.693,2.6216,2.6306,2.7008,2.7557,2.8199,2.8988,2.9714,2.9817,2.1102,2.1102,2.1102,2.1102,2.1102,2.1102,2.1102,2.1102,2.1102,2.1102,2.1102,2.1102,2.1102,2.1102,2.1102,2.1601,2.1846,2.1971,2.1908,2.1971,2.2153,2.2591,2.3807,2.5138,2.653,2.8426,2.9903,3.003,2.9285,3.0333,2.9149,2.7557,2.6481,2.5846,2.4608,2.5599,2.6834,2.796,2.8301,2.8301,2.8301,2.8291,2.8291,2.8262,2.8252,2.8144,2.792,2.7832,2.7627,2.7285,2.6982,2.6748,2.6494,2.623,2.5986,2.5849,2.5771,2.5703,2.5684,2.5684,2.5684,2.5684,2.5684,2.5684,2.5684,2.5684,2.5684,2.5684,2.5684,2.5684,2.5684,2.5684,2.5684,2.5684,2.5684,2.5684,2.5684,2.5684,2.5684,2.5684,2.5684,2.5684,2.5684,2.5684,2.5684,2.5684,2.5684,2.5684,2.5684,2.5684,2.5684,2.5684,2.5684,2.5684,2.5684,2.5761,2.5742,2.5635,2.5779,2.6785,2.7269,2.738,2.8054,2.9059,2.9348,2.8942,2.8622,2.8353,2.8085,2.7962,2.8495,2.8992,2.9268,2.9917,2.9917,2.1102,2.1102,2.1102,2.1102,2.1102,2.1102,2.1102,2.1172,2.1292,2.1355,2.1411,2.1411,2.1531,2.1594,2.1902,2.2514,2.338,2.3512,2.3504,2.3497,2.3559,2.3628,2.4417,2.5741,2.7383,2.8545,2.9962,3.0772,3.0645,3.0772,3.0461,3.0258,2.9115,2.7926,2.5017,2.5637,2.6907,2.8077,2.8237,2.8301,2.8301,2.8301,2.8301,2.8301,2.8301,2.8223,2.8184,2.8154,2.7959,2.7685,2.7562,2.7275,2.6992,2.6602,2.6396,2.6367,2.6025,2.5791,2.5713,2.5693,2.5684,2.5684,2.5684,2.5684,2.5684,2.5684,2.5684,2.5684,2.5684,2.5684,2.5684,2.5684,2.5684,2.5684,2.5684,2.5684,2.5684,2.5684,2.5684,2.5684,2.5684,2.5684,2.5684,2.5684,2.5684,2.5684,2.5684,2.5684,2.5684,2.5684,2.5684,2.5684,2.5684,2.5684,2.5732,2.5878,2.5868,2.5781,2.637,2.7615,2.853,2.8976,2.985,3.0859,3.1025,3.073,3.0737,3.0706,3.0036,2.9363,2.9529,2.9872,3.0016,3.0143,3.0281,2.1102,2.1102,2.1102,2.1102,2.1102,2.1102,2.1102,2.1292,2.2223,2.2772,2.3014,2.3799,2.434,2.434,2.4217,2.4525,2.5016,2.52,2.52,2.5192,2.52,2.5993,2.6599,2.7142,2.8358,2.9776,3.0772,3.0898,3.083,3.0898,3.0898,3.0771,3.0382,2.921,2.7976,2.7865,2.8269,2.8296,2.8301,2.8301,2.8301,2.8301,2.8301,2.8301,2.8301,2.8301,2.8301,2.8301,2.8184,2.8008,2.7881,2.7617,2.7393,2.7041,2.6826,2.6807,2.6572,2.6445,2.6182,2.5977,2.5693,2.5684,2.5684,2.5684,2.5684,2.5684,2.5684,2.5684,2.5684,2.5684,2.5684,2.5684,2.5684,2.5684,2.5684,2.5684,2.5684,2.5684,2.5684,2.5684,2.5684,2.5684,2.5684,2.5684,2.5684,2.5868,2.5868,2.5781,2.5732,2.5732,2.5684,2.5684,2.5684,2.5684,2.5781,2.6149,2.6572,2.6716,2.7673,2.9085,2.9852,3.0259,3.1122,3.1892,3.2247,3.2582,3.2033,3.1546,3.1108,3.0798,3.0856,3.0746,3.0721,3.0859,3.1009,2.1102,2.1102,2.1102,2.1102,2.1102,2.1102,2.1102,2.1411,2.2834,2.3566,2.3869,2.5253,2.5915,2.5915,2.6037,2.653,2.6712,2.6841,2.6841,2.6832,2.6832,2.7383,2.7991,2.8605,2.9226,3.046,3.0898,3.0898,3.0898,3.0898,3.0898,3.082,3.0586,2.9994,2.9298,2.8966,2.867,2.8545,2.8457,2.8301,2.8301,2.8301,2.8301,2.8301,2.8301,2.8301,2.8301,2.8301,2.8291,2.8203,2.8066,2.7871,2.7744,2.7519,2.7275,2.7236,2.7041,2.6807,2.6396,2.6191,2.5957,2.5703,2.5693,2.5684,2.5684,2.5684,2.5684,2.5684,2.5684,2.5684,2.5684,2.5684,2.5684,2.5684,2.5684,2.5684,2.5684,2.5684,2.5684,2.5684,2.5684,2.5684,2.5684,2.5684,2.5684,2.5917,2.611,2.5965,2.5917,2.6014,2.6052,2.6052,2.5917,2.5868,2.6197,2.6754,2.7125,2.7552,2.8773,3.0135,3.0541,3.0855,3.1909,3.2742,3.2814,3.2775,3.2591,3.2198,3.193,3.1868,3.2001,3.1788,3.1512,3.1537,3.1662,2.1102,2.1102,2.1102,2.1102,2.1102,2.1102,2.1102,2.1292,2.3014,2.3752,2.3876,2.5749,2.6772,2.647,2.6349,2.7202,2.8247,2.8486,2.8486,2.8486,2.8477,2.8724,2.8664,2.8852,2.9776,3.0518,3.0898,3.0898,3.0898,3.0898,3.0898,3.0898,3.082,3.0488,3.0029,2.9463,2.9033,2.8769,2.8467,2.833,2.8301,2.8301,2.8301,2.8301,2.8301,2.8301,2.8301,2.8301,2.8301,2.8281,2.8262,2.8262,2.8144,2.7943,2.7806,2.7578,2.7295,2.6924,2.665,2.6514,2.6172,2.5918,2.5713,2.5693,2.5684,2.5684,2.5684,2.5684,2.5684,2.5684,2.5684,2.5684,2.5684,2.5684,2.5684,2.5684,2.5684,2.5684,2.5684,2.5684,2.5684,2.5684,2.5684,2.5684,2.5868,2.6014,2.6294,2.662,2.662,2.6744,2.6791,2.6754,2.6572,2.6149,2.661,2.7531,2.7955,2.8459,2.9555,3.0777,3.1089,3.15,3.2239,3.284,3.3025,3.3011,3.2792,3.2817,3.288,3.2898,3.2654,3.2478,3.2077,3.2139,3.2202,2.1102,2.1102,2.1102,2.1102,2.1102,2.1102,2.1102,2.1475,2.3985,2.5314,2.5436,2.8316,2.9107,2.9471,2.953,2.9726,2.9962,3.0147,3.0147,3.0089,2.9893,3.0089,3.0147,3.0089,3.0518,3.0704,3.0898,3.0898,3.0898,3.0898,3.0898,3.0898,3.0898,3.0762,3.042,2.9814,2.9336,2.8906,2.8545,2.835,2.8301,2.8301,2.8301,2.8301,2.8301,2.8301,2.8301,2.8301,2.8301,2.8301,2.8301,2.8301,2.8271,2.8174,2.8105,2.8057,2.7744,2.7402,2.7278,2.6728,2.6318,2.6123,2.5859,2.5703,2.5684,2.5684,2.5684,2.5684,2.5684,2.5684,2.5684,2.5684,2.5684,2.5684,2.5684,2.5684,2.5684,2.5684,2.5684,2.5684,2.5684,2.5868,2.5868,2.5965,2.611,2.6197,2.6524,2.7125,2.74,2.7579,2.7662,2.7673,2.7673,2.7389,2.7934,2.8808,2.9039,2.9464,3.0598,3.1557,3.2064,3.2469,3.2742,3.2884,3.3081,3.3124,3.3086,3.3124,3.3124,3.3124,3.296,3.286,3.2772,3.2692,3.2692,2.1102,2.1102,2.1102,2.1102,2.1229,2.1783,2.209,2.2584,2.4893,2.5976,2.6401,2.9353,3.0898,3.0772,3.0704,3.0772,3.0772,3.0772,3.0772,3.0772,3.0898,3.083,3.0889,3.0898,3.083,3.0898,3.0898,3.0898,3.0898,3.0898,3.0898,3.0898,3.0898,3.0898,3.0615,3.0019,2.9492,2.9062,2.8691,2.8389,2.8301,2.8301,2.8301,2.8301,2.8301,2.8301,2.8301,2.8301,2.8301,2.8301,2.8301,2.8301,2.8301,2.8281,2.8281,2.8223,2.8086,2.7793,2.7539,2.7012,2.665,2.6328,2.6006,2.5742,2.5684,2.5684,2.5684,2.5684,2.5684,2.5684,2.5684,2.5684,2.5684,2.5684,2.5684,2.5684,2.5684,2.5684,2.5684,2.5684,2.582,2.611,2.6197,2.6294,2.662,2.7125,2.7851,2.8669,2.8762,2.8577,2.8669,2.8716,2.8855,2.8855,2.9442,2.9806,3.009,3.0553,3.1601,3.2469,3.3038,3.3081,3.2982,3.3025,3.3081,3.3124,3.3124,3.3124,3.3124,3.3124,3.3124,3.3023,3.296,3.2986,3.2998,2.1166,2.1411,2.1411,2.1776,2.172,2.3201,2.3814,2.4,2.5627,2.6219,2.6893,2.954,3.0898,3.0898,3.0898,3.0898,3.0898,3.0898,3.0898,3.0898,3.0898,3.0898,3.0898,3.0898,3.0898,3.0898,3.0898,3.0898,3.0898,3.0898,3.0898,3.0898,3.0898,3.0898,3.0762,3.0127,2.9648,2.9365,2.8838,2.8408,2.832,2.8301,2.8301,2.8301,2.8301,2.8301,2.8301,2.8301,2.8301,2.8301,2.8301,2.8301,2.8301,2.8301,2.8301,2.8291,2.8232,2.8086,2.7793,2.7344,2.6914,2.6504,2.6064,2.581,2.5742,2.5693,2.5684,2.5684,2.5684,2.5684,2.5684,2.5684,2.5684,2.5684,2.5684,2.5684,2.5684,2.5684,2.5684,2.5684,2.5732,2.611,2.6897,2.703,2.7352,2.8002,2.8993,3.0,3.0181,2.9852,3.0,3.0045,3.0316,3.0451,3.0181,3.0586,3.1045,3.1689,3.2469,3.2884,3.3081,3.3124,3.3124,3.3124,3.3124,3.3124,3.3124,3.3124,3.3124,3.3124,3.3124,3.3124,3.3124,3.3124,3.3124,2.1846,2.3146,2.4348,2.4824,2.4885,2.5253,2.5436,2.5558,2.7134,2.7803,2.8239,2.9844,3.0898,3.0898,3.0898,3.0898,3.0898,3.0898,3.0898,3.0898,3.0898,3.0898,3.0898,3.0898,3.0898,3.0898,3.0898,3.0898,3.0898,3.0898,3.0898,3.0898,3.0898,3.0898,3.085,3.0225,2.9873,2.9616,2.9053,2.8535,2.832,2.8301,2.8301,2.8301,2.8301,2.8301,2.8301,2.8301,2.8301,2.8301,2.8301,2.8301,2.8301,2.8301,2.8301,2.8301,2.8301,2.8193,2.8027,2.7676,2.7275,2.6894,2.6484,2.6103,2.582,2.5732,2.5684,2.5693,2.5684,2.5684,2.5684,2.5684,2.5684,2.5684,2.5684,2.5684,2.5684,2.5684,2.5684,2.5684,2.5684,2.638,2.7268,2.7861,2.8179,2.9004,3.0135,3.1,3.1267,3.1223,3.1645,3.1833,3.2152,3.2152,3.1557,3.1323,3.1789,3.1965,3.2513,3.284,3.3081,3.3124,3.3124,3.3124,3.3124,3.3124,3.3124,3.3124,3.3124,3.3124,3.3124,3.3124,3.3124,3.3124,3.3124,2.3799,2.4778,2.5619,2.5976,2.6158,2.6772,2.7073,2.7383,2.8792,2.953,2.9589,3.046,3.0898,3.0898,3.0898,3.0898,3.0898,3.0898,3.0898,3.0898,3.0898,3.0898,3.0898,3.0898,3.0898,3.0898,3.0898,3.0898,3.0898,3.0898,3.0898,3.0898,3.0898,3.0879,3.082,3.043,3.001,2.9626,2.916,2.875,2.8379,2.8301,2.8301,2.8301,2.8301,2.8301,2.8301,2.8301,2.8301,2.8301,2.8301,2.8301,2.8301,2.8301,2.8301,2.8301,2.8301,2.8291,2.8174,2.793,2.763,2.7236,2.6904,2.6514,2.6426,2.6318,2.5918,2.5879,2.5703,2.5684,2.5684,2.5684,2.5684,2.5684,2.5684,2.5684,2.5684,2.5684,2.5684,2.5684,2.6004,2.6696,2.7673,2.8634,2.9085,3.0135,3.1267,3.1456,3.1821,3.2196,3.2754,3.3124,3.3124,3.3081,3.2469,3.2339,3.2568,3.2698,3.2612,3.284,3.3124,3.3124,3.3124,3.3124,3.3124,3.3124,3.3124,3.3124,3.3124,3.3124,3.3124,3.3124,3.3124,3.3124,3.3124,2.6037,2.628,2.6591,2.6651,2.6832,2.8119,2.8724,2.897,3.0206,3.083,3.0772,3.083,3.0898,3.0898,3.0898,3.0898,3.0898,3.0898,3.0898,3.0898,3.0898,3.0898,3.0898,3.0898,3.0898,3.0898,3.0898,3.0898,3.0898,3.0898,3.0898,3.0898,3.0898,3.0889,3.0762,3.0508,3.0137,2.9775,2.9365,2.8906,2.8584,2.832,2.8301,2.8301,2.8301,2.8301,2.8301,2.8301,2.8301,2.8301,2.8301,2.8301,2.8301,2.8301,2.8301,2.8301,2.8301,2.8301,2.8223,2.8018,2.7845,2.7559,2.7256,2.706,2.6963,2.6631,2.6221,2.6084,2.5908,2.5713,2.5713,2.5684,2.5684,2.5868,2.5868,2.6187,2.6235,2.61,2.6052,2.6004,2.6562,2.7258,2.8215,2.9223,3.0226,3.1311,3.1777,3.1865,3.2052,3.2469,3.2939,3.3124,3.3124,3.3038,3.2982,3.2982,3.2982,3.2982,3.2896,3.3025,3.3124,3.3124,3.3124,3.3124,3.3124,3.3124,3.3124,3.3124,3.3124,3.3124,3.3124,3.3124,3.3124,3.3124,3.3124,2.6772,2.8059,2.9353,2.9903,2.9971,3.0265,3.0401,3.046,3.0704,3.0898,3.0898,3.0898,3.0898,3.0898,3.0898,3.0898,3.0898,3.0898,3.0898,3.0898,3.0898,3.0898,3.0898,3.0898,3.0898,3.0898,3.0898,3.0898,3.0898,3.0898,3.0898,3.0898,3.0898,3.0898,3.0879,3.0654,3.0459,3.0078,2.9844,2.9502,2.8838,2.8555,2.832,2.8301,2.8301,2.8301,2.8301,2.8301,2.8301,2.8301,2.8301,2.8301,2.8301,2.8301,2.8301,2.8301,2.8301,2.8301,2.8213,2.8154,2.8008,2.7826,2.751,2.7402,2.7178,2.6777,2.6572,2.665,2.6426,2.5898,2.5791,2.5713,2.5742,2.6245,2.6476,2.7531,2.8075,2.7626,2.7258,2.7258,2.74,2.8215,2.9131,3.0135,3.119,3.2052,3.2568,3.2655,3.2612,3.2896,3.3124,3.3124,3.3124,3.3124,3.3081,3.3081,3.3081,3.3081,3.3124,3.3124,3.3124,3.3124,3.3124,3.3124,3.3124,3.3124,3.3124,3.3124,3.3124,3.3124,3.3124,3.3124,3.3124,3.3124,3.3124]}]]